[[{"header":{"parameterUnit":"m.s-1","parameterCategory":1,"la1":30.6,"la2":29.2853,"lo1":-89.7004,"lo2":-87.6739,"dx":0.0162,"dy":0.0183,"nx":112,"ny":82,"refTime":"2023-02-05T06:00:00:Z","depth":0,"parameterNumber":2,"parameterNumberName":"U-component_of_WINDS"},"data":[0.0,0.0,0.0,0.0,0.0,0.0,0.0,0.0,0.0,0.0,0.0,0.0,0.0,0.0,0.0,0.0,0.0,0.0,0.0,0.0,0.0,0.0,0.0,0.0,0.0,0.0,0.0,0.0,0.0,0.0,0.0,0.0,0.0,0.0,0.0,0.0,0.0,0.0,0.0,0.0,0.0,0.0,0.0,0.0,0.0,0.0,0.0,0.0,0.0,0.0,0.0,0.0,0.0,0.0,0.0,0.0,0.0,0.0,0.0,0.0,0.0,0.0,0.0,0.0,0.0,0.0,0.0,0.0,0.0,0.0,0.0,0.0,0.0,0.0,0.0,0.0,0.0,0.0,0.0,0.0,0.0,0.0,0.0,0.0,0.0,0.0,0.0,0.0,0.0,0.0,-7.7304,-7.7304,-7.7826,-7.82,-7.8432,-7.8853,-7.938,-8.0201,0.0,0.0,0.0,0.0,0.0,0.0,0.0,0.0,0.0,0.0,0.0,0.0,0.0,0.0,0.0,0.0,0.0,0.0,0.0,0.0,0.0,0.0,0.0,0.0,0.0,0.0,0.0,0.0,0.0,0.0,0.0,0.0,0.0,0.0,0.0,0.0,0.0,0.0,0.0,0.0,0.0,0.0,0.0,0.0,0.0,0.0,0.0,0.0,0.0,0.0,0.0,0.0,0.0,0.0,0.0,0.0,0.0,0.0,0.0,0.0,0.0,0.0,0.0,0.0,0.0,0.0,0.0,0.0,0.0,0.0,0.0,0.0,0.0,0.0,0.0,0.0,0.0,0.0,0.0,0.0,0.0,0.0,0.0,0.0,0.0,0.0,0.0,0.0,0.0,0.0,0.0,0.0,0.0,0.0,0.0,0.0,0.0,0.0,0.0,0.0,0.0,0.0,0.0,0.0,-7.7304,-7.7304,-7.7426,-7.7903,-7.8962,-7.8653,-7.9143,-8.0855,0.0,0.0,0.0,0.0,0.0,0.0,0.0,0.0,0.0,0.0,0.0,0.0,0.0,0.0,0.0,0.0,0.0,0.0,0.0,0.0,0.0,0.0,0.0,0.0,0.0,0.0,0.0,0.0,0.0,0.0,0.0,0.0,0.0,0.0,0.0,0.0,0.0,0.0,0.0,0.0,0.0,0.0,0.0,0.0,0.0,0.0,0.0,0.0,0.0,0.0,0.0,0.0,0.0,0.0,0.0,0.0,0.0,0.0,0.0,0.0,0.0,0.0,0.0,0.0,0.0,0.0,0.0,0.0,0.0,0.0,0.0,0.0,0.0,0.0,0.0,0.0,0.0,0.0,0.0,0.0,0.0,0.0,0.0,0.0,0.0,0.0,0.0,0.0,0.0,0.0,0.0,0.0,0.0,0.0,0.0,0.0,0.0,0.0,0.0,0.0,0.0,0.0,0.0,-7.7304,-7.7304,-7.7304,-7.7304,-7.757,-7.8108,-7.8218,-7.8804,-8.0007,-8.0086,0.0,0.0,0.0,0.0,0.0,0.0,0.0,0.0,0.0,0.0,0.0,0.0,0.0,0.0,0.0,0.0,0.0,0.0,0.0,0.0,0.0,0.0,0.0,0.0,0.0,0.0,0.0,0.0,0.0,0.0,0.0,0.0,0.0,0.0,0.0,0.0,0.0,0.0,0.0,0.0,0.0,0.0,0.0,0.0,0.0,0.0,0.0,0.0,0.0,0.0,0.0,0.0,0.0,0.0,0.0,0.0,0.0,0.0,0.0,0.0,0.0,0.0,0.0,0.0,0.0,0.0,0.0,0.0,0.0,0.0,0.0,0.0,0.0,0.0,0.0,0.0,0.0,0.0,0.0,0.0,0.0,0.0,0.0,0.0,0.0,0.0,0.0,0.0,0.0,0.0,0.0,0.0,0.0,0.0,0.0,0.0,0.0,0.0,0.0,0.0,0.0,0.0,-7.7304,-7.7304,-7.7304,-7.7304,-7.7365,-7.751,-7.7846,-7.8484,-7.9335,-7.9685,0.0,0.0,0.0,0.0,0.0,0.0,0.0,0.0,0.0,0.0,0.0,0.0,0.0,0.0,0.0,0.0,0.0,0.0,0.0,0.0,0.0,0.0,0.0,0.0,0.0,0.0,0.0,0.0,0.0,0.0,0.0,0.0,0.0,0.0,0.0,0.0,0.0,0.0,0.0,0.0,0.0,0.0,0.0,0.0,0.0,0.0,0.0,0.0,0.0,0.0,0.0,0.0,0.0,0.0,0.0,0.0,0.0,0.0,0.0,0.0,0.0,0.0,0.0,0.0,0.0,0.0,0.0,0.0,0.0,0.0,0.0,0.0,0.0,0.0,0.0,0.0,0.0,0.0,0.0,0.0,0.0,0.0,0.0,0.0,0.0,0.0,0.0,0.0,0.0,0.0,0.0,0.0,0.0,0.0,0.0,0.0,0.0,0.0,0.0,0.0,0.0,0.0,-7.7304,-7.7304,-7.7304,-7.7304,-7.757,-7.8146,-7.771,-7.8108,-7.9929,-7.9556,0.0,0.0,0.0,0.0,0.0,0.0,0.0,0.0,0.0,0.0,0.0,0.0,0.0,0.0,0.0,0.0,0.0,0.0,0.0,0.0,0.0,0.0,0.0,0.0,0.0,0.0,0.0,0.0,0.0,0.0,0.0,0.0,0.0,0.0,0.0,0.0,0.0,0.0,0.0,0.0,0.0,0.0,0.0,0.0,0.0,0.0,0.0,0.0,0.0,0.0,0.0,0.0,0.0,0.0,0.0,0.0,0.0,0.0,0.0,0.0,0.0,0.0,0.0,0.0,0.0,0.0,0.0,0.0,0.0,0.0,0.0,0.0,0.0,0.0,0.0,0.0,0.0,0.0,0.0,0.0,0.0,0.0,0.0,0.0,0.0,0.0,0.0,0.0,0.0,0.0,0.0,0.0,0.0,0.0,0.0,0.0,0.0,0.0,0.0,0.0,0.0,0.0,-7.7304,-7.7304,-7.7304,-7.7304,-7.7426,-7.7651,-7.7826,-7.8379,-7.9469,0.0,0.0,0.0,0.0,0.0,0.0,0.0,0.0,0.0,0.0,0.0,0.0,0.0,0.0,0.0,0.0,0.0,0.0,0.0,0.0,0.0,0.0,0.0,0.0,0.0,0.0,0.0,0.0,0.0,0.0,0.0,0.0,0.0,0.0,0.0,0.0,0.0,0.0,0.0,0.0,0.0,0.0,0.0,0.0,0.0,0.0,0.0,0.0,0.0,0.0,0.0,0.0,0.0,0.0,0.0,0.0,0.0,0.0,0.0,0.0,0.0,0.0,0.0,0.0,0.0,0.0,0.0,0.0,0.0,0.0,0.0,0.0,0.0,0.0,0.0,0.0,0.0,0.0,0.0,0.0,0.0,0.0,0.0,0.0,0.0,0.0,0.0,0.0,0.0,0.0,0.0,0.0,0.0,0.0,0.0,0.0,0.0,0.0,0.0,0.0,0.0,0.0,-7.7304,-7.7304,-7.7304,-7.7304,-7.7304,-7.7304,-7.7304,-7.771,-7.8325,-7.9152,0.0,0.0,0.0,0.0,0.0,0.0,0.0,0.0,0.0,0.0,0.0,0.0,0.0,0.0,0.0,0.0,0.0,0.0,0.0,0.0,0.0,0.0,0.0,0.0,0.0,0.0,0.0,0.0,0.0,0.0,0.0,0.0,0.0,0.0,0.0,0.0,0.0,0.0,0.0,0.0,0.0,0.0,0.0,0.0,0.0,0.0,0.0,0.0,0.0,0.0,0.0,0.0,0.0,0.0,0.0,0.0,0.0,0.0,0.0,0.0,0.0,0.0,0.0,0.0,0.0,0.0,0.0,0.0,0.0,0.0,0.0,0.0,0.0,0.0,0.0,0.0,0.0,0.0,0.0,0.0,0.0,0.0,0.0,0.0,0.0,0.0,0.0,0.0,0.0,0.0,0.0,0.0,0.0,0.0,0.0,0.0,0.0,0.0,0.0,0.0,0.0,0.0,-7.7304,-7.7304,-7.7304,-7.7304,-7.7304,-7.7304,-7.7304,-7.7304,-7.7846,0.0,0.0,0.0,0.0,0.0,0.0,0.0,0.0,0.0,0.0,0.0,0.0,0.0,0.0,0.0,0.0,0.0,0.0,0.0,0.0,0.0,0.0,0.0,0.0,0.0,0.0,0.0,0.0,0.0,0.0,0.0,0.0,0.0,0.0,0.0,0.0,0.0,0.0,0.0,0.0,0.0,0.0,0.0,0.0,0.0,0.0,0.0,0.0,0.0,0.0,0.0,0.0,0.0,0.0,0.0,0.0,0.0,0.0,0.0,0.0,0.0,0.0,0.0,0.0,0.0,0.0,0.0,0.0,0.0,0.0,0.0,0.0,0.0,0.0,0.0,0.0,0.0,0.0,0.0,0.0,0.0,0.0,0.0,0.0,0.0,0.0,0.0,0.0,0.0,0.0,0.0,0.0,0.0,0.0,0.0,0.0,0.0,0.0,0.0,0.0,0.0,0.0,0.0,-7.7304,-7.7304,-7.7304,-7.7304,-7.7304,-7.7304,-7.7304,-7.7304,-7.7846,-7.9105,0.0,0.0,0.0,0.0,0.0,0.0,0.0,0.0,0.0,0.0,0.0,0.0,0.0,0.0,0.0,0.0,0.0,0.0,0.0,0.0,0.0,0.0,0.0,0.0,0.0,0.0,0.0,0.0,0.0,0.0,0.0,0.0,0.0,0.0,0.0,0.0,0.0,0.0,0.0,0.0,0.0,0.0,0.0,0.0,0.0,0.0,0.0,0.0,0.0,0.0,0.0,0.0,0.0,0.0,0.0,0.0,0.0,0.0,0.0,0.0,0.0,0.0,0.0,0.0,0.0,0.0,0.0,0.0,0.0,0.0,0.0,0.0,0.0,0.0,0.0,0.0,0.0,0.0,0.0,0.0,0.0,0.0,0.0,0.0,0.0,0.0,0.0,0.0,0.0,0.0,0.0,0.0,0.0,0.0,0.0,0.0,0.0,0.0,0.0,0.0,0.0,0.0,-7.7304,-7.7304,-7.7304,-7.7304,-7.7304,-7.7304,-7.7304,-7.7304,-7.7731,-7.8804,0.0,0.0,0.0,0.0,0.0,0.0,0.0,0.0,0.0,0.0,0.0,0.0,0.0,0.0,0.0,0.0,0.0,0.0,0.0,0.0,0.0,0.0,0.0,0.0,0.0,0.0,0.0,0.0,0.0,0.0,0.0,0.0,0.0,0.0,0.0,0.0,0.0,0.0,0.0,0.0,0.0,0.0,0.0,0.0,0.0,0.0,0.0,0.0,0.0,0.0,0.0,0.0,0.0,0.0,0.0,0.0,0.0,0.0,0.0,0.0,0.0,0.0,0.0,0.0,0.0,0.0,0.0,0.0,0.0,0.0,0.0,0.0,0.0,0.0,0.0,0.0,0.0,0.0,0.0,0.0,0.0,0.0,0.0,0.0,0.0,0.0,0.0,0.0,0.0,0.0,0.0,0.0,0.0,0.0,0.0,0.0,0.0,0.0,0.0,0.0,0.0,0.0,-7.7304,-7.7304,-7.7304,-7.7304,-7.7304,-7.7304,-7.7304,-7.7304,-7.757,-7.8255,0.0,0.0,0.0,0.0,0.0,0.0,0.0,0.0,0.0,0.0,0.0,0.0,0.0,0.0,0.0,0.0,0.0,0.0,0.0,0.0,0.0,0.0,0.0,0.0,0.0,0.0,0.0,0.0,0.0,0.0,0.0,0.0,0.0,0.0,0.0,0.0,0.0,0.0,0.0,0.0,0.0,0.0,0.0,0.0,0.0,0.0,0.0,0.0,0.0,0.0,0.0,0.0,0.0,0.0,0.0,0.0,0.0,0.0,0.0,0.0,-5.9789,0.0,0.0,0.0,0.0,0.0,0.0,0.0,0.0,0.0,0.0,0.0,0.0,0.0,0.0,0.0,0.0,0.0,0.0,0.0,0.0,0.0,0.0,0.0,0.0,0.0,0.0,0.0,0.0,0.0,0.0,0.0,0.0,0.0,0.0,0.0,0.0,0.0,0.0,0.0,0.0,0.0,-7.7304,-7.7304,-7.7304,-7.7304,-7.7304,-7.7304,-7.7304,-7.7304,-7.757,-7.8255,-7.8432,0.0,0.0,0.0,0.0,0.0,0.0,0.0,0.0,0.0,0.0,0.0,0.0,0.0,0.0,0.0,0.0,0.0,0.0,0.0,0.0,0.0,0.0,0.0,0.0,0.0,0.0,0.0,0.0,0.0,0.0,0.0,0.0,0.0,0.0,0.0,0.0,0.0,0.0,0.0,0.0,0.0,0.0,0.0,0.0,0.0,0.0,0.0,0.0,0.0,0.0,0.0,0.0,0.0,0.0,0.0,0.0,0.0,0.0,0.0,0.0,-6.0441,0.0,0.0,0.0,0.0,0.0,0.0,0.0,0.0,0.0,0.0,0.0,0.0,0.0,0.0,0.0,0.0,0.0,0.0,0.0,0.0,0.0,0.0,0.0,0.0,0.0,0.0,0.0,0.0,0.0,0.0,0.0,0.0,0.0,0.0,0.0,0.0,0.0,0.0,0.0,0.0,-7.7304,-7.7304,-7.7304,-7.7304,-7.7304,-7.7304,-7.7304,-7.7304,-7.7487,-7.7826,-7.809,0.0,0.0,0.0,0.0,0.0,0.0,0.0,0.0,0.0,0.0,0.0,0.0,0.0,0.0,0.0,0.0,0.0,0.0,0.0,0.0,0.0,0.0,0.0,0.0,0.0,0.0,0.0,0.0,0.0,0.0,0.0,0.0,0.0,0.0,0.0,0.0,0.0,0.0,0.0,0.0,0.0,0.0,0.0,0.0,0.0,0.0,0.0,0.0,0.0,0.0,0.0,0.0,0.0,-5.519,-5.6137,-5.6736,-5.8026,-5.8852,-5.9099,-5.9099,-6.0546,-6.2747,-6.3034,0.0,0.0,0.0,0.0,0.0,0.0,0.0,0.0,0.0,0.0,0.0,0.0,0.0,0.0,0.0,0.0,0.0,0.0,0.0,0.0,0.0,0.0,0.0,0.0,-7.4535,-7.431,-7.5369,0.0,0.0,0.0,0.0,0.0,0.0,0.0,0.0,0.0,0.0,0.0,-7.7304,-7.7304,-7.7304,-7.7304,-7.7304,-7.7304,-7.7304,-7.7304,-7.7304,-7.7304,-7.7826,-7.8146,0.0,0.0,0.0,0.0,0.0,0.0,0.0,0.0,0.0,0.0,0.0,0.0,0.0,0.0,0.0,0.0,0.0,0.0,0.0,0.0,0.0,0.0,0.0,0.0,0.0,0.0,0.0,0.0,0.0,0.0,0.0,0.0,-4.0996,-4.2186,0.0,0.0,0.0,0.0,0.0,0.0,0.0,0.0,0.0,0.0,0.0,0.0,0.0,-4.7812,-5.0472,-4.9161,-5.0437,-5.4276,-5.3133,-5.4002,-5.6736,-5.6962,-5.7804,-5.9099,-5.9099,0.0,-6.1408,-6.2671,0.0,0.0,0.0,0.0,0.0,0.0,0.0,0.0,0.0,0.0,0.0,0.0,0.0,0.0,0.0,0.0,0.0,0.0,0.0,0.0,0.0,0.0,-7.1776,-7.183,-7.2414,-7.3252,0.0,-7.5891,-7.7181,-7.7243,-7.7304,0.0,0.0,0.0,0.0,0.0,0.0,0.0,-7.7304,-7.7304,-7.7304,-7.7304,-7.7304,-7.7304,-7.7304,-7.7304,-7.7304,-7.7304,-7.7365,-7.771,-7.8255,-7.8416,0.0,0.0,0.0,0.0,0.0,0.0,0.0,0.0,0.0,0.0,0.0,0.0,0.0,0.0,0.0,0.0,0.0,0.0,0.0,0.0,0.0,0.0,0.0,0.0,0.0,0.0,0.0,0.0,0.0,-4.0307,-4.0996,-4.2186,-4.2925,-4.4077,0.0,0.0,0.0,0.0,0.0,0.0,0.0,0.0,0.0,-4.6301,-4.6301,-4.7015,-4.8506,-4.8103,-4.9033,-5.1294,-5.1707,-5.27,-5.4121,-5.5878,-5.7075,-5.7804,-5.8743,-5.9877,-6.1104,-6.1679,-6.2798,-6.4209,0.0,0.0,0.0,0.0,-6.8601,-6.9217,-6.9217,-7.0136,-7.1312,-7.1312,0.0,0.0,0.0,0.0,0.0,0.0,0.0,0.0,0.0,0.0,-7.2142,-7.2142,-7.2498,-7.3252,-7.483,-7.5823,-7.6628,0.0,-7.7304,-7.7304,-7.7304,0.0,0.0,0.0,0.0,-7.7304,-7.7304,-7.7304,-7.7304,-7.7304,-7.7304,-7.7304,-7.7304,-7.7304,-7.7304,-7.7304,-7.7304,-7.7426,-7.771,-7.809,-7.8536,0.0,0.0,0.0,0.0,0.0,0.0,0.0,0.0,0.0,0.0,0.0,0.0,0.0,0.0,0.0,0.0,0.0,0.0,0.0,0.0,0.0,0.0,0.0,0.0,0.0,0.0,0.0,0.0,-4.0479,-4.1022,-4.1586,-4.2544,-4.3986,0.0,0.0,0.0,0.0,0.0,0.0,-4.6301,-4.6301,-4.6301,-4.6301,-4.6301,-4.6652,-4.733,-4.7707,-4.8259,-4.8987,-5.0584,-5.1616,-5.2086,-5.4477,-5.5907,-5.6736,-5.7915,-5.9517,-6.1104,-6.1104,-6.1882,-6.3164,-6.4623,-6.4923,-6.4703,-6.6154,-6.7266,-6.8174,-6.8601,-6.9633,-7.0791,-7.1188,-7.1312,-7.1312,-7.1312,0.0,0.0,0.0,0.0,-7.2279,-7.1457,-7.183,-7.2448,-7.2448,-7.2797,-7.3615,-7.512,-7.5823,-7.6396,0.0,-7.7304,-7.7304,-7.7304,0.0,0.0,0.0,0.0,-7.7304,-7.7304,-7.7304,-7.7304,-7.7304,-7.7304,-7.7304,-7.7304,-7.7304,-7.7304,-7.7304,-7.7304,-7.7304,-7.7304,-7.7768,-7.809,-7.8309,0.0,0.0,0.0,0.0,0.0,0.0,0.0,0.0,0.0,0.0,0.0,0.0,0.0,0.0,0.0,0.0,0.0,0.0,0.0,0.0,0.0,0.0,0.0,0.0,0.0,0.0,0.0,0.0,0.0,-4.0105,-4.3241,0.0,0.0,0.0,0.0,-4.6301,-4.6301,-4.6301,-4.6301,-4.6301,-4.6301,-4.6301,-4.6301,-4.6803,-4.7857,-4.7883,-4.846,-4.9565,-4.9694,-5.0563,-5.1989,-5.2209,-5.3882,-5.6736,-5.6849,-5.8424,-6.1104,-6.1104,-6.1882,-6.3164,-6.4623,-6.429,-6.3394,-6.4703,-6.5219,-6.5544,-6.6855,-6.8206,-6.9537,-7.0882,-7.1312,-7.1312,-7.1312,-7.1312,0.0,0.0,-7.1312,-7.1401,-7.1312,-7.1312,-7.1401,-7.1401,-7.2797,-7.4234,-7.431,-7.5891,-7.7243,0.0,-7.7304,-7.7304,-7.7304,0.0,-7.7304,-7.7304,-7.7304,-7.7304,-7.7304,-7.7304,-7.7304,-7.7304,-7.7304,-7.7304,-7.7304,-7.7304,-7.7304,-7.7304,-7.7304,-7.7304,-7.7304,-7.7304,-7.7651,-7.8309,-7.8363,0.0,0.0,0.0,0.0,0.0,0.0,0.0,0.0,0.0,0.0,0.0,0.0,0.0,0.0,0.0,0.0,0.0,0.0,0.0,0.0,0.0,0.0,0.0,0.0,0.0,0.0,0.0,0.0,-4.2567,-4.2492,0.0,-4.601,-4.6301,-4.6301,-4.6301,-4.6301,-4.6301,-4.6301,-4.6301,-4.6301,-4.6301,-4.6301,-4.6828,-4.7908,-4.7908,-4.8485,-4.959,-4.959,-4.995,-5.0563,-5.1492,-5.3187,-5.5327,-5.6251,-5.8424,-6.1104,-6.1104,-6.1882,-6.3194,-6.3592,-6.3478,-6.3194,-6.3592,-6.4401,-6.5111,-6.562,-6.7368,-6.9409,-7.0882,-7.1312,-7.1312,-7.1312,-7.1312,-7.1312,-7.1312,-7.1312,-7.1312,-7.1312,-7.1312,-7.1312,-7.1312,-7.183,-7.2749,-7.4005,-7.483,-7.5754,-7.7019,-7.7304,-7.7304,-7.7304,-7.7304,-7.7304,-7.7304,-7.7304,-7.7304,-7.7304,-7.7304,-7.7304,-7.7304,-7.7304,-7.7304,-7.7304,-7.7304,-7.7304,-7.7304,-7.7304,-7.7304,-7.7304,-7.7304,-7.7426,-7.7651,-7.7651,-7.8163,0.0,0.0,0.0,0.0,0.0,0.0,0.0,0.0,0.0,0.0,0.0,0.0,0.0,0.0,0.0,0.0,0.0,0.0,0.0,0.0,0.0,0.0,0.0,0.0,0.0,0.0,-3.8953,-4.2591,-4.2146,-4.2832,-4.601,-4.6301,-4.6301,-4.6301,-4.6301,-4.6301,-4.6301,-4.6301,-4.6301,-4.6301,-4.6301,-4.6828,-4.7908,-4.7908,-4.8485,-4.959,-4.959,-4.959,-4.959,-5.0664,-5.2359,-5.4505,-5.5444,-5.7828,-6.1104,-6.1104,-6.1882,-6.3079,-6.3079,-6.3079,-6.3079,-6.3079,-6.3706,-6.4512,-6.4923,-6.6855,-6.9313,-7.0263,-7.0882,-7.1312,-7.1312,-7.1312,-7.1312,-7.1312,-7.1312,-7.1312,-7.1312,-7.1312,-7.1312,-7.1312,-7.1546,-7.2142,-7.3492,-7.431,-7.5227,-7.6563,-7.7082,-7.7304,-7.7304,-7.7304,-7.7304,-7.7304,-7.7304,-7.7304,-7.7304,-7.7304,-7.7304,-7.7304,-7.7304,-7.7304,-7.7304,-7.7304,-7.7304,-7.7304,-7.7304,-7.7304,-7.7304,-7.7304,-7.7304,-7.7304,-7.751,-7.8163,-7.9198,0.0,0.0,0.0,0.0,0.0,0.0,0.0,0.0,0.0,0.0,0.0,0.0,0.0,0.0,0.0,0.0,0.0,0.0,0.0,0.0,0.0,0.0,0.0,-3.556,-3.7972,-3.9702,-3.9927,-4.2079,-4.4374,-4.618,-4.6301,-4.6301,-4.6301,-4.6301,-4.6301,-4.6301,-4.6301,-4.6301,-4.6301,-4.6301,-4.6828,-4.7908,-4.7908,-4.8485,-4.959,-4.959,-4.959,-4.959,-4.959,-5.1268,-5.4268,-5.4386,-5.6878,-6.0992,-6.1104,-6.1882,-6.3079,-6.3079,-6.3079,-6.3079,-6.3079,-6.3079,-6.3279,-6.4592,-6.6855,-6.9121,-6.9217,-7.0136,-7.1222,-7.1312,-7.1312,-7.1312,-7.1312,-7.1312,-7.1312,-7.1312,-7.1312,-7.1312,-7.1312,-7.2056,-7.2714,-7.2797,-7.4385,-7.5718,-7.5787,-7.6628,-7.7304,-7.7304,-7.7304,-7.7304,-7.7304,-7.7304,0.0,-7.7304,-7.7304,-7.7304,-7.7304,-7.7304,-7.7304,-7.7304,-7.7304,-7.7304,-7.7304,-7.7304,-7.7304,-7.7304,-7.7304,-7.7304,-7.7304,-7.796,-7.8639,-7.9198,0.0,0.0,0.0,0.0,0.0,0.0,0.0,0.0,0.0,0.0,0.0,0.0,0.0,0.0,0.0,0.0,0.0,0.0,0.0,0.0,0.0,0.0,-3.4027,-3.556,-3.5995,-3.7445,-4.1173,-4.183,-4.3107,-4.6059,-4.6301,-4.6301,-4.6301,-4.6301,-4.6301,-4.6301,-4.6301,-4.6301,-4.6301,-4.6301,-4.6828,-4.7908,-4.7908,-4.8485,-4.959,-4.959,-4.959,-4.959,-4.959,-5.0664,-5.27,-5.391,-5.6265,-5.9479,-6.0624,-6.1882,-6.3079,-6.3079,-6.3079,-6.3079,-6.3079,-6.3079,-6.3279,-6.4592,-6.562,-6.6543,-6.8601,-6.9409,-6.9949,-7.1007,-7.1312,-7.1312,-7.1312,-7.1312,-7.1312,-7.1312,-7.1312,-7.1312,-7.1312,-7.1546,-7.1917,-7.2666,-7.3772,-7.4903,-7.5649,-7.6628,-7.7304,-7.7304,-7.7304,-7.7304,-7.7304,-7.7304,0.0,-7.7304,-7.7304,-7.7304,-7.7304,-7.7304,-7.7304,-7.7304,-7.7304,-7.7304,-7.7304,-7.7304,-7.7304,-7.7304,-7.7304,-7.7304,-7.7304,-7.796,-7.8639,0.0,0.0,0.0,0.0,0.0,0.0,0.0,0.0,0.0,0.0,0.0,0.0,0.0,0.0,0.0,0.0,0.0,0.0,0.0,0.0,0.0,0.0,-3.2988,-3.3776,-3.4612,-3.4764,-3.6078,-3.9826,-4.0828,-4.2201,-4.489,-4.5914,-4.6301,-4.6301,-4.6301,-4.6301,-4.6301,-4.6301,-4.6301,-4.6301,-4.6301,-4.6828,-4.7908,-4.7908,-4.8485,-4.959,-4.959,-4.959,-4.959,-4.959,-5.0436,-5.2086,-5.2944,-5.5408,-5.8725,-5.9739,-6.1253,0.0,0.0,0.0,0.0,0.0,-6.3079,-6.3164,-6.4015,-6.5032,-6.6259,-6.7874,-6.9121,-7.0263,-7.1007,-7.1312,-7.1379,-7.1684,-7.1751,-7.1853,-7.2157,-7.2225,-7.2225,-7.2225,-7.1988,-7.1931,-7.2535,-7.317,-7.3928,-7.4976,-7.5959,0.0,-7.7243,-7.7304,-7.7304,-7.7304,-7.7304,-7.7304,-7.7304,-7.7304,-7.7304,-7.7304,-7.7304,-7.7304,-7.7304,-7.7304,0.0,0.0,0.0,-7.7304,-7.7304,-7.7304,0.0,0.0,0.0,-7.8962,-7.9556,0.0,0.0,0.0,-8.2093,-8.2708,0.0,0.0,0.0,0.0,0.0,0.0,0.0,0.0,0.0,0.0,0.0,0.0,0.0,0.0,0.0,0.0,-3.3144,-3.3437,-3.3496,-3.418,-3.5321,-3.7064,-3.943,-4.1693,-4.3482,-4.5135,-4.6059,-4.6301,-4.6301,-4.6301,-4.6301,0.0,0.0,0.0,0.0,-4.6828,-4.7908,-4.7908,-4.8485,-4.959,-4.959,-4.959,-4.959,-4.959,-5.0436,-5.1741,-5.1989,-5.4324,-5.8226,-5.8608,-6.0472,-6.3079,-6.3079,-6.3079,-6.3079,-6.3079,-6.3079,-6.3079,-6.3079,0.0,0.0,-6.6855,-6.8732,-7.0882,-7.1007,-7.1188,-7.1447,-7.2191,-7.2394,-7.2563,-7.3308,-7.3477,-7.3477,-7.3477,-7.3003,-7.2529,-7.2529,-7.2775,-7.3287,-7.4209,-7.5263,-7.6239,-7.7066,-7.7316,-7.7304,-7.7304,-7.7304,-7.7304,-7.7304,-7.7304,-7.7304,-7.7304,0.0,0.0,-7.7304,-7.7304,-7.7304,-7.7304,-7.7304,-7.7304,-7.7304,-7.7304,-7.757,-7.8146,-7.8879,-7.9494,-8.0161,-8.1601,-8.2446,-8.2593,-8.2593,-8.3439,0.0,0.0,0.0,0.0,0.0,0.0,0.0,0.0,0.0,0.0,0.0,0.0,0.0,0.0,0.0,-3.2793,-3.3144,-3.3535,-3.3887,-3.4375,-3.5321,-3.7064,-3.8421,-4.0278,-4.3333,-4.3979,-4.4767,-4.618,-4.6301,-4.6301,-4.6301,-4.6301,-4.6301,-4.6301,-4.6301,-4.6828,-4.7908,-4.7908,-4.8485,-4.959,0.0,0.0,-4.959,-4.959,-4.9719,-5.0206,-5.1367,-5.2997,-5.4916,-5.7633,-6.0472,-6.3079,-6.3079,-6.3079,-6.3079,-6.3079,-6.3079,-6.3079,-6.3079,-6.3508,-6.4097,-6.5111,-6.6647,-6.8206,-6.9313,-7.0356,0.0,-7.2191,-7.2394,-7.2563,-7.3308,-7.3477,-7.3477,-7.3477,-7.3375,-7.3274,-7.3274,-7.3939,-7.4633,-7.4851,-7.5885,-7.6725,-7.6968,-7.713,-7.7304,-7.7304,-7.7304,-7.7304,-7.7304,-7.7304,-7.7304,-7.7304,-7.7304,-7.7304,-7.7304,-7.7304,-7.7304,-7.7304,-7.7304,-7.7304,-7.7304,-7.7304,-7.7365,-7.751,-7.874,-7.9779,-8.0447,-8.1913,-8.3252,-8.4401,-8.4401,-8.4593,0.0,0.0,0.0,0.0,0.0,0.0,0.0,0.0,0.0,0.0,0.0,-2.716,0.0,0.0,-3.1816,-3.2941,-3.3281,-3.3574,-3.4004,-3.4434,-3.5159,-3.6274,-3.7674,-3.9627,-4.2201,-4.3208,-4.4374,-4.618,-4.6301,-4.6301,-4.6301,-4.6301,-4.6301,-4.6301,-4.6301,-4.6828,-4.7908,-4.7908,-4.8485,-4.959,-4.959,-4.959,-4.959,-4.959,-4.959,-4.959,-5.0436,-5.1918,-5.4113,-5.8043,-6.094,-6.3079,-6.3079,-6.3079,-6.3079,-6.3079,-6.3079,-6.3079,-6.3079,-6.3592,-6.4209,-6.4923,-6.6543,-6.8306,-6.8991,-7.0403,-7.1988,-7.2732,-7.3206,-7.368,-7.439,-7.4593,-7.4593,-7.4593,-7.4322,-7.4052,-7.4052,-7.4139,-7.4425,-7.4913,-7.5979,-7.6947,-7.745,-7.8122,-7.8259,-7.7451,-7.7304,-7.7304,-7.7304,-7.7304,-7.7304,-7.7304,-7.7708,-7.7965,-7.7965,-7.8332,-7.8552,-7.8552,-7.8552,-7.8552,-7.8552,-7.8552,-7.8701,-7.8988,-8.0037,-8.0903,-8.1539,-8.3066,-8.4199,-8.4901,-8.5324,-8.5517,0.0,0.0,0.0,0.0,0.0,0.0,0.0,0.0,-2.1724,-2.2004,-2.336,-2.5245,-2.7393,-2.9153,-3.0937,-3.3107,-3.3496,-3.3691,-3.4141,-3.457,-3.5,-3.5469,-3.7104,-3.8861,-4.1052,-4.2454,-4.4103,-4.618,-4.6301,-4.6301,-4.6301,-4.6301,-4.6301,-4.6301,-4.6301,-4.6828,-4.7908,-4.7908,-4.8485,-4.959,-4.959,-4.959,-4.959,-4.959,-4.959,-4.9615,-5.0178,-5.1871,-5.4646,-5.8814,-6.1525,-6.3079,-6.3079,-6.3079,-6.3079,-6.3079,-6.3079,-6.3079,-6.3079,-6.3789,-6.4703,-6.5032,-6.6751,-6.8894,-6.9088,-7.067,-7.2563,-7.3274,-7.4018,-7.4796,-7.5506,-7.5709,-7.5709,-7.5709,-7.5236,-7.483,-7.483,-7.4356,-7.416,-7.4959,-7.6082,-7.7092,-7.7989,-7.9044,-7.9323,-7.8002,-7.7818,-7.7818,-7.7818,-7.7818,-7.7818,-7.7818,-7.8405,-7.8809,-7.8809,-7.9433,-7.98,-7.98,-7.98,-7.98,-7.98,-7.98,-8.0039,-8.0485,-8.1327,-8.2,-8.2499,-8.4136,-8.4959,-8.4959,-8.5753,-8.6094,-1.124,-1.124,-1.163,-1.3193,-1.5147,-1.7007,0.0,0.0,-2.2017,-2.2311,-2.3804,-2.5596,-2.7785,-2.9535,-3.1377,-3.3146,-3.375,-3.4141,-3.457,-3.5019,-3.5469,-3.5898,-3.6112,-3.7575,-4.0924,-4.1309,-4.2832,-4.6059,-4.6301,-4.6301,-4.6301,-4.6301,-4.6301,-4.6301,-4.6301,-4.6828,-4.7908,-4.7908,-4.8485,-4.959,-4.959,-4.959,-4.959,-4.959,-4.959,-4.9769,-5.2206,-5.4306,-5.6237,-5.9208,-6.1525,-6.3079,-6.3079,-6.3079,-6.3079,-6.3079,-6.3079,-6.3079,-6.3079,-6.3194,-6.3478,-6.4703,-6.6154,-6.7673,-6.8797,-7.067,-7.2563,-7.3274,-7.4018,-7.4796,-7.5506,-7.5709,-7.5709,-7.5709,-7.5642,-7.5574,-7.5574,-7.5506,-7.5439,-7.5628,-7.6712,-7.7709,-7.7788,-7.8922,-7.9727,-7.9543,-7.9507,-7.9507,-7.9507,-7.9507,-7.9507,-7.9507,-7.958,-7.9653,-7.9653,-7.9727,-7.98,-7.98,-7.98,-7.98,-7.98,-7.98,-7.9827,-7.9889,-8.1285,-8.1978,-8.2087,-8.4082,-8.5088,-8.5088,-8.5772,-8.6094,-1.0826,-1.0853,-1.1001,-1.1887,-1.4379,-1.6748,-1.769,-2.0112,-2.2325,-2.2619,-2.3337,-2.4429,-2.629,-2.7222,-2.874,0.0,-3.2357,-3.3105,-3.4868,-3.5273,-3.5547,-3.5976,-3.6016,-3.7307,-4.0924,-4.2074,-4.3731,-4.618,-4.6301,-4.6301,-4.6301,-4.6301,-4.6301,-4.6301,-4.6301,-4.6828,-4.7908,-4.7908,-4.8485,-4.959,-4.959,-4.959,-4.959,-4.959,-4.959,-4.9769,-5.2592,-5.479,-5.6482,-5.933,-6.1525,-6.3079,-6.3079,-6.3079,-6.3079,-6.3079,-6.3079,-6.3079,-6.3079,-6.3079,-6.3194,-6.3789,-6.5436,-6.7266,-6.7874,-7.0428,-7.3105,-7.3409,-7.4322,-7.5303,-7.5608,-7.5709,-7.5709,-7.5709,-7.5709,-7.5709,-7.5709,-7.5709,-7.5709,-7.5709,-7.7268,-7.8523,-7.8523,-7.9972,-8.1195,-8.1195,-8.0388,-7.98,-7.98,-7.98,-7.9984,-8.0461,-8.0498,-8.0681,-8.1158,-8.1195,-8.1195,-8.1195,-8.1195,-8.1195,-8.1195,-8.1195,-8.1195,-8.1195,-8.2186,-8.2892,-8.3284,-8.4506,-8.532,-8.57,-8.5954,-8.6094,-1.0975,-1.1009,-1.1029,-1.1138,-1.3642,-1.6167,-1.6874,-1.9449,-2.2049,-2.2682,-2.2859,-2.3393,-2.5113,-2.5517,-2.6816,-3.0786,-3.1493,-3.2482,-3.5006,-3.5488,-3.5684,-3.5996,-3.6403,-3.7709,-4.0278,-4.2074,-4.3979,-4.618,-4.6301,-4.6301,-4.6301,-4.6301,-4.6301,-4.6301,-4.6301,-4.6828,-4.7908,-4.7908,-4.8485,-4.959,-4.959,-4.959,-4.959,-4.959,-4.959,-4.9769,-5.2592,-5.479,-5.6482,-5.933,-6.1525,-6.3079,-6.3079,-6.3079,-6.3079,-6.3079,-6.3079,-6.3079,-6.3079,-6.3079,-6.3194,-6.3478,-6.5219,-6.7298,-6.7899,-7.0598,-7.3544,-7.3747,-7.4728,-7.5709,-7.5709,-7.5709,-7.5709,-7.5709,-7.5709,-7.5709,-7.5709,-7.5709,-7.5709,-7.5709,-7.7511,-7.8983,-7.8983,-8.0732,-8.2186,-8.2186,-8.1195,-8.0461,-8.0461,-8.0461,-8.0681,-8.1269,-8.1342,-8.1562,-8.215,-8.2186,-8.2186,-8.2186,-8.2186,-8.2186,-8.2186,-8.2186,-8.2186,-8.2186,-8.2708,-8.3246,-8.3928,-8.456,-8.52,-8.5811,-8.5988,-8.6094,0.0,0.0,-1.1158,-1.1158,-1.2781,-1.4692,-1.6639,-1.8611,-2.0743,-2.2572,-2.2859,-2.3393,-2.5113,-2.5517,-2.6816,-3.0786,-3.1727,-3.2814,-3.5045,-3.5742,-3.5996,-3.6016,-3.7441,-3.8597,0.0,-4.0278,-4.2706,-4.6059,-4.6301,-4.6301,-4.6301,-4.6301,-4.6301,-4.6301,-4.6301,-4.6828,-4.7908,-4.7908,-4.8485,-4.959,-4.959,-4.959,-4.959,-4.959,-4.959,-4.9769,-5.2592,-5.479,-5.6482,-5.933,-6.1525,-6.3079,-6.3079,-6.3079,-6.3079,-6.3079,-6.3079,-6.3079,-6.3079,-6.3079,-6.3279,-6.4623,-6.6048,-6.7599,-6.9616,-7.1704,-7.3646,-7.439,-7.51,-7.5709,-7.5709,-7.5709,-7.5709,-7.5709,-7.5709,-7.5709,-7.5709,-7.5709,-7.5709,-7.5709,-7.7511,-7.8983,-7.8983,-8.0732,-8.2186,-8.2186,-8.215,-8.2113,-8.2113,-8.2113,-8.215,-8.215,-8.215,-8.215,-8.2186,-8.2186,-8.2186,-8.2186,-8.2186,-8.2186,-8.2186,-8.2186,-8.2186,-8.2186,-8.2186,-8.256,-8.3246,-8.3914,-8.4513,-8.5162,-8.5811,-8.6094,0.0,0.0,-1.1341,-1.1443,-1.2894,-1.4472,-1.5176,-1.7746,-2.034,-2.0894,-2.2022,-2.3133,-2.3665,-2.3969,-2.5418,-2.9395,-3.0463,-3.182,-3.5317,-3.5937,-3.6016,-3.6016,-3.6539,0.0,0.0,0.0,0.0,-4.4497,-4.5671,-4.6301,-4.6301,-4.6301,-4.6301,-4.6301,-4.6301,-4.6828,-4.7908,-4.7908,-4.8485,-4.959,-4.959,-4.959,-4.959,-4.959,-4.959,-4.9769,-5.2592,-5.479,-5.6482,-5.933,-6.1525,-6.3079,-6.3079,-6.3079,-6.3079,-6.3079,-6.3079,-6.3079,-6.3079,-6.3079,-6.3164,-6.3592,-6.5328,-6.7395,-6.8613,-7.1092,-7.3646,-7.439,-7.5134,-7.5709,-7.5709,-7.5709,-7.5709,-7.5709,-7.5709,-7.5709,-7.5709,-7.5709,-7.5709,-7.5709,-7.6837,-7.8077,-7.8903,-8.0182,-8.1405,-8.2121,-8.2186,-8.2186,-8.2186,-8.2186,-8.2186,-8.2186,-8.2186,-8.2186,-8.2186,-8.2186,-8.2186,-8.2186,-8.2186,-8.2186,-8.2186,-8.2186,-8.2186,-8.2186,-8.2647,-8.3189,-8.3876,-8.4513,-8.5121,-8.5775,-8.5988,-8.6094,0.0,-1.147,-1.1497,-1.1592,-1.2466,-1.3587,-1.429,-1.6263,-1.8508,-1.9773,-2.1118,-2.2315,-2.2881,-2.3273,-2.4525,-2.7988,-2.8782,-3.0316,-3.4396,-3.5021,-3.5314,-3.5879,-3.6016,-3.6403,0.0,0.0,0.0,-4.2706,-4.4374,-4.5403,-4.5403,-4.5914,-4.6301,-4.6301,-4.6301,-4.6828,-4.7908,-4.7908,-4.8485,-4.959,-4.959,-4.959,-4.959,-4.959,-4.959,-4.9769,-5.2001,-5.4187,-5.6482,-5.872,-6.1019,-6.3079,-6.3079,-6.3079,-6.3079,-6.3079,-6.3079,-6.3079,-6.3079,-6.3079,-6.3194,-6.3706,-6.5328,-6.7459,-6.8968,-7.1324,-7.3713,-7.4728,-7.5337,-7.5709,-7.5709,-7.5709,-7.5709,-7.5709,-7.5709,-7.5709,-7.5709,-7.5709,-7.5709,-7.5709,-7.6927,-7.8161,-7.8903,-8.0182,-8.1405,-8.2121,-8.2186,-8.2186,-8.2186,-8.2186,-8.2186,-8.2186,-8.2186,-8.2186,-8.2186,-8.2186,-8.2186,-8.2186,-8.2186,-8.2186,-8.2186,-8.2186,-8.2186,-8.2186,-8.2853,-8.3543,-8.4179,-8.4785,-8.5437,-8.6094,-8.6094,-8.6094,-1.1619,-1.1619,-1.1619,-1.1619,-1.1619,-1.2043,-1.3872,-1.429,-1.5416,-1.9228,-2.0274,-2.1016,0.0,0.0,-2.4575,-2.678,-2.7124,-2.8648,-3.282,-3.3309,-3.402,0.0,0.0,0.0,0.0,0.0,0.0,-4.0795,0.0,-4.3606,-4.3606,-4.5281,-4.6301,-4.618,-4.6301,-4.6828,-4.7908,-4.7958,-4.8535,-4.959,-4.959,-4.959,-4.959,-4.959,-4.959,-4.9665,-5.0902,-5.3243,-5.636,-5.7605,-6.0144,-6.3079,-6.3079,-6.3079,-6.3079,-6.3079,-6.3079,-6.3079,-6.3079,-6.3079,-6.3279,-6.4703,-6.6048,-6.776,-7.0666,-7.2467,-7.3781,-7.527,-7.5709,-7.5709,-7.5709,-7.5709,-7.5709,-7.5709,-7.5709,-7.5709,-7.5709,-7.5709,-7.5709,-7.5709,-7.7511,-7.8983,-7.8983,-8.0732,-8.2186,-8.2186,-8.2186,-8.2186,-8.2186,-8.2186,-8.2186,-8.2186,-8.2186,-8.2186,-8.2186,-8.2186,-8.2186,-8.2186,-8.2186,-8.2186,-8.2186,-8.2186,-8.2186,-8.2186,-8.2853,-8.3488,-8.4129,-8.4785,-8.5399,-8.606,-8.6094,-8.6094,-1.1647,-1.1633,-1.1619,-1.1619,-1.1619,-1.1763,-1.218,-1.3452,-1.5177,-1.7744,-1.9543,-2.1217,-2.3324,-2.3901,-2.5226,-2.8646,-2.9292,0.0,-3.4727,-3.5314,0.0,-3.5879,0.0,-3.6016,-3.6016,-3.6403,0.0,0.0,-4.1287,-4.3208,-4.1947,-4.4645,-4.5671,-4.4374,-4.5671,-4.6828,-4.7908,-4.8736,-4.9314,-4.959,-4.959,-4.959,-4.959,-4.959,-4.959,-4.9769,-5.2104,-5.4313,-5.6482,-5.8843,-6.1139,-6.3079,-6.3079,-6.3079,-6.3079,-6.3079,-6.3079,-6.3079,-6.3079,-6.3079,-6.3279,-6.4703,-6.6048,-6.776,-7.0666,-7.2467,-7.3781,-7.527,-7.5709,-7.5709,-7.5709,-7.5709,-7.5709,-7.5709,-7.5709,-7.5709,-7.5709,-7.5709,-7.5709,-7.5709,-7.7511,-7.8983,-7.8983,-8.0732,-8.2186,-8.2186,-8.2186,-8.2186,-8.2186,-8.2186,-8.2186,-8.2186,-8.2186,-8.2186,-8.2186,-8.2186,-8.2186,-8.2186,-8.2186,-8.2186,-8.2186,-8.2186,-8.2186,-8.2186,-8.2853,-8.3303,-8.3433,-8.4567,-8.5202,-8.536,-8.5846,-8.6094,-1.1358,-1.1633,-1.1619,-1.1619,-1.1619,-1.1619,-1.1619,-1.2517,-1.4153,-1.7132,-1.8742,-2.0382,-2.3484,-2.4195,-2.5098,0.0,0.0,0.0,-3.3013,-3.4158,-3.5021,0.0,-3.6016,0.0,-3.6016,-3.6016,-3.6016,0.0,-3.9366,-4.103,-4.0148,-4.3357,-4.4743,-4.3731,-4.5403,-4.6828,-4.7908,-4.9038,-4.959,-4.959,-4.959,-4.959,-4.959,-4.959,-4.9715,-5.0122,0.0,-5.4952,-5.687,-5.9444,-6.1525,-6.3079,-6.3079,-6.3079,-6.3079,-6.3079,-6.3079,-6.3079,-6.3079,-6.3079,-6.3394,-6.5436,-6.6764,-6.8248,-7.1357,-7.3117,-7.4221,-7.5371,-7.5709,-7.5709,-7.5709,-7.5709,-7.5709,-7.5709,-7.5709,-7.5709,-7.5709,-7.5709,-7.5865,-7.6358,-7.7822,-7.9143,-7.9614,-8.1089,-8.2186,-8.2186,-8.2186,-8.2186,-8.2186,-8.2186,-8.2186,-8.2186,-8.2186,-8.2186,-8.2186,-8.2186,-8.2186,-8.2186,-8.2186,-8.2186,-8.2186,-8.2186,-8.2186,-8.2186,-8.2853,-8.3189,-8.3189,-8.4475,-8.5121,-8.5121,-8.5811,-8.6094,-1.0768,-1.1647,-1.1619,-1.1619,-1.1619,-1.1626,-1.164,-1.1887,-1.3283,-1.6942,-1.8258,-1.9878,-2.3508,-2.4462,-2.4636,-2.4918,0.0,-2.8485,-3.0451,-3.2316,-3.4176,-3.5879,-3.6016,-3.6016,-3.6016,-3.6016,-3.6016,-3.6016,-3.7441,-3.8221,-3.8221,-4.167,-4.3879,-4.4099,-4.5698,-4.7004,-4.8008,-4.9063,-4.959,-4.959,-4.959,-4.959,-4.959,-4.959,-4.9891,-5.0575,-5.3083,-5.5267,-5.7397,-5.9858,-6.1762,-6.3079,-6.3079,-6.3079,-6.3079,-6.3079,-6.3079,-6.3079,-6.3079,-6.3079,-6.3592,-6.6259,-6.7676,-6.9001,-7.2424,-7.4018,-7.4762,-7.5506,-7.5709,-7.5709,-7.5709,-7.5709,-7.5709,-7.5709,-7.5709,-7.5709,-7.5709,-7.5709,-7.5926,-7.6927,-7.8161,-7.9302,-8.0218,-8.1405,-8.2186,-8.2186,-8.2186,-8.2186,-8.2186,-8.2186,-8.2186,-8.2186,-8.2186,-8.2186,-8.2186,-8.2186,-8.2186,-8.2186,-8.2186,-8.2186,-8.2186,-8.2186,-8.2186,-8.2186,-8.2793,-8.3111,-8.3111,-8.4335,-8.4957,-8.5037,-8.5775,-8.6094,-0.9769,-1.1529,-1.1647,-1.1626,-1.1619,-1.1647,-1.1769,-1.3107,0.0,-1.7595,-1.9654,-2.1567,-2.4061,-2.4609,-2.5065,-2.6794,-2.8629,-3.0451,-3.2455,-3.4314,-3.5587,0.0,-3.6016,-3.6016,-3.6016,-3.6016,0.0,0.0,-3.6287,-3.6403,-3.6403,-4.103,-4.4567,-4.6439,-4.7282,-4.7958,-4.8611,-4.9264,-4.959,-4.959,-4.959,-4.959,-4.959,-4.959,-4.9891,-5.0575,-5.4298,0.0,-5.7521,-6.1144,-6.2817,-6.3079,-6.3079,-6.3079,-6.3079,-6.3079,-6.3079,-6.3079,-6.3079,-6.3079,-6.3592,-6.6259,-6.7676,-6.9001,-7.2424,-7.4018,-7.4762,-7.5506,-7.5709,-7.5709,-7.5709,-7.5709,-7.5709,-7.5709,-7.5709,-7.5709,-7.5709,-7.5709,-7.5771,-7.5926,-7.7598,-7.9063,-7.9222,-8.0911,-8.2186,-8.2186,-8.2186,-8.2186,-8.2186,-8.2186,-8.2186,-8.2186,-8.2186,-8.2186,-8.2186,-8.2186,-8.2186,-8.2186,-8.2186,-8.2186,-8.2186,-8.2186,-8.2186,-8.2186,-8.2279,-8.2407,-8.2407,-8.372,-8.4372,-8.4372,-8.559,-8.6094,-0.6982,-1.0047,-1.1647,-1.1626,-1.1619,-1.1653,-1.1796,0.0,0.0,-1.7862,-1.9966,-2.2202,-2.4153,-2.4636,-2.4918,-2.5786,-2.847,-3.0593,-3.1597,-3.4158,-3.6016,-3.6016,-3.6016,-3.6016,-3.6016,-3.6016,-3.6016,-3.6016,-3.6016,-3.6016,-3.6016,-4.0018,-4.3844,-4.6982,-4.7631,-4.8184,-4.8761,-4.9314,-4.959,-4.959,-4.959,-4.959,-4.959,-4.959,-5.0067,-5.1135,-5.4683,-5.6802,-5.7841,-6.1556,-6.3079,-6.3079,-6.3079,-6.3079,-6.3079,-6.3079,-6.3079,-6.3079,-6.3079,-6.3079,-6.3652,-6.6775,-6.8292,-6.9517,-7.2993,-7.4593,-7.5236,-7.5608,-7.5709,-7.5709,-7.5709,-7.5709,-7.5709,-7.5709,-7.5709,-7.5709,-7.5709,-7.5709,-7.5709,-7.5709,-7.7511,-7.8983,-7.8983,-8.0732,-8.2186,-8.2186,-8.2186,-8.2186,-8.2186,-8.2186,-8.2186,-8.2186,-8.2186,-8.2186,-8.2186,-8.2186,-8.2186,-8.2186,-8.2186,-8.2186,-8.2186,-8.2186,-8.2186,-8.2186,-8.2186,-8.2186,-8.2186,-8.3189,-8.3824,-8.4228,-8.5121,-8.5775,-0.4791,-0.8579,-1.166,-1.1626,-1.1619,-1.1804,-1.2415,-1.4155,-1.6379,-1.8546,-2.0705,-2.2657,-2.4327,-2.4636,-2.4636,0.0,-2.7475,-2.9884,-3.031,-3.3291,-3.5587,-3.6016,-3.6016,0.0,-3.6016,-3.6016,0.0,-3.6016,-3.6016,-3.6268,-3.7059,-3.9866,-4.3228,-4.7157,-4.7807,-4.836,-4.8937,-4.9389,-4.959,-4.959,-4.959,-4.959,-4.959,-4.9715,-5.0318,-5.1405,-5.4574,-5.6734,-5.8257,-6.1287,-6.2817,-6.3079,-6.3079,-6.3079,-6.3079,-6.3079,-6.3079,-6.3079,-6.3079,-6.3279,-6.4023,-6.7451,-6.8933,-7.0034,-7.3529,-7.5134,-7.5709,-7.5709,-7.5709,-7.5709,-7.5709,-7.5709,-7.5709,-7.5709,-7.5709,-7.5709,-7.5709,-7.5709,-7.5709,-7.5709,-7.7511,-7.8983,-7.8983,-8.0732,-8.2186,-8.2186,-8.2186,-8.2186,-8.2186,-8.2186,-8.2186,-8.2186,-8.2186,-8.2186,-8.2186,-8.2186,-8.2186,-8.2186,-8.2186,-8.2186,-8.2186,-8.2186,-8.2186,-8.2186,-8.2186,-8.2186,-8.2186,-8.2994,-8.3704,-8.4228,-8.4995,-8.5589,-0.4794,-0.8594,-1.1543,-1.1633,-1.1619,-1.2121,-1.4302,0.0,-1.8466,-2.0854,-2.2942,-2.4341,-2.4636,-2.4636,-2.4636,0.0,0.0,-2.8341,-3.0026,-3.2158,-3.402,-3.5743,0.0,0.0,-3.6016,-3.6016,-3.6016,-3.6016,-3.6016,-3.7441,-4.0537,-4.1477,-4.3764,-4.7683,-4.8385,-4.8962,-4.9515,-4.9565,-4.959,-4.959,-4.959,-4.959,-4.9615,-5.0117,-5.0695,-5.1431,-5.3766,-5.5976,0.0,-5.9994,-6.1644,-6.3079,-6.3079,-6.3079,-6.3079,-6.3079,-6.3079,-6.3079,-6.3079,-6.3902,-6.5437,-6.8309,-6.9317,-7.0034,-7.3529,-7.5134,-7.5709,-7.5709,-7.5709,-7.5709,-7.5709,-7.5709,-7.5709,-7.5709,-7.5709,-7.5709,-7.5709,-7.5709,-7.5709,-7.5709,-7.7511,-7.8983,-7.8983,-8.0732,-8.2186,-8.2186,-8.2186,-8.2186,-8.2186,-8.2186,-8.2186,-8.2186,-8.2186,-8.2186,-8.2186,-8.2186,-8.2186,-8.2186,-8.2186,-8.2186,-8.2186,-8.2186,-8.2186,-8.2186,-8.2186,-8.2186,-8.2186,-8.3488,-8.4129,-8.4216,-8.5437,-8.606,-0.4794,-0.8594,-1.1549,-1.1633,-1.1619,-1.2265,-1.462,0.0,-1.877,-2.1186,-2.3264,-2.4636,-2.4636,-2.4636,-2.4636,0.0,0.0,0.0,-3.0026,-3.2018,-3.3882,-3.5743,-3.6016,-3.6016,0.0,0.0,-3.6016,-3.6016,-3.6016,-3.7697,-4.1477,-4.1938,-4.3834,-4.7758,-4.846,-4.9038,-4.959,-4.959,-4.959,-4.959,-4.959,-4.959,-4.9615,-5.0167,-5.0745,-5.1431,-5.4724,-5.6795,0.0,-6.0899,-6.2438,-6.3079,-6.3079,-6.3079,-6.3079,-6.3079,-6.3079,-6.3079,-6.3079,-6.4258,-6.6184,-6.8638,-7.0299,-7.1847,-7.4489,-7.5473,-7.5709,-7.5709,-7.5709,-7.5709,-7.5709,-7.5709,-7.5709,-7.5709,-7.5709,-7.5709,-7.5709,-7.5709,-7.5709,-7.5709,-7.7511,-7.8983,-7.8983,-8.0732,-8.2186,-8.2186,-8.2186,-8.2186,-8.2186,-8.2186,-8.2186,-8.2186,-8.2186,-8.2186,-8.2186,-8.2186,-8.2186,-8.2186,-8.2186,-8.2186,-8.2186,-8.2186,-8.2186,-8.2186,-8.2186,-8.2407,-8.2793,-8.3359,-8.3979,-8.474,-8.528,-8.57,-0.4794,-0.8594,-1.1549,-1.1633,-1.1619,-1.241,-1.5345,-1.7038,-1.8916,-2.1941,-2.3574,-2.4636,-2.4636,-2.4636,-2.4636,0.0,0.0,-2.8213,-3.0026,-3.2018,-3.3882,-3.5743,0.0,-3.6016,-3.6016,-3.6016,-3.6016,-3.6016,-3.6016,-3.7779,-4.1767,-4.2186,-4.4044,-4.8008,-4.8711,-4.9213,-4.959,-4.959,-4.959,-4.959,-4.959,-4.959,-4.9615,-5.0343,-5.0896,-5.1456,-5.5168,-5.7212,0.0,-6.1139,-6.2672,-6.3079,-6.3079,-6.3079,-6.3079,-6.3079,-6.3079,-6.3079,-6.3079,-6.4748,-6.7072,-6.8808,-7.1113,-7.3473,-7.5152,-7.5709,-7.5709,-7.5709,-7.5709,-7.5709,-7.5709,-7.5709,-7.5709,-7.5709,-7.5709,-7.5709,-7.5709,-7.5709,-7.5771,-7.6114,-7.765,-7.9063,-7.938,-8.0982,-8.2186,-8.2186,-8.2186,-8.2186,-8.2186,-8.2186,-8.2186,-8.2186,-8.2186,-8.2186,-8.2186,-8.2186,-8.2186,-8.2186,-8.2186,-8.2186,-8.2186,-8.2186,-8.2186,-8.2186,-8.2186,-8.2434,-8.2913,-8.3303,-8.3979,-8.4828,-8.5202,-8.5664,-0.4791,-0.8594,-1.1549,-1.1633,-1.1619,-1.2691,-1.7088,-1.8061,-1.9355,-2.3606,-2.4636,-2.4636,-2.4636,-2.4636,-2.4636,-2.4636,-2.621,0.0,-3.0026,-3.2018,-3.3882,0.0,-3.6016,-3.6016,-3.6016,-3.6016,-3.6016,-3.6016,-3.6016,0.0,-4.1767,-4.2478,-4.4687,-4.8609,-4.9289,-4.959,-4.959,-4.959,-4.959,-4.959,-4.959,-4.959,-4.964,-5.0745,-5.1272,-5.1456,-5.4181,-5.644,0.0,-5.9872,-6.1525,-6.3079,-6.3079,-6.3079,-6.3079,-6.3079,-6.3079,-6.3079,-6.3079,-6.5386,-6.8348,-6.9157,-7.1753,-7.4762,-7.5473,-7.5709,-7.5709,-7.5709,-7.5709,-7.5709,-7.5709,-7.5709,-7.5709,-7.5709,-7.5709,-7.5709,-7.5709,-7.5709,-7.602,-7.7071,-7.8245,-7.9302,-8.0366,-8.1474,-8.2186,-8.2186,-8.2186,-8.2186,-8.2186,-8.2186,-8.2186,-8.2186,-8.2186,-8.2186,-8.2186,-8.2186,-8.2186,-8.2186,-8.2186,-8.2186,-8.2186,-8.2186,-8.2186,-8.2186,-8.2186,-8.2186,-8.2186,-8.3543,-8.4179,-8.4228,-8.5514,-8.6094,-0.8719,-1.063,-1.166,-1.1626,-1.1619,-1.2691,-1.7088,-1.8061,-1.9355,-2.3754,-2.4636,-2.4636,-2.4636,-2.4636,-2.4636,-2.4636,-2.621,-2.8213,0.0,0.0,0.0,-3.5743,-3.6016,-3.6016,0.0,0.0,-3.6016,-3.6016,-3.7455,-3.9516,-4.2368,-4.4186,-4.6285,-4.8761,-4.9314,-4.959,-4.959,-4.959,-4.959,-4.959,-4.959,-4.9791,-5.0167,-5.0946,-5.1498,-5.201,-5.5625,-5.7496,-5.8257,-6.1139,-6.2555,-6.3079,-6.3079,-6.3079,-6.3079,-6.3079,-6.3079,-6.3139,-6.3558,-6.6035,-6.9157,-6.9862,-7.2477,-7.5405,-7.5642,-7.5709,-7.5709,-7.5709,-7.5709,-7.5709,-7.5709,-7.5709,-7.5709,-7.5709,-7.5709,-7.5709,-7.5709,-7.5709,-7.602,-7.7071,-7.8245,-7.9302,-8.044,-8.1474,-8.2186,-8.2186,-8.2186,-8.2186,-8.2186,-8.2186,-8.2186,-8.2186,-8.2186,-8.2186,-8.2186,-8.2186,-8.2186,-8.2186,-8.2186,-8.2186,-8.2186,-8.2186,-8.2186,-8.2186,-8.2186,-8.2471,-8.2876,-8.3303,-8.3979,-8.4828,-8.57,-8.6094,0.0,-1.1653,-1.1647,-1.1626,-1.1619,-1.2691,-1.7088,-1.8061,-1.9355,-2.3754,-2.4636,-2.4636,-2.4636,-2.4636,-2.477,-2.5639,-2.7346,-2.9186,0.0,0.0,0.0,-3.5879,0.0,0.0,0.0,-3.6016,-3.6016,-3.6016,-3.8118,-4.0399,-4.2703,-4.4944,-4.7094,-4.9063,-4.9414,-4.959,-4.959,-4.959,-4.959,-4.959,-4.959,-4.9891,-5.0444,-5.1021,-5.1949,-5.3258,-5.6611,-5.8383,0.0,-6.1939,-6.3079,-6.3079,-6.3079,-6.3079,-6.3079,-6.3079,-6.3079,-6.3169,-6.3767,-6.6344,-6.9478,-7.0183,-7.2806,-7.5709,-7.5709,-7.5709,-7.5709,-7.5709,-7.5709,-7.5709,-7.5709,-7.5709,-7.5709,-7.5709,-7.5709,-7.5709,-7.5709,-7.5709,-7.6114,-7.765,-7.8494,-7.9458,-8.0911,-8.1782,-8.2186,-8.2186,-8.2186,-8.2186,-8.2186,-8.2186,-8.2186,-8.2186,-8.2186,-8.2186,-8.2186,-8.2186,-8.2186,-8.2186,-8.2186,-8.2186,-8.2186,-8.2186,-8.2186,-8.2186,-8.2186,-8.2407,-8.2853,-8.3359,-8.4092,-8.5121,-8.5811,-8.6094,0.0,0.0,0.0,0.0,-1.1763,0.0,-1.7088,-1.8207,0.0,-2.3754,-2.4636,-2.4636,-2.4636,-2.4636,-2.5212,-2.7215,-2.9043,-3.1017,0.0,-3.4883,0.0,0.0,-3.6016,0.0,-3.6016,-3.6016,-3.6035,-3.6055,-3.8294,-4.0576,-4.277,-4.5146,-4.7418,-4.9565,-4.959,-4.959,-4.959,-4.959,-4.959,-4.959,-4.964,-4.9941,-5.0494,-5.1071,-5.2613,0.0,-5.6995,-5.898,0.0,-6.2409,-6.3079,-6.3079,-6.3079,-6.3079,-6.3079,-6.3079,-6.3109,-6.3228,-6.3857,-6.6405,-6.9679,-7.046,-7.2973,-7.5709,-7.5709,-7.5709,-7.5709,-7.5709,-7.5709,-7.5709,-7.5709,-7.5709,-7.5709,-7.5709,-7.5709,-7.5709,-7.5709,-7.5709,-7.6358,-7.8577,-7.8983,-7.9691,-8.1782,-8.2186,-8.2186,-8.2186,-8.2186,-8.2186,-8.2186,-8.2186,-8.2186,-8.2186,-8.2186,-8.2186,-8.2186,-8.2186,-8.2186,-8.2186,-8.2186,-8.2186,-8.2186,-8.2186,-8.2186,-8.2186,-8.2186,-8.2186,-8.2186,-8.3543,-8.4513,-8.5041,-8.5775,-8.6094,0.0,0.0,0.0,0.0,0.0,0.0,0.0,0.0,0.0,0.0,0.0,0.0,0.0,-2.4636,-2.5212,-2.7215,-2.9043,-3.1017,-3.2874,0.0,0.0,-3.6016,-3.6016,-3.6016,-3.6016,-3.6016,-3.6152,-3.6484,-3.9926,-4.2393,-4.3153,-4.6789,-4.9053,-4.959,-4.959,-4.959,-4.959,-4.959,-4.959,-4.959,-5.0017,-5.0519,-5.1096,-5.1649,-5.3069,-5.5366,-5.7159,-5.898,-6.06,-6.2409,-6.3079,-6.3079,-6.3079,-6.3079,-6.3079,-6.3079,-6.3378,-6.3887,-6.4545,-6.7147,-7.0598,-7.3475,-7.5026,-7.5709,-7.5709,-7.5709,-7.5709,-7.5709,-7.5709,-7.5709,-7.5709,-7.5709,-7.5709,-7.5709,-7.5709,-7.5709,-7.5709,-7.5709,-7.6358,-7.8577,-7.8983,-7.9691,-8.1782,-8.2186,-8.2186,-8.2186,-8.2186,-8.2186,-8.2186,-8.2186,-8.2186,-8.2186,-8.2186,-8.2186,-8.2186,-8.2186,-8.2186,-8.2186,-8.2186,-8.2186,-8.2186,-8.2186,-8.2186,-8.2186,-8.2186,-8.2186,-8.2186,-8.3543,-8.4276,-8.442,-8.559,-8.6094,0.0,0.0,0.0,-1.2602,-1.3587,-1.5239,0.0,0.0,0.0,0.0,0.0,0.0,0.0,0.0,-2.6502,-2.8485,-3.0326,0.0,0.0,0.0,-3.6016,-3.6016,-3.6016,-3.6016,0.0,-3.6654,-3.7375,-3.7955,-4.1684,-4.4163,-4.4671,-4.7792,-4.959,-4.959,-4.959,-4.959,-4.959,-4.959,-4.959,-4.9615,-5.0142,-5.072,-5.1297,-5.2578,-5.4525,-5.6699,-5.8355,-6.0144,-6.1762,-6.2672,-6.3079,-6.3079,-6.3079,-6.3079,-6.3079,-6.3079,-6.3468,-6.4096,-6.4784,-6.761,-7.1413,-7.4603,-7.5709,-7.5709,-7.5709,-7.5709,-7.5709,-7.5709,-7.5709,-7.5709,-7.5709,-7.5709,-7.5709,-7.5709,-7.5709,-7.5709,-7.5709,-7.5709,-7.6173,-7.7907,-7.8659,-7.9536,-8.116,-8.1885,-8.2186,-8.2186,-8.2186,-8.2186,-8.2186,-8.2186,-8.2186,-8.2186,-8.2186,-8.2186,-8.2186,-8.2186,-8.2186,-8.2186,-8.2186,-8.2186,-8.2186,-8.2186,-8.2186,-8.2186,-8.2186,-8.2343,-8.2647,-8.3704,-8.4325,-8.4651,-8.5627,-8.6094,0.0,-1.3729,-1.2888,-1.4432,-1.4991,-1.6226,-1.998,0.0,0.0,0.0,0.0,0.0,0.0,-2.6357,0.0,0.0,0.0,0.0,-3.5743,-3.6016,-3.6016,-3.6016,-3.6287,0.0,-3.6403,-3.7955,-3.9205,-3.9869,-4.331,-4.5667,-4.6264,-4.8361,-4.959,-4.959,-4.959,-4.959,-4.959,-4.959,-4.959,-4.9615,-5.0243,-5.082,-5.1431,-5.3661,-5.5982,-5.8131,0.0,0.0,-6.3079,-6.3079,-6.3079,-6.3079,-6.3079,-6.3079,-6.3079,-6.3079,-6.3528,-6.4393,-6.5585,-6.8355,-7.1821,-7.4736,-7.5709,-7.5709,-7.5709,-7.5709,-7.5709,-7.5709,-7.5709,-7.5709,-7.5709,-7.5709,-7.5709,-7.5709,-7.5709,-7.5709,-7.5709,-7.5709,-7.602,-7.7071,-7.8245,-7.9302,-8.044,-8.1474,-8.2186,-8.2186,-8.2186,-8.2186,-8.2186,-8.2186,-8.2186,-8.2186,-8.2186,-8.2186,-8.2186,-8.2186,-8.2186,-8.2186,-8.2186,-8.2186,-8.2186,-8.2186,-8.2186,-8.2186,-8.2186,-8.256,-8.3189,-8.3876,-8.4513,-8.5121,-8.5811,-8.6094,-1.6263,-1.6545,-1.6413,-1.6685,-1.7949,-1.9481,-2.0697,-2.2144,0.0,0.0,0.0,0.0,0.0,-2.736,-2.8629,0.0,0.0,-3.5724,0.0,0.0,-3.6016,-3.6016,0.0,-3.8221,-3.8221,-3.9758,-4.115,-4.206,-4.417,-4.5811,-4.6632,-4.8558,-4.959,-4.959,-4.959,-4.959,-4.959,-4.959,-4.959,-4.9615,-5.0645,-5.1197,-5.1431,-5.4077,-5.6229,-5.8131,0.0,-6.1525,-6.3079,-6.3079,-6.3079,-6.3079,-6.3079,-6.3079,-6.3079,-6.3079,-6.3827,-6.5349,-6.9108,-7.09,-7.1821,-7.4736,-7.5709,-7.5709,-7.5709,-7.5709,-7.5709,-7.5709,-7.5709,-7.5709,-7.5709,-7.5709,-7.5709,-7.5709,-7.5709,-7.5709,-7.5709,-7.5709,-7.602,-7.7071,-7.8245,-7.9302,-8.044,-8.1474,-8.2186,-8.2186,-8.2186,-8.2186,-8.2186,-8.2186,-8.2186,-8.2186,-8.2186,-8.2186,-8.2186,-8.2186,-8.2186,-8.2186,-8.2186,-8.2186,-8.2186,-8.2186,-8.2186,-8.2186,-8.2186,-8.256,-8.3189,-8.3876,-8.4513,-8.5121,-8.5811,-8.6094,-1.8229,-1.8798,-1.9077,-2.0051,-2.0296,-2.065,-2.2199,-2.3288,0.0,0.0,0.0,0.0,0.0,0.0,-3.0326,-3.402,0.0,-3.6016,-3.6016,-3.6016,-3.6016,0.0,0.0,-3.8597,-3.8597,-4.1052,-4.2997,-4.3993,-4.579,-4.7194,-4.8273,-4.9177,-4.959,-4.959,-4.959,-4.959,-4.959,-4.959,-4.9741,-5.0042,-5.087,-5.1448,-5.1884,-5.5181,-5.7213,-5.8131,0.0,-6.2409,-6.3079,-6.3079,-6.3079,-6.3079,-6.3079,-6.3079,-6.3169,-6.3857,-6.4515,-6.5648,-6.9919,-7.1388,-7.1821,-7.4736,-7.5709,-7.5709,-7.5709,-7.5709,-7.5709,-7.5709,-7.5709,-7.5709,-7.5709,-7.5709,-7.5709,-7.5709,-7.5709,-7.5709,-7.5709,-7.5709,-7.5865,-7.6358,-7.7371,-7.8447,-7.9572,-8.0587,-8.1542,-8.2121,-8.2186,-8.2186,-8.2186,-8.2186,-8.2186,-8.2186,-8.2186,-8.2186,-8.2186,-8.2186,-8.2186,-8.2186,-8.2186,-8.2186,-8.2186,-8.2186,-8.2186,-8.2186,-8.2186,-8.256,-8.3189,-8.3876,-8.4513,-8.5121,-8.5811,-8.6094,-2.0201,-2.0756,-2.1032,-2.2585,0.0,-2.1579,-2.339,-2.3941,0.0,0.0,0.0,0.0,0.0,-3.0326,0.0,-3.5587,-3.6016,-3.6152,-3.6539,-3.6674,-3.6789,-3.7193,-3.8729,-3.9758,-3.9758,-4.2673,-4.4929,-4.5845,-4.7381,-4.8535,-4.954,-4.959,-4.959,-4.959,-4.959,-4.959,-4.959,-4.959,-4.9866,-5.0419,-5.0996,-5.1574,-5.2261,-5.6224,-5.8005,-5.8257,-6.1673,-6.3079,-6.3079,-6.3079,-6.3079,-6.3079,-6.3079,-6.3079,-6.3228,-6.4545,-6.5024,-6.5648,-6.9919,-7.1388,-7.1821,-7.4736,-7.5709,-7.5709,-7.5709,-7.5709,-7.5709,-7.5709,-7.5709,-7.5709,-7.5709,-7.5709,-7.5709,-7.5709,-7.5709,-7.5709,-7.5709,-7.5709,-7.5709,-7.5709,-7.6781,-7.8027,-7.8822,-8.0107,-8.123,-8.2121,-8.2186,-8.2186,-8.2186,-8.2186,-8.2186,-8.2186,-8.2186,-8.2186,-8.2186,-8.2186,-8.2186,-8.2186,-8.2186,-8.2186,-8.2186,-8.2186,-8.2186,-8.2186,-8.2186,-8.256,-8.3189,-8.3876,-8.4513,-8.5121,-8.5811,-8.6094,-2.216,-2.2722,-2.2722,-2.2859,-2.2873,0.0,-2.3634,-2.3781,0.0,-2.6808,0.0,0.0,0.0,-3.4314,-3.5724,-3.6016,-3.6016,-3.6539,-3.8221,0.0,-3.8993,-4.0666,-4.2328,-4.3333,-4.3333,-4.5477,-4.7059,-4.7733,-4.841,-4.8962,-4.9565,-4.959,-4.959,-4.959,-4.959,-4.959,-4.959,-4.959,-4.9866,-5.0419,-5.0996,-5.1574,-5.2261,-5.6224,-5.8005,-5.8257,-6.1673,-6.3079,-6.3079,-6.3079,-6.3079,-6.3079,-6.3079,-6.3079,-6.3228,-6.4545,-6.5024,-6.5648,-6.9919,-7.1388,-7.1821,-7.4736,-7.5709,-7.5709,-7.5709,-7.5709,-7.5709,-7.5709,-7.5709,-7.5709,-7.5709,-7.5709,-7.5709,-7.5709,-7.5709,-7.5709,-7.5709,-7.5709,-7.5709,-7.5709,-7.7424,-7.8903,-7.8983,-8.0732,-8.2121,-8.2186,-8.2186,-8.2186,-8.2186,-8.2186,-8.2186,-8.2186,-8.2186,-8.2186,-8.2186,-8.2186,-8.2186,-8.2186,-8.2186,-8.2186,-8.2186,-8.2186,-8.2186,-8.2186,-8.2186,-8.256,-8.3189,-8.3876,-8.4513,-8.5121,-8.5811,-8.6094,-2.2722,-2.2859,-2.2859,-2.2859,-2.3006,0.0,0.0,-2.5696,-2.6511,-2.8806,-2.9186,0.0,0.0,0.0,-3.6016,-3.6016,-3.6016,-3.6674,-3.8353,-3.8597,-3.9256,-4.1052,-4.2706,-4.3731,-4.3731,-4.5749,-4.7355,-4.7857,-4.8435,-4.9012,-4.9565,-4.959,-4.959,-4.959,-4.959,-4.959,-4.959,-4.959,-5.0067,-5.0946,-5.1172,-5.2368,-5.423,-5.6875,-5.8634,-5.9749,-6.2057,-6.3079,-6.3079,-6.3079,-6.3079,-6.3079,-6.3079,-6.3318,-6.3767,-6.4695,-6.5827,-6.7389,-7.041,-7.2036,-7.3121,-7.5064,-7.5709,-7.5709,-7.5709,-7.5709,-7.5709,-7.5709,-7.5709,-7.5709,-7.5709,-7.5709,-7.5709,-7.5709,-7.5709,-7.5709,-7.5709,-7.5709,-7.5709,-7.5709,-7.6927,-7.8161,-7.8903,-8.0182,-8.1405,-8.2121,-8.2186,-8.2186,-8.2186,-8.2186,-8.2186,-8.2186,-8.2186,-8.2186,-8.2186,-8.2186,-8.2186,-8.2186,-8.2186,-8.2186,-8.2186,-8.2186,-8.2186,-8.2186,-8.2186,-8.2343,-8.2585,-8.3704,-8.4325,-8.456,-8.5627,-8.6094,-2.2859,-2.2859,-2.2996,0.0,0.0,0.0,-2.7645,-2.771,-2.7768,-3.0667,-3.1738,-3.2455,-3.3882,0.0,0.0,0.0,-3.6403,-3.7441,-3.9125,-3.9888,-4.0924,-4.258,-4.3855,-4.4497,-4.4497,-4.6291,-4.7531,-4.7883,-4.8611,-4.9188,-4.9565,-4.959,-4.959,-4.959,-4.959,-4.959,-4.959,-4.959,-5.0167,-5.1272,-5.1885,-5.3214,-5.5419,-5.7213,-5.8856,-6.06,-6.2292,-6.3079,-6.3079,-6.3079,-6.3079,-6.3079,-6.3079,-6.3468,-6.4066,-6.4784,-6.63,-6.85,-7.0616,-7.2388,-7.3871,-7.5258,-7.5709,-7.5709,-7.5709,-7.5709,-7.5709,-7.5709,-7.5709,-7.5709,-7.5709,-7.5709,-7.5709,-7.5709,-7.5709,-7.5709,-7.5709,-7.5709,-7.5709,-7.5709,-7.6837,-7.8077,-7.8903,-8.0182,-8.1336,-8.2121,-8.2186,-8.2186,-8.2186,-8.2186,-8.2186,-8.2186,-8.2186,-8.2186,-8.2186,-8.2186,-8.2186,-8.2186,-8.2186,-8.2186,-8.2186,-8.2186,-8.2186,-8.2186,-8.2186,-8.2186,-8.2186,-8.3543,-8.4179,-8.4265,-8.5475,-8.6094,-2.2859,-2.2859,-2.3393,0.0,0.0,0.0,-3.1219,-2.9517,-2.8193,-3.2367,-3.4727,-3.6016,-3.6016,-3.6016,0.0,-3.6016,-3.7441,-3.9256,-4.0924,-4.258,-4.4374,-4.6059,-4.6301,-4.6301,-4.6301,-4.728,-4.7908,-4.7908,-4.8962,-4.959,-4.959,-4.959,-4.959,-4.959,-4.959,-4.959,-4.959,-4.959,-5.0167,-5.1272,-5.2984,-5.444,-5.5419,-5.7213,-5.898,-6.06,-6.2292,-6.3079,-6.3079,-6.3079,-6.3079,-6.3079,-6.3079,-6.3468,-6.4066,-6.4784,-6.6417,-6.85,-7.0616,-7.2355,-7.3871,-7.5258,-7.5709,-7.5709,-7.5709,-7.5709,-7.5709,-7.5709,-7.5709,-7.5709,-7.5709,-7.5709,-7.5709,-7.5709,-7.5709,-7.5709,-7.5709,-7.5709,-7.5709,-7.5709,-7.7511,-7.8983,-7.8983,-8.0732,-8.2186,-8.2186,-8.2186,-8.2186,-8.2186,-8.2186,-8.2186,-8.2186,-8.2186,-8.2186,-8.2186,-8.2186,-8.2186,-8.2186,-8.2186,-8.2186,-8.2186,-8.2186,-8.2186,-8.2186,-8.2186,-8.2186,-8.2186,-8.3543,-8.4179,-8.4228,-8.5552,-8.6094,-2.2859,-2.3788,0.0,-2.5383,0.0,0.0,0.0,-3.159,0.0,0.0,-3.5587,-3.6016,-3.6016,-3.6016,0.0,-3.6016,-3.7441,-3.9256,-4.0924,-4.258,-4.4374,-4.6059,-4.6301,-4.6301,-4.6301,-4.728,-4.7908,-4.7908,-4.8962,-4.959,-4.959,-4.959,-4.959,-4.959,-4.959,-4.959,-4.959,-4.959,-5.0167,-5.1272,-5.2984,-5.5055,-5.7341,-5.898,-6.075,-6.2409,-6.2817,-6.3079,-6.3079,-6.3079,-6.3079,-6.3079,-6.3079,-6.3468,-6.4066,-6.4784,-6.7051,-6.9886,-7.1055,-7.3018,-7.5161,-7.558,-7.5709,-7.5709,-7.5709,-7.5709,-7.5709,-7.5709,-7.5709,-7.5709,-7.5709,-7.5709,-7.5709,-7.5709,-7.5709,-7.5709,-7.5709,-7.5709,-7.5709,-7.5709,-7.7511,-7.8983,-7.8983,-8.0732,-8.2186,-8.2186,-8.2186,-8.2186,-8.2186,-8.2186,-8.2186,-8.2186,-8.2186,-8.2186,-8.2186,-8.2186,-8.2186,-8.2186,-8.2186,-8.2186,-8.2186,-8.2186,-8.2186,-8.2186,-8.2186,-8.2186,-8.2186,-8.3543,-8.4179,-8.4265,-8.6164,-8.7017,-2.2859,-2.4196,0.0,-2.6439,-2.8325,-3.0594,-3.285,0.0,0.0,0.0,-3.6016,-3.6016,-3.6016,-3.6016,0.0,-3.6016,-3.8088,-4.0018,-4.1052,-4.3232,-4.5135,-4.618,-4.6301,-4.6301,-4.6301,-4.728,-4.7908,-4.7908,-4.8962,-4.959,-4.959,-4.959,-4.959,-4.959,-4.959,-4.959,-4.959,-4.959,-5.0532,-5.2254,-5.3959,-5.6292,-5.898,-5.9994,-6.1407,-6.3079,-6.3079,-6.3079,-6.3079,-6.3079,-6.3079,-6.3079,-6.3079,-6.3468,-6.4066,-6.4784,-6.7249,-7.0535,-7.1164,-7.3328,-7.5709,-7.5709,-7.5709,-7.5709,-7.5709,-7.5709,-7.5709,-7.5709,-7.5709,-7.5709,-7.5709,-7.5709,-7.5709,-7.5709,-7.5709,-7.5709,-7.5709,-7.5709,-7.5709,-7.5709,-7.7511,-7.8983,-7.8983,-8.0732,-8.2186,-8.2186,-8.2186,-8.2186,-8.2186,-8.2186,-8.2186,-8.2186,-8.2186,-8.2186,-8.2186,-8.2186,-8.2186,-8.2186,-8.2186,-8.2186,-8.2186,-8.2186,-8.2186,-8.2186,-8.2186,-8.2186,-8.2186,-8.3543,-8.4367,-8.4719,-8.6547,-8.7594,-2.3133,-2.4452,-2.6172,-2.8032,-3.0066,0.0,-3.4776,-3.5723,-3.6016,-3.6016,0.0,-3.6016,-3.6016,-3.6016,-3.6016,-3.6016,-3.8993,-4.1181,-4.1181,-4.4127,-4.6301,-4.6301,-4.6301,-4.6301,-4.6301,-4.723,-4.7857,-4.7908,-4.8912,-4.954,-4.959,-4.959,-4.959,-4.959,-4.959,-4.9719,-4.9847,-4.9719,-5.1101,-5.398,-5.5511,-5.7744,-6.0393,-6.06,-6.1644,-6.3079,-6.3079,-6.3079,-6.3079,-6.3079,-6.3079,-6.3079,-6.3079,-6.3438,-6.4006,-6.4843,-6.7332,-7.0439,-7.1348,-7.3431,-7.5709,-7.5709,-7.5709,-7.5709,-7.5709,-7.5709,-7.5709,-7.5709,-7.5709,-7.5709,-7.5709,-7.5709,-7.5709,-7.5709,-7.5709,-7.5709,-7.5709,-7.5709,-7.5709,-7.5709,-7.7511,-7.8983,-7.8983,-8.0732,-8.2186,-8.2186,-8.2186,-8.2186,-8.2186,-8.2186,-8.2186,-8.2186,-8.2186,-8.2186,-8.2186,-8.2186,-8.2186,-8.2186,-8.2186,-8.2186,-8.2186,-8.2186,-8.2186,-8.2186,-8.2186,-8.2288,-8.2389,-8.3709,-8.4756,-8.5647,-8.7006,-8.8055,-2.4588,-2.6306,0.0,0.0,-3.2115,-3.4293,-3.5121,-3.5723,-3.6016,-3.6016,-3.6016,-3.6016,-3.6016,-3.6016,-3.6016,-3.6016,-3.8993,-4.1181,-4.1181,-4.4127,-4.6301,-4.6301,-4.6301,-4.6301,-4.6301,-4.6903,-4.7481,-4.7883,-4.856,-4.9138,-4.9565,-4.959,-4.959,-4.959,-4.959,-5.0181,-5.1492,-5.0181,-5.1379,0.0,-5.5811,-5.7519,-5.976,-6.1674,-6.2701,-6.3079,-6.3079,-6.3079,-6.3079,-6.3079,-6.3079,-6.3079,-6.3079,-6.3169,-6.3524,-6.5849,-6.7966,-6.9978,-7.2281,-7.4206,-7.5709,-7.5709,-7.5709,-7.5709,-7.5709,-7.5709,-7.5709,-7.5709,-7.5709,-7.5709,-7.5709,-7.5709,-7.5709,-7.5709,-7.5709,-7.5709,-7.5709,-7.5709,-7.5709,-7.5709,-7.7511,-7.8983,-7.8983,-8.0732,-8.2186,-8.2186,-8.2186,-8.2186,-8.2186,-8.2186,-8.2186,-8.2186,-8.2186,-8.2186,-8.2186,-8.2186,-8.2186,-8.2186,-8.2186,-8.2186,-8.2186,-8.2186,-8.2186,-8.2186,-8.2186,-8.2729,-8.3923,-8.4711,-8.5868,-8.7242,-8.869,-8.9479,0.0,0.0,0.0,-3.1433,0.0,-3.4766,-3.5,-3.5566,-3.6016,-3.6016,-3.6016,-3.6016,-3.6016,-3.6016,-3.6016,-3.6016,-3.8993,-4.1181,-4.1181,-4.4127,-4.6301,-4.6301,-4.6301,-4.6301,-4.6301,-4.6803,-4.7355,-4.7857,-4.8435,-4.9012,-4.9565,-4.959,-4.959,-4.959,-4.959,-5.0308,-5.1989,-5.1142,-5.2625,-5.6463,-5.7084,-5.8742,-6.1292,-6.2523,-6.3079,-6.3079,-6.3079,-6.3079,-6.3079,-6.3079,-6.3079,-6.3079,-6.3079,-6.3079,-6.3429,-6.6211,-6.8092,-6.9785,-7.2663,-7.4539,-7.5709,-7.5709,-7.5709,-7.5709,-7.5709,-7.5709,-7.5709,-7.5709,-7.5709,-7.5709,-7.5709,-7.5709,-7.5709,-7.5709,-7.5709,-7.5709,-7.5709,-7.5709,-7.5709,-7.5709,-7.7511,-7.8983,-7.8983,-8.0732,-8.2186,-8.2186,-8.2186,-8.2186,-8.2186,-8.2186,-8.2186,-8.2186,-8.2186,-8.2186,-8.2186,-8.2186,-8.2186,-8.2186,-8.2186,-8.2186,-8.2186,-8.2186,-8.2186,-8.2186,-8.259,-8.3116,-8.3954,-8.5333,-8.6604,-8.7855,-8.9228,-9.0133,0.0,0.0,-2.9752,-3.2638,-3.4062,0.0,-3.4707,-3.5391,-3.6016,-3.6016,-3.6016,-3.6016,-3.6016,-3.6016,-3.6016,-3.6016,-3.8993,-4.1181,-4.1181,-4.4127,-4.6301,-4.6301,-4.6301,-4.6301,-4.6301,-4.6728,-4.7255,-4.7857,-4.836,-4.8912,-4.9565,-4.959,-4.959,-4.959,-4.959,-5.0563,-5.2332,-5.2086,-5.4008,-5.8,-5.8755,-6.0529,-6.3079,-6.3079,-6.3079,-6.3079,-6.3079,-6.3079,-6.3079,-6.3079,-6.3079,-6.3079,-6.3079,-6.3279,-6.3743,-6.6517,-6.8527,-7.0235,-7.297,-7.477,-7.5709,-7.5709,-7.5709,-7.5709,-7.5709,-7.5709,-7.5709,-7.5709,-7.5709,-7.5709,-7.5709,-7.5709,-7.5709,-7.5709,-7.5709,-7.5709,-7.5709,-7.5709,-7.5709,-7.5709,-7.7511,-7.9143,-7.9458,-8.0982,-8.2186,-8.2186,-8.2186,-8.2186,-8.2186,-8.2186,-8.2186,-8.2186,-8.2186,-8.2186,-8.2186,-8.2186,-8.2186,-8.2186,-8.2186,-8.226,-8.2406,-8.2406,-8.248,-8.259,-8.3141,-8.361,-8.4027,-8.5882,-8.7336,-8.8317,-8.9572,-9.0517,0.0,0.0,-3.2765,0.0,-3.4062,-3.4707,0.0,0.0,-3.6016,0.0,-3.6016,-3.6016,-3.6016,-3.6016,-3.6016,-3.6016,-3.8993,-4.1181,-4.1181,-4.4127,-4.6301,-4.6301,-4.6301,-4.6301,-4.6301,-4.6376,-4.6828,-4.7832,-4.7983,-4.8485,-4.954,-4.959,-4.959,-4.959,-4.959,-5.1042,-5.4029,-5.27,-5.4268,-5.8892,-6.0142,-6.1565,-6.3079,-6.3079,-6.3079,-6.3079,-6.3079,-6.3079,-6.3079,-6.3079,-6.3079,-6.3079,-6.3079,-6.3789,-6.5187,-6.8021,-7.0008,-7.1622,-7.443,-7.558,-7.5709,-7.5709,-7.5709,-7.5709,-7.5709,-7.5709,-7.5709,-7.5709,-7.5709,-7.5709,-7.5709,-7.5709,-7.5709,-7.5709,-7.5709,-7.5709,-7.5709,-7.5709,-7.5709,-7.5709,-7.7511,-7.9614,-8.1474,-8.2018,-8.2186,-8.2186,-8.2186,-8.2186,-8.2186,-8.2186,-8.2186,-8.2186,-8.2186,-8.2186,-8.2186,-8.2186,-8.2186,-8.2186,-8.2186,-8.2517,-8.3214,-8.3251,-8.3581,-8.4278,-8.3728,-8.4415,-8.6459,-8.7281,-8.8404,-8.9838,-9.0647,-9.1095,-2.8935,-3.1451,-3.3418,0.0,-3.4062,-3.4707,-3.4707,-3.5391,-3.6016,-3.6016,-3.6016,-3.6016,-3.6016,-3.6016,-3.6016,-3.6016,-3.8993,-4.1181,-4.1181,-4.4127,-4.6301,-4.6301,-4.6301,-4.6301,-4.6301,-4.6301,-4.6753,-4.7832,-4.7908,-4.841,-4.954,-4.959,-4.995,-5.0916,-5.0916,-5.2455,-5.5676,-5.4948,-5.6308,-5.9668,-6.0655,-6.1613,-6.254,-6.2899,-6.3079,-6.3079,-6.3079,-6.3079,-6.3194,-6.3902,-6.4209,-6.432,-6.5142,-6.5728,-6.6628,-6.9491,-7.0992,-7.1952,-7.4753,-7.5709,-7.5709,-7.5709,-7.5709,-7.5709,-7.5709,-7.5709,-7.5709,-7.5709,-7.5709,-7.5709,-7.5709,-7.5709,-7.5709,-7.5709,-7.5709,-7.5709,-7.5709,-7.5709,-7.602,-7.7336,-7.8328,-7.9691,-8.1782,-8.2186,-8.2186,-8.2186,-8.2186,-8.2186,-8.2186,-8.2186,-8.2186,-8.2186,-8.2186,-8.2186,-8.2186,-8.2186,-8.2186,-8.2186,-8.2627,-8.303,-8.3398,-8.3838,-8.4462,-8.527,-8.4903,-8.525,-8.6269,-8.7829,-8.8898,-8.9573,-9.0684,-9.121,0.0,0.0,-3.3418,-3.3418,-3.4062,-3.4707,0.0,0.0,-3.6016,0.0,-3.6016,-3.6016,-3.6016,-3.6016,-3.6016,-3.6016,-3.8597,-4.0666,-4.1181,-4.3731,-4.5793,-4.6301,-4.6301,-4.6301,-4.6301,-4.6301,-4.6702,-4.7631,-4.7832,-4.8335,-4.9339,-4.9515,-5.0308,-5.1989,-5.1989,-5.3522,-5.6707,-5.7075,-5.8238,-6.0086,-6.0775,-6.1463,-6.2121,-6.278,-6.3079,-6.3079,-6.3079,-6.3079,-6.3164,-6.4512,-6.5111,-6.5219,-6.6679,-6.7368,-6.8068,-7.0567,-7.1754,-7.2344,-7.4849,-7.5709,-7.5709,-7.5709,-7.5709,-7.5709,-7.5709,-7.5709,-7.5709,-7.5709,-7.5709,-7.5709,-7.5709,-7.5709,-7.5709,-7.5709,-7.5709,-7.5709,-7.5709,-7.5709,-7.6358,-7.8577,-7.8983,-7.9691,-8.1782,-8.2186,-8.2186,-8.2186,-8.2186,-8.2186,-8.2186,-8.2186,-8.2186,-8.2186,-8.2186,-8.2186,-8.2186,-8.2186,-8.2296,-8.248,-8.3067,-8.3581,-8.3985,-8.4609,-8.527,-8.6077,-8.6114,-8.6114,-8.6114,-8.8109,-8.9122,-8.9136,-9.0526,-9.121,0.0,-3.3292,0.0,-3.3418,-3.4062,-3.4707,0.0,0.0,-3.6016,-3.6016,-3.6016,-3.6016,-3.6016,-3.6016,-3.6016,-3.6016,-3.7575,-3.9256,-4.0924,-4.2706,-4.4497,-4.6059,-4.6301,-4.6301,-4.6301,-4.6301,-4.6552,-4.7129,-4.7631,-4.8184,-4.8786,-4.9314,-5.0308,-5.1989,-5.1989,-5.3522,-5.6707,-5.8166,-5.9319,-6.0086,-6.0775,-6.1463,-6.2121,-6.278,-6.3079,-6.3079,-6.3079,-6.3079,-6.3164,-6.4512,-6.5111,-6.5219,-6.6679,-6.7974,-6.9285,-7.0897,-7.2338,-7.3587,-7.5168,-7.5709,-7.5709,-7.5709,-7.5709,-7.5709,-7.5709,-7.5709,-7.5709,-7.5709,-7.5709,-7.5709,-7.5709,-7.5709,-7.5709,-7.5709,-7.5709,-7.5709,-7.5709,-7.5709,-7.6358,-7.8577,-7.8983,-7.9691,-8.1782,-8.2186,-8.2186,-8.2186,-8.2186,-8.2186,-8.2186,-8.2186,-8.2186,-8.2186,-8.2186,-8.2186,-8.2186,-8.2186,-8.2517,-8.3287,-8.3398,-8.4095,-8.56,-8.571,-8.6114,-8.6921,-8.6958,-8.6958,-8.6958,-8.8409,-8.9122,-8.9136,-9.0526,-9.121,0.0,0.0,0.0,-3.3418,-3.3867,-3.4375,-3.4629,-3.5176,-3.5703,-3.5957,-3.6016,-3.6016,-3.6016,-3.6016,-3.6016,-3.6016,-3.8353,-4.0537,-4.1052,-4.3606,-4.5646,-4.618,-4.6301,-4.6301,-4.6301,-4.6301,-4.6552,-4.7104,-4.7606,-4.8159,-4.8736,-4.9289,-5.079,-5.3429,-5.3549,-5.5094,-5.8166,-5.8852,-5.9219,-5.9458,-6.0595,-6.1253,-6.1493,-6.26,-6.3079,-6.3079,-6.3079,-6.3592,-6.4512,-6.5835,-6.6958,-6.7874,-6.925,-7.017,-7.0742,-7.2217,-7.307,-7.368,-7.5202,-7.5709,-7.5709,-7.5709,-7.5709,-7.5709,-7.5709,-7.5709,-7.5709,-7.5709,-7.5709,-7.5709,-7.5709,-7.5709,-7.5709,-7.5709,-7.5709,-7.5709,-7.5709,-7.5709,-7.6358,-7.8577,-7.8983,-7.9691,-8.1782,-8.2186,-8.2186,-8.2186,-8.2186,-8.2186,-8.2186,-8.2186,-8.2186,-8.2186,-8.2186,-8.2186,-8.2186,-8.2663,-8.3104,-8.3398,-8.4389,-8.5196,-8.5783,-8.6297,-8.6701,-8.6995,-8.6995,-8.7231,-8.7709,-8.8636,-8.9289,-8.9763,-9.0723,-9.121,-3.1707,0.0,0.0,0.0,-3.375,-3.418,-3.4609,-3.5059,-3.5508,-3.5937,-3.6016,-3.6016,-3.6016,-3.6539,-3.6674,-3.6152,-3.8465,-4.0537,-4.1181,-4.3606,-4.5646,-4.618,-4.6301,-4.6301,-4.6301,-4.6301,-4.6451,-4.6828,-4.7355,0.0,-4.846,-4.9495,-5.168,-5.5094,-5.5704,-5.6991,-5.9099,-5.9099,-5.9099,-5.9129,-6.0236,-6.0894,-6.1164,-6.2241,-6.3183,-6.3789,-6.3789,-6.432,-6.5219,-6.6679,-6.7974,-6.9313,-7.0791,-7.1312,-7.1481,-7.2935,-7.3477,-7.368,-7.5202,-7.5709,-7.5709,-7.5709,-7.5709,-7.5709,-7.5709,-7.5709,-7.5709,-7.5709,-7.5709,-7.5709,-7.5709,-7.5709,-7.5709,-7.5709,-7.5709,-7.5709,-7.5709,-7.5926,-7.6747,-7.8659,-7.9302,-8.0107,-8.1885,-8.2186,-8.2186,-8.2186,-8.2186,-8.2186,-8.2186,-8.2186,-8.2186,-8.2186,-8.2443,-8.259,-8.259,-8.3361,-8.3911,-8.4205,-8.5196,-8.593,-8.6187,-8.6738,-8.6995,-8.6995,-8.6995,-8.7489,-8.8446,-8.891,-8.9438,-9.0116,-9.0876,-9.121,0.0,0.0,0.0,0.0,0.0,0.0,-3.459,0.0,-3.5488,-3.5918,-3.6016,-3.6016,-3.6016,-3.7441,-3.8088,-3.6403,-3.7575,-3.9366,-4.1052,-4.2706,-4.4374,-4.6059,-4.6301,-4.6301,-4.6301,-4.6301,-4.6301,-4.6301,-4.6828,-4.7355,-4.7857,-5.0097,-5.2951,-5.6593,-5.8276,-5.9099,-5.9099,-5.9099,-5.9099,-5.9129,-5.9757,-6.0446,-6.1134,-6.1792,-6.3152,-6.5111,-6.5111,-6.5111,-6.5328,-6.6679,-6.8074,-6.9409,-7.0791,-7.1312,-7.1481,-7.2935,-7.3477,-7.368,-7.5202,-7.5709,-7.5709,-7.5709,-7.5709,-7.5709,-7.5709,-7.5709,-7.5709,-7.5709,-7.5709,-7.5709,-7.5709,-7.5709,-7.5709,-7.5709,-7.5709,-7.5709,-7.5771,-7.6599,-7.765,-7.8822,-7.988,-8.0911,-8.2018,-8.2186,-8.2186,-8.2186,-8.2186,-8.2186,-8.2186,-8.2186,-8.2186,-8.2186,-8.292,-8.3398,-8.3398,-8.4168,-8.4976,-8.5747,-8.582,-8.6187,-8.6995,-8.6995,-8.6995,-8.6995,-8.6995,-8.7672,-8.9122,-8.9122,-8.9476,-9.016,-9.0876,-9.121,-3.0384,0.0,0.0,0.0,0.0,0.0,0.0,0.0,-3.5019,-3.5469,-3.5801,-3.6403,-3.7709,-3.8221,-3.8861,-3.9627,-4.1158,-4.2454,-4.2958,-4.4497,-4.5793,-4.618,-4.6301,-4.6301,-4.6301,-4.6301,-4.6301,0.0,-4.6828,-4.7643,-4.8901,-5.2431,-5.5168,-5.6707,-5.8276,-5.9099,-5.9099,-5.9099,-5.9099,-5.9129,-5.9757,-6.0446,-6.1134,-6.1792,-6.3152,-6.5111,-6.5111,-6.6259,-6.8074,-6.8503,-6.9442,-7.0791,-7.1098,-7.1312,-7.1481,-7.2935,-7.3477,-7.368,-7.5202,-7.5709,-7.5709,-7.5709,-7.5709,-7.5709,-7.5709,-7.5709,-7.5709,-7.5709,-7.5709,-7.5709,-7.5709,-7.5709,-7.5709,-7.5709,-7.5709,-7.596,-7.669,-7.7736,-7.8659,-7.8903,-7.988,-8.0911,-8.2018,-8.2186,-8.2186,-8.2186,-8.2186,-8.2186,-8.2186,-8.2186,-8.2186,-8.2186,-8.292,-8.3398,-8.3398,-8.4682,-8.5563,-8.5783,-8.6334,-8.6775,-8.6995,-8.6995,-8.6995,-8.6995,-8.7489,-8.8249,-8.9122,-8.9122,-8.9716,-9.0876,-9.11,-9.121,0.0,0.0,0.0,0.0,0.0,0.0,-3.4199,-3.4531,-3.4883,-3.5527,-3.5859,-3.6539,-3.8221,-3.9256,-4.0278,-4.1947,-4.3731,-4.4497,-4.3855,-4.5159,-4.6301,-4.6301,-4.6301,-4.6301,-4.6301,-4.6301,-4.6301,-4.6301,-4.6602,-4.7872,-5.0605,-5.4008,-5.6355,-5.7664,-5.8634,-5.9099,-5.9099,-5.9099,-5.9099,-5.9099,-6.0076,-6.0663,-6.1134,-6.2622,-6.4319,-6.6048,-6.6543,-6.8074,-7.0043,-7.0043,-7.0574,-7.1312,-7.1312,-7.1515,-7.1921,-7.3071,-7.368,-7.4119,-7.5303,-7.5709,-7.5709,-7.5709,-7.5709,-7.5709,-7.5709,-7.5709,-7.5709,-7.5709,-7.5709,-7.5709,-7.5709,-7.5709,-7.5709,-7.5709,-7.5709,-7.602,-7.7071,-7.8161,-7.9143,-7.9536,-8.0514,-8.1474,-8.2121,-8.2186,-8.2186,-8.2186,-8.2186,-8.2186,-8.2186,-8.2186,-8.2333,-8.2663,-8.3434,-8.4058,-8.4389,-8.5563,-8.6297,-8.6297,-8.6738,-8.6995,-8.6995,-8.6995,-8.6995,-8.6995,-8.7709,-8.856,-8.9525,-8.9525,-9.0111,-9.121,-9.121,-9.121,0.0,0.0,0.0,0.0,-3.3418,0.0,-3.4394,-3.4629,-3.4922,-3.5703,-3.5957,-3.6539,-3.8465,-4.0148,-4.182,-4.3731,-4.5281,-4.5793,-4.4251,-4.5281,-4.6301,-4.6301,-4.6301,-4.6301,-4.6301,-4.6301,-4.6301,-4.6301,-4.6636,-4.8564,-5.2626,-5.4768,-5.6932,-5.8979,-5.9069,-5.9099,-5.9099,-5.9099,-5.9099,-5.9099,-6.0432,-6.1138,-6.1408,-6.39,-6.5952,-6.747,-6.8699,-7.0043,-7.1312,-7.1312,-7.1312,-7.1312,-7.1312,-7.1751,-7.2496,-7.3206,-7.395,-7.4728,-7.5439,-7.5709,-7.5709,-7.5709,-7.5709,-7.5709,-7.5709,-7.5709,-7.5709,-7.5709,-7.5709,-7.5709,-7.5709,-7.5709,-7.5709,-7.5709,-7.5771,-7.6173,-7.7248,-7.8411,-7.9458,-8.0587,-8.1542,-8.2186,-8.2186,-8.2186,-8.2186,-8.2186,-8.2186,-8.2186,-8.2186,-8.226,-8.2627,-8.3324,-8.4205,-8.5013,-8.5747,-8.6554,-8.6995,-8.6995,-8.6995,-8.6995,-8.6995,-8.6995,-8.7064,-8.7132,-8.7923,-8.8963,-9.0203,-9.0203,-9.0566,-9.121,-9.121,-9.121,0.0,0.0,0.0,0.0,0.0,0.0,-3.3633,-3.4199,-3.4746,-3.4922,-3.5527,-3.6924,-4.0148,-4.0924,-4.2201,-4.5281,-4.6059,-4.618,-4.5793,-4.6059,-4.6301,-4.6301,-4.6301,-4.6301,-4.6301,-4.6301,-4.6301,-4.6301,-4.8505,-5.0905,-5.3537,-5.5694,-5.7255,-5.8291,-5.883,-5.9099,-5.9099,-5.9099,-5.9099,-5.9099,-6.0432,-6.1629,-6.2747,-6.4381,-6.645,-6.8797,-6.9121,-7.0043,-7.1312,-7.1312,-7.1312,-7.1312,-7.1312,-7.1751,-7.2496,-7.3206,-7.395,-7.4728,-7.5439,-7.5709,-7.5709,-7.5709,-7.5709,-7.5709,-7.5709,-7.5709,-7.5709,-7.5709,-7.5709,-7.5709,-7.5709,-7.5709,-7.5709,-7.5709,-7.6358,-7.7336,-7.8411,-7.9536,-8.0587,-8.1715,-8.2055,-8.2186,-8.2186,-8.2186,-8.2186,-8.2186,-8.2186,-8.2186,-8.2186,-8.2774,-8.3251,-8.3398,-8.4682,-8.5637,-8.5783,-8.6554,-8.6995,-8.6995,-8.6995,-8.6995,-8.6995,-8.6995,-8.7298,-8.7898,-8.9122,-9.0116,-9.0989,-9.0989,-9.1064,-9.121,-9.121,-9.121,0.0,0.0,0.0,-3.2892,0.0,0.0,0.0,-3.4238,-3.4766,-3.5,-3.5566,-3.7059,-4.0537,-4.1181,-4.2328,-4.5793,-4.6301,-4.6301,-4.6301,-4.6301,-4.6301,-4.6301,-4.6301,-4.6301,-4.6301,-4.6301,-4.6636,-4.7298,-5.0184,-5.2414,-5.3827,-5.5942,-5.7423,-5.8112,-5.877,-5.9099,-5.9099,-5.9099,-5.9392,-6.0045,-6.1395,-6.2531,-6.3672,-6.6029,-6.7669,-6.869,-6.9783,-7.0666,-7.1312,-7.1312,-7.1312,-7.1312,-7.1312,-7.1988,-7.2969,-7.3341,-7.4187,-7.5202,-7.5574,-7.5709,-7.5709,-7.5709,-7.5709,-7.5709,-7.5709,-7.5709,-7.5709,-7.5709,-7.5709,-7.5709,-7.5709,-7.5709,-7.5865,-7.6358,-7.6927,-7.7736,-7.9458,-8.0218,-8.0911,-8.1952,-8.2186,-8.2186,-8.2186,-8.2186,-8.2186,-8.2186,-8.2186,-8.2186,-8.2186,-8.292,-8.3581,-8.3985,-8.5086,-8.5967,-8.6371,-8.6775,-8.6995,-8.6995,-8.6995,-8.6995,-8.6995,-8.6995,-8.7489,-8.856,-8.9621,-9.0488,-9.121,-9.121,-9.121,-9.121,-9.121,-9.121,0.0,0.0,0.0,0.0,0.0,-3.3535,0.0,0.0,0.0,-3.5293,-3.5723,-3.6924,-4.0148,0.0,0.0,-4.5011,0.0,0.0,0.0,-4.6175,0.0,-4.6301,-4.6301,-4.6301,-4.6301,-4.6541,-4.7298,-4.8851,-5.1428,-5.3299,-5.411,-5.587,-5.7244,-5.7902,-5.856,-5.9057,-5.9469,-5.9499,-6.015,-6.1395,-6.2779,-6.3741,-6.4449,-6.7668,-6.8887,-6.8606,-7.0489,-7.1312,-7.1312,-7.1312,-7.1312,-7.1312,-7.1312,-7.2191,-7.3477,-7.3477,-7.4424,-7.5709,-7.5709,-7.5709,-7.5709,-7.5709,-7.5709,-7.5709,-7.5709,-7.5709,-7.5709,-7.5709,-7.5709,-7.5709,-7.5709,-7.5709,-7.5926,-7.7071,-7.7476,-7.8126,-8.0182,-8.0768,-8.116,-8.2018,-8.2186,-8.2186,-8.2186,-8.2186,-8.2186,-8.2186,-8.2186,-8.226,-8.2406,-8.3141,-8.3948,-8.4756,-8.5563,-8.6297,-8.6958,-8.6995,-8.6995,-8.6995,-8.6995,-8.6995,-8.6995,-8.7261,-8.8009,-8.9238,-8.9946,-9.0606,-9.121,-9.121,-9.121,-9.121,-9.121,-9.121,0.0,0.0,0.0,0.0,-3.2237,0.0,-3.3965,0.0,-3.4824,-3.5293,0.0,0.0,0.0,0.0,0.0,0.0,0.0,0.0,-4.4945,-4.5673,-4.6301,-4.6301,-4.6301,-4.6301,-4.6301,-4.7534,-4.8851,-5.038,-5.2051,-5.3547,-5.4964,-5.5795,-5.6555,-5.7184,-5.7872,-5.9078,-6.0815,-6.0815,-6.1395,-6.2779,-6.4012,-6.5082,-6.5805,-6.8059,-6.9397,-7.0018,-7.0884,-7.1312,-7.1312,-7.1312,-7.1312,-7.1312,-7.1312,-7.2191,-7.3477,-7.3477,-7.4424,-7.5709,-7.5709,-7.5709,-7.5709,-7.5709,-7.5709,-7.5709,-7.5709,-7.5709,-7.5709,-7.5709,-7.5709,-7.5709,-7.5709,-7.5709,-7.5926,-7.7071,-7.8077,-7.9143,-8.0366,-8.1336,-8.2018,-8.2186,-8.2186,-8.2186,-8.2186,-8.2186,-8.2186,-8.2186,-8.2186,-8.2443,-8.3177,-8.3985,-8.4756,-8.5563,-8.6371,-8.6921,-8.6995,-8.6995,-8.6995,-8.6995,-8.6995,-8.6995,-8.6995,-8.8212,-8.9187,-8.9946,-9.0723,-9.11,-9.121,-9.121,-9.121,-9.121,-9.121,-9.121,0.0,0.0,0.0,0.0,0.0,0.0,-3.3766,0.0,-3.5156,0.0,0.0,0.0,0.0,0.0,0.0,0.0,-4.4841,0.0,0.0,0.0,-4.6301,-4.6301,0.0,0.0,-4.7534,-4.8965,-5.038,-5.1943,-5.3413,-5.4509,-5.5179,-5.5807,-5.6466,-5.7064,-5.7752,-5.8987,-6.0989,-6.0989,-6.2063,-6.4137,-6.4597,-6.5425,-6.6531,-6.8243,-6.9282,-6.962,-7.0804,-7.1312,-7.1312,-7.1312,-7.1312,-7.1312,-7.1312,-7.2191,-7.3477,-7.3477,-7.4424,-7.5709,-7.5709,-7.5709,-7.5709,-7.5709,-7.5709,-7.5709,-7.5709,-7.5709,-7.5709,-7.5709,-7.5709,-7.5709,-7.5709,-7.6173,-7.6927,-7.7992,-7.9143,-8.0182,-8.1299,-8.1885,-8.2186,-8.2186,-8.2186,-8.2186,-8.2186,-8.2186,-8.2186,-8.2186,-8.2186,-8.248,-8.3324,-8.4095,-8.4903,-8.571,-8.6518,-8.6995,-8.6995,-8.6995,-8.6995,-8.6995,-8.6995,-8.7163,-8.7618,-8.8579,-8.9426,-9.0116,-9.08,-9.121,-9.121,-9.121,-9.121,-9.121,-9.121,-9.121,-2.4452,0.0,0.0,0.0,0.0,0.0,0.0,0.0,0.0,0.0,0.0,0.0,0.0,0.0,0.0,0.0,0.0,-4.62,0.0,-4.6125,-4.6301,0.0,0.0,0.0,0.0,-4.9847,-5.1372,-5.2857,-5.4406,-5.5179,-5.5179,-5.6003,-5.6839,-5.7656,-5.8449,-5.988,-6.2063,-6.2063,-6.3227,-6.547,-6.547,-6.5942,-6.688,-6.8402,-6.9113,-6.918,-7.0669,-7.1312,-7.1312,-7.1312,-7.1312,-7.1312,-7.1312,-7.2191,-7.3477,-7.3477,-7.4424,-7.5709,-7.5709,-7.5709,-7.5709,-7.5709,-7.5709,-7.5709,-7.5709,-7.5709,-7.5709,-7.5709,-7.5709,-7.5771,-7.602,-7.6747,-7.765,-7.9143,-8.0032,-8.0911,-8.1952,-8.2186,-8.2186,-8.2186,-8.2186,-8.2186,-8.2186,-8.2186,-8.2186,-8.2186,-8.2186,-8.2553,-8.3618,-8.4242,-8.4976,-8.6004,-8.6664,-8.6995,-8.6995,-8.6995,-8.6995,-8.6995,-8.7163,-8.7581,-8.8367,-8.9016,-8.9716,-9.0367,-9.0914,-9.121,-9.121,-9.121,-9.121,-9.121,-9.121,-9.121,0.0,0.0,0.0,-2.8325,0.0,0.0,0.0,0.0,-3.5508,0.0,0.0,0.0,0.0,0.0,0.0,0.0,0.0,0.0,0.0,0.0,-4.6301,-4.6301,0.0,0.0,0.0,-4.9847,-5.1372,-5.2857,-5.4406,-5.5179,-5.5179,-5.628,-5.7642,-5.8975,-6.017,-6.2123,-6.4778,-6.4778,-6.547,-6.6728,-6.6728,-6.6728,-6.688,-6.8402,-6.9113,-6.918,-7.0669,-7.1312,-7.1312,-7.1312,-7.1312,-7.1312,-7.1312,-7.2191,-7.3477,-7.3477,-7.4424,-7.5709,-7.5709,-7.5709,-7.5709,-7.5709,-7.5709,-7.5709,-7.5709,-7.5709,-7.5709,-7.5709,-7.5709,-7.5926,-7.7016,-7.7248,-7.7822,-8.0032,-8.0587,-8.0911,-8.1952,-8.2186,-8.2186,-8.2186,-8.2186,-8.2186,-8.2186,-8.2186,-8.2186,-8.2186,-8.2186,-8.2774,-8.4352,-8.4572,-8.5233,-8.6811,-8.6995,-8.6995,-8.6995,-8.6995,-8.6995,-8.6995,-8.7683,-8.8367,-8.9069,-8.9716,-9.0447,-9.1136,-9.121,-9.121,-9.121,-9.121,-9.121,-9.121,-9.121,-9.121,0.0,0.0,-2.4592,-2.6649,0.0,0.0,0.0,0.0,0.0,0.0,0.0,0.0,0.0,0.0,0.0,0.0,0.0,0.0,0.0,0.0,-4.6301,-4.6301,0.0,0.0,0.0,0.0,-5.2828,-5.4304,-5.4976,-5.5551,-5.6347,-5.68,-5.7776,-5.9538,-6.045,-6.1989,-6.4177,-6.4638,-6.5559,-6.6812,-6.6812,-6.6812,-6.688,-6.8402,-6.9113,-6.918,-7.0669,-7.1312,-7.1312,-7.1312,-7.1312,-7.1312,-7.1312,-7.2191,-7.3477,-7.3477,-7.4424,-7.5709,-7.5709,-7.5709,-7.5709,-7.5709,-7.5709,-7.5865,-7.6508,-7.6747,-7.6747,-7.6747,-7.7336,-7.7822,-7.7424,-7.8376,-7.9691,-8.044,-8.116,-8.1782,-8.2121,-8.2186,-8.2186,-8.2186,-8.2186,-8.2186,-8.2186,-8.2186,-8.2186,-8.2186,-8.2186,-8.2774,-8.4389,-8.4609,-8.5233,-8.6848,-8.6995,-8.6995,-8.6995,-8.6995,-8.6995,-8.6995,-8.7646,-8.8388,-8.9069,-8.9763,-9.0447,-9.121,-9.121,-9.121,-9.121,-9.121,-9.121,-9.121,-9.121,-9.121,-2.3407,-2.3487,0.0,-2.6032,-2.8208,0.0,-3.2325,0.0,0.0,0.0,0.0,0.0,0.0,0.0,0.0,0.0,0.0,0.0,0.0,-4.6755,0.0,0.0,-4.786,-4.908,0.0,-5.2051,-5.3623,-5.5078,-5.5651,-5.6183,-5.6991,-5.7807,-5.8919,-6.0469,-6.1629,-6.2881,-6.4461,-6.5193,-6.5942,-6.6812,-6.6812,-6.6812,-6.688,-6.8402,-6.9113,-6.918,-7.0669,-7.1312,-7.1312,-7.1312,-7.1312,-7.1312,-7.1312,-7.2191,-7.3477,-7.3477,-7.4424,-7.5709,-7.5709,-7.5709,-7.5709,-7.5709,-7.5709,-7.596,-7.6982,-7.7336,-7.7389,-7.7822,-7.8411,-7.8903,-7.8577,-7.9536,-8.0695,-8.1089,-8.1715,-8.2186,-8.2186,-8.2186,-8.2186,-8.2186,-8.2186,-8.2186,-8.2186,-8.2186,-8.2186,-8.2186,-8.2186,-8.2774,-8.4389,-8.4609,-8.5233,-8.6848,-8.6995,-8.6995,-8.6995,-8.6995,-8.7132,-8.7394,-8.807,-8.8746,-8.9426,-9.0116,-9.0838,-9.1672,-9.1364,-9.1364,-9.1672,-9.1364,-9.121,-9.121,-9.121,-9.121]},{"header":{"parameterUnit":"m.s-1","parameterCategory":1,"la1":30.6,"la2":29.2853,"lo1":-89.7004,"lo2":-87.6739,"dx":0.0162,"dy":0.0183,"nx":112,"ny":82,"refTime":"2023-02-05T06:00:00:Z","depth":0,"parameterNumber":3,"parameterNumberName":"V-component_of_WINDS"},"data":[0.0,0.0,0.0,0.0,0.0,0.0,0.0,0.0,0.0,0.0,0.0,0.0,0.0,0.0,0.0,0.0,0.0,0.0,0.0,0.0,0.0,0.0,0.0,0.0,0.0,0.0,0.0,0.0,0.0,0.0,0.0,0.0,0.0,0.0,0.0,0.0,0.0,0.0,0.0,0.0,0.0,0.0,0.0,0.0,0.0,0.0,0.0,0.0,0.0,0.0,0.0,0.0,0.0,0.0,0.0,0.0,0.0,0.0,0.0,0.0,0.0,0.0,0.0,0.0,0.0,0.0,0.0,0.0,0.0,0.0,0.0,0.0,0.0,0.0,0.0,0.0,0.0,0.0,0.0,0.0,0.0,0.0,0.0,0.0,0.0,0.0,0.0,0.0,0.0,0.0,-2.8136,-2.8136,-2.6418,-2.5032,-2.4166,-2.2611,-2.0529,-1.7413,0.0,0.0,0.0,0.0,0.0,0.0,0.0,0.0,0.0,0.0,0.0,0.0,0.0,0.0,0.0,0.0,0.0,0.0,0.0,0.0,0.0,0.0,0.0,0.0,0.0,0.0,0.0,0.0,0.0,0.0,0.0,0.0,0.0,0.0,0.0,0.0,0.0,0.0,0.0,0.0,0.0,0.0,0.0,0.0,0.0,0.0,0.0,0.0,0.0,0.0,0.0,0.0,0.0,0.0,0.0,0.0,0.0,0.0,0.0,0.0,0.0,0.0,0.0,0.0,0.0,0.0,0.0,0.0,0.0,0.0,0.0,0.0,0.0,0.0,0.0,0.0,0.0,0.0,0.0,0.0,0.0,0.0,0.0,0.0,0.0,0.0,0.0,0.0,0.0,0.0,0.0,0.0,0.0,0.0,0.0,0.0,0.0,0.0,0.0,0.0,0.0,0.0,0.0,0.0,-2.8136,-2.8136,-2.7799,-2.6066,-2.2084,-2.3298,-2.1577,-1.5168,0.0,0.0,0.0,0.0,0.0,0.0,0.0,0.0,0.0,0.0,0.0,0.0,0.0,0.0,0.0,0.0,0.0,0.0,0.0,0.0,0.0,0.0,0.0,0.0,0.0,0.0,0.0,0.0,0.0,0.0,0.0,0.0,0.0,0.0,0.0,0.0,0.0,0.0,0.0,0.0,0.0,0.0,0.0,0.0,0.0,0.0,0.0,0.0,0.0,0.0,0.0,0.0,0.0,0.0,0.0,0.0,0.0,0.0,0.0,0.0,0.0,0.0,0.0,0.0,0.0,0.0,0.0,0.0,0.0,0.0,0.0,0.0,0.0,0.0,0.0,0.0,0.0,0.0,0.0,0.0,0.0,0.0,0.0,0.0,0.0,0.0,0.0,0.0,0.0,0.0,0.0,0.0,0.0,0.0,0.0,0.0,0.0,0.0,0.0,0.0,0.0,0.0,0.0,-2.8136,-2.8136,-2.8136,-2.8136,-2.7279,-2.5191,-2.485,-2.2783,-1.8287,-1.7938,0.0,0.0,0.0,0.0,0.0,0.0,0.0,0.0,0.0,0.0,0.0,0.0,0.0,0.0,0.0,0.0,0.0,0.0,0.0,0.0,0.0,0.0,0.0,0.0,0.0,0.0,0.0,0.0,0.0,0.0,0.0,0.0,0.0,0.0,0.0,0.0,0.0,0.0,0.0,0.0,0.0,0.0,0.0,0.0,0.0,0.0,0.0,0.0,0.0,0.0,0.0,0.0,0.0,0.0,0.0,0.0,0.0,0.0,0.0,0.0,0.0,0.0,0.0,0.0,0.0,0.0,0.0,0.0,0.0,0.0,0.0,0.0,0.0,0.0,0.0,0.0,0.0,0.0,0.0,0.0,0.0,0.0,0.0,0.0,0.0,0.0,0.0,0.0,0.0,0.0,0.0,0.0,0.0,0.0,0.0,0.0,0.0,0.0,0.0,0.0,0.0,0.0,-2.8136,-2.8136,-2.8136,-2.8136,-2.7968,-2.7448,-2.6236,-2.3995,-2.0702,-1.9315,0.0,0.0,0.0,0.0,0.0,0.0,0.0,0.0,0.0,0.0,0.0,0.0,0.0,0.0,0.0,0.0,0.0,0.0,0.0,0.0,0.0,0.0,0.0,0.0,0.0,0.0,0.0,0.0,0.0,0.0,0.0,0.0,0.0,0.0,0.0,0.0,0.0,0.0,0.0,0.0,0.0,0.0,0.0,0.0,0.0,0.0,0.0,0.0,0.0,0.0,0.0,0.0,0.0,0.0,0.0,0.0,0.0,0.0,0.0,0.0,0.0,0.0,0.0,0.0,0.0,0.0,0.0,0.0,0.0,0.0,0.0,0.0,0.0,0.0,0.0,0.0,0.0,0.0,0.0,0.0,0.0,0.0,0.0,0.0,0.0,0.0,0.0,0.0,0.0,0.0,0.0,0.0,0.0,0.0,0.0,0.0,0.0,0.0,0.0,0.0,0.0,0.0,-2.8136,-2.8136,-2.8136,-2.8136,-2.7279,-2.5203,-2.6758,-2.5191,-1.8453,-1.9836,0.0,0.0,0.0,0.0,0.0,0.0,0.0,0.0,0.0,0.0,0.0,0.0,0.0,0.0,0.0,0.0,0.0,0.0,0.0,0.0,0.0,0.0,0.0,0.0,0.0,0.0,0.0,0.0,0.0,0.0,0.0,0.0,0.0,0.0,0.0,0.0,0.0,0.0,0.0,0.0,0.0,0.0,0.0,0.0,0.0,0.0,0.0,0.0,0.0,0.0,0.0,0.0,0.0,0.0,0.0,0.0,0.0,0.0,0.0,0.0,0.0,0.0,0.0,0.0,0.0,0.0,0.0,0.0,0.0,0.0,0.0,0.0,0.0,0.0,0.0,0.0,0.0,0.0,0.0,0.0,0.0,0.0,0.0,0.0,0.0,0.0,0.0,0.0,0.0,0.0,0.0,0.0,0.0,0.0,0.0,0.0,0.0,0.0,0.0,0.0,0.0,0.0,-2.8136,-2.8136,-2.8136,-2.8136,-2.7799,-2.6927,-2.6418,-2.4337,-2.0183,0.0,0.0,0.0,0.0,0.0,0.0,0.0,0.0,0.0,0.0,0.0,0.0,0.0,0.0,0.0,0.0,0.0,0.0,0.0,0.0,0.0,0.0,0.0,0.0,0.0,0.0,0.0,0.0,0.0,0.0,0.0,0.0,0.0,0.0,0.0,0.0,0.0,0.0,0.0,0.0,0.0,0.0,0.0,0.0,0.0,0.0,0.0,0.0,0.0,0.0,0.0,0.0,0.0,0.0,0.0,0.0,0.0,0.0,0.0,0.0,0.0,0.0,0.0,0.0,0.0,0.0,0.0,0.0,0.0,0.0,0.0,0.0,0.0,0.0,0.0,0.0,0.0,0.0,0.0,0.0,0.0,0.0,0.0,0.0,0.0,0.0,0.0,0.0,0.0,0.0,0.0,0.0,0.0,0.0,0.0,0.0,0.0,0.0,0.0,0.0,0.0,0.0,-2.8136,-2.8136,-2.8136,-2.8136,-2.8136,-2.8136,-2.8136,-2.6758,-2.4508,-2.1394,0.0,0.0,0.0,0.0,0.0,0.0,0.0,0.0,0.0,0.0,0.0,0.0,0.0,0.0,0.0,0.0,0.0,0.0,0.0,0.0,0.0,0.0,0.0,0.0,0.0,0.0,0.0,0.0,0.0,0.0,0.0,0.0,0.0,0.0,0.0,0.0,0.0,0.0,0.0,0.0,0.0,0.0,0.0,0.0,0.0,0.0,0.0,0.0,0.0,0.0,0.0,0.0,0.0,0.0,0.0,0.0,0.0,0.0,0.0,0.0,0.0,0.0,0.0,0.0,0.0,0.0,0.0,0.0,0.0,0.0,0.0,0.0,0.0,0.0,0.0,0.0,0.0,0.0,0.0,0.0,0.0,0.0,0.0,0.0,0.0,0.0,0.0,0.0,0.0,0.0,0.0,0.0,0.0,0.0,0.0,0.0,0.0,0.0,0.0,0.0,0.0,0.0,-2.8136,-2.8136,-2.8136,-2.8136,-2.8136,-2.8136,-2.8136,-2.8136,-2.6236,0.0,0.0,0.0,0.0,0.0,0.0,0.0,0.0,0.0,0.0,0.0,0.0,0.0,0.0,0.0,0.0,0.0,0.0,0.0,0.0,0.0,0.0,0.0,0.0,0.0,0.0,0.0,0.0,0.0,0.0,0.0,0.0,0.0,0.0,0.0,0.0,0.0,0.0,0.0,0.0,0.0,0.0,0.0,0.0,0.0,0.0,0.0,0.0,0.0,0.0,0.0,0.0,0.0,0.0,0.0,0.0,0.0,0.0,0.0,0.0,0.0,0.0,0.0,0.0,0.0,0.0,0.0,0.0,0.0,0.0,0.0,0.0,0.0,0.0,0.0,0.0,0.0,0.0,0.0,0.0,0.0,0.0,0.0,0.0,0.0,0.0,0.0,0.0,0.0,0.0,0.0,0.0,0.0,0.0,0.0,0.0,0.0,0.0,0.0,0.0,0.0,0.0,0.0,-2.8136,-2.8136,-2.8136,-2.8136,-2.8136,-2.8136,-2.8136,-2.8136,-2.6236,-2.1566,0.0,0.0,0.0,0.0,0.0,0.0,0.0,0.0,0.0,0.0,0.0,0.0,0.0,0.0,0.0,0.0,0.0,0.0,0.0,0.0,0.0,0.0,0.0,0.0,0.0,0.0,0.0,0.0,0.0,0.0,0.0,0.0,0.0,0.0,0.0,0.0,0.0,0.0,0.0,0.0,0.0,0.0,0.0,0.0,0.0,0.0,0.0,0.0,0.0,0.0,0.0,0.0,0.0,0.0,0.0,0.0,0.0,0.0,0.0,0.0,0.0,0.0,0.0,0.0,0.0,0.0,0.0,0.0,0.0,0.0,0.0,0.0,0.0,0.0,0.0,0.0,0.0,0.0,0.0,0.0,0.0,0.0,0.0,0.0,0.0,0.0,0.0,0.0,0.0,0.0,0.0,0.0,0.0,0.0,0.0,0.0,0.0,0.0,0.0,0.0,0.0,0.0,-2.8136,-2.8136,-2.8136,-2.8136,-2.8136,-2.8136,-2.8136,-2.8136,-2.6575,-2.2783,0.0,0.0,0.0,0.0,0.0,0.0,0.0,0.0,0.0,0.0,0.0,0.0,0.0,0.0,0.0,0.0,0.0,0.0,0.0,0.0,0.0,0.0,0.0,0.0,0.0,0.0,0.0,0.0,0.0,0.0,0.0,0.0,0.0,0.0,0.0,0.0,0.0,0.0,0.0,0.0,0.0,0.0,0.0,0.0,0.0,0.0,0.0,0.0,0.0,0.0,0.0,0.0,0.0,0.0,0.0,0.0,0.0,0.0,0.0,0.0,0.0,0.0,0.0,0.0,0.0,0.0,0.0,0.0,0.0,0.0,0.0,0.0,0.0,0.0,0.0,0.0,0.0,0.0,0.0,0.0,0.0,0.0,0.0,0.0,0.0,0.0,0.0,0.0,0.0,0.0,0.0,0.0,0.0,0.0,0.0,0.0,0.0,0.0,0.0,0.0,0.0,0.0,-2.8136,-2.8136,-2.8136,-2.8136,-2.8136,-2.8136,-2.8136,-2.8136,-2.7279,-2.4861,0.0,0.0,0.0,0.0,0.0,0.0,0.0,0.0,0.0,0.0,0.0,0.0,0.0,0.0,0.0,0.0,0.0,0.0,0.0,0.0,0.0,0.0,0.0,0.0,0.0,0.0,0.0,0.0,0.0,0.0,0.0,0.0,0.0,0.0,0.0,0.0,0.0,0.0,0.0,0.0,0.0,0.0,0.0,0.0,0.0,0.0,0.0,0.0,0.0,0.0,0.0,0.0,0.0,0.0,0.0,0.0,0.0,0.0,0.0,0.0,-4.8632,0.0,0.0,0.0,0.0,0.0,0.0,0.0,0.0,0.0,0.0,0.0,0.0,0.0,0.0,0.0,0.0,0.0,0.0,0.0,0.0,0.0,0.0,0.0,0.0,0.0,0.0,0.0,0.0,0.0,0.0,0.0,0.0,0.0,0.0,0.0,0.0,0.0,0.0,0.0,0.0,0.0,-2.8136,-2.8136,-2.8136,-2.8136,-2.8136,-2.8136,-2.8136,-2.8136,-2.7279,-2.4861,-2.4166,0.0,0.0,0.0,0.0,0.0,0.0,0.0,0.0,0.0,0.0,0.0,0.0,0.0,0.0,0.0,0.0,0.0,0.0,0.0,0.0,0.0,0.0,0.0,0.0,0.0,0.0,0.0,0.0,0.0,0.0,0.0,0.0,0.0,0.0,0.0,0.0,0.0,0.0,0.0,0.0,0.0,0.0,0.0,0.0,0.0,0.0,0.0,0.0,0.0,0.0,0.0,0.0,0.0,0.0,0.0,0.0,0.0,0.0,0.0,0.0,-4.8944,0.0,0.0,0.0,0.0,0.0,0.0,0.0,0.0,0.0,0.0,0.0,0.0,0.0,0.0,0.0,0.0,0.0,0.0,0.0,0.0,0.0,0.0,0.0,0.0,0.0,0.0,0.0,0.0,0.0,0.0,0.0,0.0,0.0,0.0,0.0,0.0,0.0,0.0,0.0,0.0,-2.8136,-2.8136,-2.8136,-2.8136,-2.8136,-2.8136,-2.8136,-2.8136,-2.763,-2.6418,-2.5373,0.0,0.0,0.0,0.0,0.0,0.0,0.0,0.0,0.0,0.0,0.0,0.0,0.0,0.0,0.0,0.0,0.0,0.0,0.0,0.0,0.0,0.0,0.0,0.0,0.0,0.0,0.0,0.0,0.0,0.0,0.0,0.0,0.0,0.0,0.0,0.0,0.0,0.0,0.0,0.0,0.0,0.0,0.0,0.0,0.0,0.0,0.0,0.0,0.0,0.0,0.0,0.0,0.0,-5.3064,-5.2578,-5.1989,-5.0664,-4.9822,-4.959,-4.959,-4.9249,-4.8803,-4.8368,0.0,0.0,0.0,0.0,0.0,0.0,0.0,0.0,0.0,0.0,0.0,0.0,0.0,0.0,0.0,0.0,0.0,0.0,0.0,0.0,0.0,0.0,0.0,0.0,-3.4164,-3.4651,-3.2381,0.0,0.0,0.0,0.0,0.0,0.0,0.0,0.0,0.0,0.0,0.0,-2.8136,-2.8136,-2.8136,-2.8136,-2.8136,-2.8136,-2.8136,-2.8136,-2.8136,-2.8136,-2.6418,-2.5203,0.0,0.0,0.0,0.0,0.0,0.0,0.0,0.0,0.0,0.0,0.0,0.0,0.0,0.0,0.0,0.0,0.0,0.0,0.0,0.0,0.0,0.0,0.0,0.0,0.0,0.0,0.0,0.0,0.0,0.0,0.0,0.0,-5.3427,-5.473,0.0,0.0,0.0,0.0,0.0,0.0,0.0,0.0,0.0,0.0,0.0,0.0,0.0,-5.476,-5.4362,-5.5811,-5.5771,-5.4276,-5.5503,-5.4713,-5.1989,-5.1741,-5.0916,-4.959,-4.959,0.0,-5.0846,-4.8964,0.0,0.0,0.0,0.0,0.0,0.0,0.0,0.0,0.0,0.0,0.0,0.0,0.0,0.0,0.0,0.0,0.0,0.0,0.0,0.0,0.0,0.0,-4.0197,-4.0021,-3.8706,-3.6922,0.0,-3.1241,-2.8473,-2.8305,-2.8136,0.0,0.0,0.0,0.0,0.0,0.0,0.0,-2.8136,-2.8136,-2.8136,-2.8136,-2.8136,-2.8136,-2.8136,-2.8136,-2.8136,-2.8136,-2.7968,-2.6758,-2.4861,-2.4349,0.0,0.0,0.0,0.0,0.0,0.0,0.0,0.0,0.0,0.0,0.0,0.0,0.0,0.0,0.0,0.0,0.0,0.0,0.0,0.0,0.0,0.0,0.0,0.0,0.0,0.0,0.0,0.0,0.0,-5.2529,-5.3427,-5.473,-5.4451,-5.443,0.0,0.0,0.0,0.0,0.0,0.0,0.0,0.0,0.0,-5.5179,-5.5179,-5.5291,-5.5554,-5.6571,-5.6906,-5.647,-5.6676,-5.6022,-5.4595,-5.2795,-5.1616,-5.0916,-4.995,-5.0243,-5.1272,-5.0394,-5.0627,-5.1303,0.0,0.0,0.0,0.0,-4.4977,-4.4096,-4.4096,-4.2769,-4.1172,-4.1172,0.0,0.0,0.0,0.0,0.0,0.0,0.0,0.0,0.0,0.0,-3.9374,-3.9374,-3.8548,-3.6922,-3.3512,-3.1407,-2.9607,0.0,-2.8136,-2.8136,-2.8136,0.0,0.0,0.0,0.0,-2.8136,-2.8136,-2.8136,-2.8136,-2.8136,-2.8136,-2.8136,-2.8136,-2.8136,-2.8136,-2.8136,-2.8136,-2.7799,-2.6758,-2.5373,-2.3824,0.0,0.0,0.0,0.0,0.0,0.0,0.0,0.0,0.0,0.0,0.0,0.0,0.0,0.0,0.0,0.0,0.0,0.0,0.0,0.0,0.0,0.0,0.0,0.0,0.0,0.0,0.0,0.0,-5.3233,-5.3703,-5.5187,-5.4947,-5.4805,0.0,0.0,0.0,0.0,0.0,0.0,-5.5179,-5.5179,-5.5179,-5.5179,-5.5179,-5.5598,-5.6406,-5.6855,-5.7513,-5.8381,-5.768,-5.7075,-5.6593,-5.424,-5.2822,-5.1989,-5.079,-5.0608,-5.1272,-5.1272,-5.1925,-5.2767,-5.0717,-5.0269,-5.0551,-4.8506,-4.6882,-4.5552,-4.4977,-4.3511,-4.1907,-4.1308,-4.1172,-4.1172,-4.1172,0.0,0.0,0.0,0.0,-3.904,-4.0841,-4.0021,-3.8724,-3.8724,-3.7896,-3.6104,-3.2858,-3.1407,-3.0093,0.0,-2.8136,-2.8136,-2.8136,0.0,0.0,0.0,0.0,-2.8136,-2.8136,-2.8136,-2.8136,-2.8136,-2.8136,-2.8136,-2.8136,-2.8136,-2.8136,-2.8136,-2.8136,-2.8136,-2.8136,-2.6588,-2.5373,-2.4691,0.0,0.0,0.0,0.0,0.0,0.0,0.0,0.0,0.0,0.0,0.0,0.0,0.0,0.0,0.0,0.0,0.0,0.0,0.0,0.0,0.0,0.0,0.0,0.0,0.0,0.0,0.0,0.0,0.0,-5.6225,-5.5097,0.0,0.0,0.0,0.0,-5.5179,-5.5179,-5.5179,-5.5179,-5.5179,-5.5179,-5.5179,-5.5179,-5.5777,-5.7034,-5.7064,-5.7752,-5.9069,-5.8961,-5.8166,-5.6736,-5.648,-5.4831,-5.1989,-5.1865,-5.1689,-5.1272,-5.1272,-5.1925,-5.2767,-5.0717,-5.1138,-5.2491,-5.0551,-4.9819,-4.9391,-4.7467,-4.5574,-4.3663,-4.1753,-4.1172,-4.1172,-4.1172,-4.1172,0.0,0.0,-4.1172,-4.1016,-4.1172,-4.1172,-4.1016,-4.1016,-3.7896,-3.4813,-3.4651,-3.1241,-2.8305,0.0,-2.8136,-2.8136,-2.8136,0.0,-2.8136,-2.8136,-2.8136,-2.8136,-2.8136,-2.8136,-2.8136,-2.8136,-2.8136,-2.8136,-2.8136,-2.8136,-2.8136,-2.8136,-2.8136,-2.8136,-2.8136,-2.8136,-2.6927,-2.4691,-2.452,0.0,0.0,0.0,0.0,0.0,0.0,0.0,0.0,0.0,0.0,0.0,0.0,0.0,0.0,0.0,0.0,0.0,0.0,0.0,0.0,0.0,0.0,0.0,0.0,0.0,0.0,0.0,0.0,-5.4483,-5.5627,0.0,-5.532,-5.5179,-5.5179,-5.5179,-5.5179,-5.5179,-5.5179,-5.5179,-5.5179,-5.5179,-5.5179,-5.5807,-5.7094,-5.7094,-5.7782,-5.9099,-5.9099,-5.8743,-5.8166,-5.7187,-5.556,-5.3429,-5.2455,-5.1689,-5.1272,-5.1272,-5.1925,-5.2792,-5.2189,-5.2327,-5.2792,-5.2189,-5.0998,-4.9961,-4.9224,-4.6735,-4.3794,-4.1753,-4.1172,-4.1172,-4.1172,-4.1172,-4.1172,-4.1172,-4.1172,-4.1172,-4.1172,-4.1172,-4.1172,-4.1172,-4.0021,-3.8073,-3.5298,-3.3512,-3.1572,-2.8796,-2.8136,-2.8136,-2.8136,-2.8136,-2.8136,-2.8136,-2.8136,-2.8136,-2.8136,-2.8136,-2.8136,-2.8136,-2.8136,-2.8136,-2.8136,-2.8136,-2.8136,-2.8136,-2.8136,-2.8136,-2.8136,-2.8136,-2.7799,-2.6927,-2.6927,-2.502,0.0,0.0,0.0,0.0,0.0,0.0,0.0,0.0,0.0,0.0,0.0,0.0,0.0,0.0,0.0,0.0,0.0,0.0,0.0,0.0,0.0,0.0,0.0,0.0,0.0,0.0,-5.6413,-5.4514,-5.6184,-5.684,-5.532,-5.5179,-5.5179,-5.5179,-5.5179,-5.5179,-5.5179,-5.5179,-5.5179,-5.5179,-5.5179,-5.5807,-5.7094,-5.7094,-5.7782,-5.9099,-5.9099,-5.9099,-5.9099,-5.8026,-5.6394,-5.4268,-5.3308,-5.2297,-5.1272,-5.1272,-5.1925,-5.2929,-5.2929,-5.2929,-5.2929,-5.2929,-5.205,-5.0857,-5.0269,-4.7467,-4.3945,-4.2637,-4.1753,-4.1172,-4.1172,-4.1172,-4.1172,-4.1172,-4.1172,-4.1172,-4.1172,-4.1172,-4.1172,-4.1172,-4.0685,-3.9374,-3.6442,-3.4651,-3.271,-2.9774,-2.8628,-2.8136,-2.8136,-2.8136,-2.8136,-2.8136,-2.8136,-2.8136,-2.8136,-2.8136,-2.8136,-2.8136,-2.8136,-2.8136,-2.8136,-2.8136,-2.8136,-2.8136,-2.8136,-2.8136,-2.8136,-2.8136,-2.8136,-2.8136,-2.7448,-2.502,-2.1221,0.0,0.0,0.0,0.0,0.0,0.0,0.0,0.0,0.0,0.0,0.0,0.0,0.0,0.0,0.0,0.0,0.0,0.0,0.0,0.0,0.0,0.0,0.0,-5.636,-5.6561,-5.6701,-5.6495,-5.6866,-5.6541,-5.528,-5.5179,-5.5179,-5.5179,-5.5179,-5.5179,-5.5179,-5.5179,-5.5179,-5.5179,-5.5179,-5.5807,-5.7094,-5.7094,-5.7782,-5.9099,-5.9099,-5.9099,-5.9099,-5.9099,-5.744,-5.4505,-5.4386,-5.3272,-5.1405,-5.1272,-5.1925,-5.2929,-5.2929,-5.2929,-5.2929,-5.2929,-5.2929,-5.2629,-5.0693,-4.7467,-4.4247,-4.4096,-4.2769,-4.1327,-4.1172,-4.1172,-4.1172,-4.1172,-4.1172,-4.1172,-4.1172,-4.1172,-4.1172,-4.1172,-3.9531,-3.8054,-3.7896,-3.4489,-3.1557,-3.1392,-2.9607,-2.8136,-2.8136,-2.8136,-2.8136,-2.8136,-2.8136,0.0,-2.8136,-2.8136,-2.8136,-2.8136,-2.8136,-2.8136,-2.8136,-2.8136,-2.8136,-2.8136,-2.8136,-2.8136,-2.8136,-2.8136,-2.8136,-2.8136,-2.5896,-2.3481,-2.1221,0.0,0.0,0.0,0.0,0.0,0.0,0.0,0.0,0.0,0.0,0.0,0.0,0.0,0.0,0.0,0.0,0.0,0.0,0.0,0.0,0.0,0.0,-5.748,-5.636,-5.7885,-5.8216,-5.5642,-5.705,-5.7465,-5.5381,-5.5179,-5.5179,-5.5179,-5.5179,-5.5179,-5.5179,-5.5179,-5.5179,-5.5179,-5.5179,-5.5807,-5.7094,-5.7094,-5.7782,-5.9099,-5.9099,-5.9099,-5.9099,-5.9099,-5.8026,-5.6022,-5.4859,-5.3862,-5.2855,-5.1778,-5.1925,-5.2929,-5.2929,-5.2929,-5.2929,-5.2929,-5.2929,-5.2629,-5.0693,-4.9224,-4.7904,-4.4977,-4.3794,-4.3075,-4.1618,-4.1172,-4.1172,-4.1172,-4.1172,-4.1172,-4.1172,-4.1172,-4.1172,-4.1172,-4.0685,-3.9864,-3.8231,-3.5782,-3.3349,-3.1722,-2.9607,-2.8136,-2.8136,-2.8136,-2.8136,-2.8136,-2.8136,0.0,-2.8136,-2.8136,-2.8136,-2.8136,-2.8136,-2.8136,-2.8136,-2.8136,-2.8136,-2.8136,-2.8136,-2.8136,-2.8136,-2.8136,-2.8136,-2.8136,-2.5896,-2.3481,0.0,0.0,0.0,0.0,0.0,0.0,0.0,0.0,0.0,0.0,0.0,0.0,0.0,0.0,0.0,0.0,0.0,0.0,0.0,0.0,0.0,0.0,-5.7137,-5.7628,-5.7039,-5.8724,-5.9164,-5.6614,-5.7771,-5.8085,-5.6183,-5.5451,-5.5179,-5.5179,-5.5179,-5.5179,-5.5179,-5.5179,-5.5179,-5.5179,-5.5179,-5.5807,-5.7094,-5.7094,-5.7782,-5.9099,-5.9099,-5.9099,-5.9099,-5.9099,-5.8276,-5.6593,-5.5791,-5.4688,-5.3576,-5.262,-5.2546,0.0,0.0,0.0,0.0,0.0,-5.2929,-5.2767,-5.1607,-5.0127,-4.8361,-4.5998,-4.4247,-4.2637,-4.1618,-4.1172,-4.1211,-4.1387,-4.1426,-4.1484,-4.166,-4.1699,-4.1699,-4.1699,-4.1562,-4.1112,-3.9794,-3.7685,-3.546,-3.3186,-3.1076,0.0,-2.8305,-2.8136,-2.8136,-2.8136,-2.8136,-2.8136,-2.8136,-2.8136,-2.8136,-2.8136,-2.8136,-2.8136,-2.8136,-2.8136,0.0,0.0,0.0,-2.8136,-2.8136,-2.8136,0.0,0.0,0.0,-2.2084,-1.9836,0.0,0.0,0.0,-1.4475,-1.4584,0.0,0.0,0.0,0.0,0.0,0.0,0.0,0.0,0.0,0.0,0.0,0.0,0.0,0.0,0.0,0.0,-5.7408,-5.7915,-5.8017,-5.9201,-5.9665,-5.8459,-5.8734,-5.8451,-5.7181,-5.5986,-5.5381,-5.5179,-5.5179,-5.5179,-5.5179,0.0,0.0,0.0,0.0,-5.5807,-5.7094,-5.7094,-5.7782,-5.9099,-5.9099,-5.9099,-5.9099,-5.9099,-5.8276,-5.6962,-5.6736,-5.5765,-5.406,-5.3704,-5.3266,-5.2929,-5.2929,-5.2929,-5.2929,-5.2929,-5.2929,-5.2929,-5.2929,0.0,0.0,-4.7467,-4.4849,-4.1753,-4.1618,-4.1308,-4.125,-4.168,-4.1797,-4.1894,-4.2324,-4.2422,-4.2422,-4.2422,-4.2148,-4.1875,-4.1875,-3.9926,-3.7543,-3.5595,-3.3116,-3.0803,-2.9006,-2.8332,-2.8136,-2.8136,-2.8136,-2.8136,-2.8136,-2.8136,-2.8136,-2.8136,0.0,0.0,-2.8136,-2.8136,-2.8136,-2.8136,-2.8136,-2.8136,-2.8136,-2.8136,-2.7279,-2.5203,-2.2804,-2.0558,-1.8139,-1.6046,-1.4723,-1.4563,-1.4563,-1.4713,0.0,0.0,0.0,0.0,0.0,0.0,0.0,0.0,0.0,0.0,0.0,0.0,0.0,0.0,0.0,-5.6799,-5.7408,-5.8084,-5.8693,-5.9539,-5.9665,-5.8459,-5.9446,-5.9434,-5.7245,-5.68,-5.628,-5.528,-5.5179,-5.5179,-5.5179,-5.5179,-5.5179,-5.5179,-5.5179,-5.5807,-5.7094,-5.7094,-5.7782,-5.9099,0.0,0.0,-5.9099,-5.9099,-5.8991,-5.8525,-5.7299,-5.7081,-5.7366,-5.4692,-5.3266,-5.2929,-5.2929,-5.2929,-5.2929,-5.2929,-5.2929,-5.2929,-5.2929,-5.2352,-5.1443,-4.9961,-4.7759,-4.5574,-4.3945,-4.2483,0.0,-4.168,-4.1797,-4.1894,-4.2324,-4.2422,-4.2422,-4.2422,-4.2363,-4.2305,-4.2305,-4.0565,-3.8852,-3.8345,-3.4783,-3.1781,-3.1292,-2.9607,-2.8136,-2.8136,-2.8136,-2.8136,-2.8136,-2.8136,-2.8136,-2.8136,-2.8136,-2.8136,-2.8136,-2.8136,-2.8136,-2.8136,-2.8136,-2.8136,-2.8136,-2.8136,-2.7968,-2.7448,-2.5395,-2.3065,-2.0618,-1.8535,-1.656,-1.4882,-1.4882,-1.4916,0.0,0.0,0.0,0.0,0.0,0.0,0.0,0.0,0.0,0.0,0.0,-5.7588,0.0,0.0,-5.7397,-5.7345,-5.7645,-5.8152,-5.8896,-5.9641,-5.9987,-5.9777,-6.0291,-5.987,-5.8085,-5.7339,-5.6541,-5.528,-5.5179,-5.5179,-5.5179,-5.5179,-5.5179,-5.5179,-5.5179,-5.5807,-5.7094,-5.7094,-5.7782,-5.9099,-5.9099,-5.9099,-5.9099,-5.9099,-5.9099,-5.9099,-5.8276,-5.8169,-5.8284,-5.5564,-5.3915,-5.2929,-5.2929,-5.2929,-5.2929,-5.2929,-5.2929,-5.2929,-5.2929,-5.2189,-5.1303,-5.0269,-4.7904,-4.5425,-4.4377,-4.2932,-4.1562,-4.1992,-4.2266,-4.2539,-4.2949,-4.3066,-4.3066,-4.3066,-4.291,-4.2754,-4.2754,-4.1733,-4.0409,-3.9413,-3.624,-3.3457,-3.2478,-3.0184,-2.8484,-2.819,-2.8136,-2.8136,-2.8136,-2.8136,-2.8136,-2.8136,-2.8283,-2.8377,-2.8377,-2.8511,-2.8591,-2.8591,-2.8591,-2.8591,-2.8591,-2.8591,-2.8063,-2.7005,-2.4661,-2.2246,-1.9953,-1.7656,-1.5986,-1.497,-1.5045,-1.5079,0.0,0.0,0.0,0.0,0.0,0.0,0.0,0.0,-5.9685,-6.0456,-6.0071,-5.9473,-5.9419,-5.8794,-5.8185,-5.7925,-5.8017,-5.8355,-5.9133,-5.9877,-6.0622,-6.1434,-6.1146,-6.0417,-5.8902,-5.79,-5.6704,-5.528,-5.5179,-5.5179,-5.5179,-5.5179,-5.5179,-5.5179,-5.5179,-5.5807,-5.7094,-5.7094,-5.7782,-5.9099,-5.9099,-5.9099,-5.9099,-5.9099,-5.9099,-5.9129,-5.9011,-5.8629,-5.7837,-5.6057,-5.4433,-5.2929,-5.2929,-5.2929,-5.2929,-5.2929,-5.2929,-5.2929,-5.2929,-5.1886,-5.0551,-5.0127,-4.7613,-4.4527,-4.4226,-4.3095,-4.1894,-4.2305,-4.2734,-4.3183,-4.3594,-4.3711,-4.3711,-4.3711,-4.3437,-4.3203,-4.3203,-4.293,-4.2172,-4.0488,-3.7726,-3.5336,-3.3507,-3.0937,-2.8871,-2.839,-2.8323,-2.8323,-2.8323,-2.8323,-2.8323,-2.8323,-2.8537,-2.8684,-2.8684,-2.8911,-2.9045,-2.9045,-2.9045,-2.9045,-2.9045,-2.9045,-2.8147,-2.6345,-2.3897,-2.178,-1.9806,-1.7118,-1.5746,-1.5746,-1.5313,-1.5181,-6.0647,-6.0647,-6.0533,-6.0132,-6.0194,-6.0304,0.0,0.0,-6.0493,-6.13,-6.082,-6.03,-6.0271,-5.9564,-5.8703,-5.7993,-5.8457,-5.9133,-5.9877,-6.0655,-6.1434,-6.2178,-6.2234,-6.1317,-5.8992,-5.8722,-5.7621,-5.5381,-5.5179,-5.5179,-5.5179,-5.5179,-5.5179,-5.5179,-5.5179,-5.5807,-5.7094,-5.7094,-5.7782,-5.9099,-5.9099,-5.9099,-5.9099,-5.9099,-5.9099,-5.905,-5.8749,-5.7729,-5.6237,-5.5698,-5.4433,-5.2929,-5.2929,-5.2929,-5.2929,-5.2929,-5.2929,-5.2929,-5.2929,-5.2792,-5.2327,-5.0551,-4.8506,-4.6293,-4.4677,-4.3095,-4.1894,-4.2305,-4.2734,-4.3183,-4.3594,-4.3711,-4.3711,-4.3711,-4.3672,-4.3633,-4.3633,-4.3594,-4.3555,-4.3225,-3.9509,-3.6236,-3.6067,-3.2087,-2.9018,-2.8951,-2.8938,-2.8938,-2.8938,-2.8938,-2.8938,-2.8938,-2.8965,-2.8991,-2.8991,-2.9018,-2.9045,-2.9045,-2.9045,-2.9045,-2.9045,-2.9045,-2.8857,-2.8683,-2.6411,-2.5259,-2.4901,-2.0575,-1.8474,-1.8474,-1.6284,-1.5181,-6.1396,-6.155,-6.1603,-6.1876,-6.1666,-6.143,-6.1693,-6.144,-6.1337,-6.2144,-6.2004,-6.1623,-6.1193,-6.0784,-6.0254,0.0,-5.9595,-6.0032,-6.0698,-6.1095,-6.1569,-6.2313,-6.2381,-6.148,-5.8992,-5.8177,-5.6991,-5.528,-5.5179,-5.5179,-5.5179,-5.5179,-5.5179,-5.5179,-5.5179,-5.5807,-5.7094,-5.7094,-5.7782,-5.9099,-5.9099,-5.9099,-5.9099,-5.9099,-5.9099,-5.905,-5.8666,-5.7485,-5.5991,-5.5568,-5.4433,-5.2929,-5.2929,-5.2929,-5.2929,-5.2929,-5.2929,-5.2929,-5.2929,-5.2929,-5.2792,-5.1886,-4.9534,-4.6882,-4.5998,-4.4008,-4.2207,-4.2383,-4.291,-4.3476,-4.3652,-4.3711,-4.3711,-4.3711,-4.3711,-4.3711,-4.3711,-4.3711,-4.3711,-4.3711,-3.9796,-3.6616,-3.6616,-3.2718,-2.9553,-2.9553,-2.9259,-2.9045,-2.9045,-2.9045,-2.9112,-2.9285,-2.9299,-2.9366,-2.9539,-2.9553,-2.9553,-2.9553,-2.9553,-2.9553,-2.9553,-2.9553,-2.9553,-2.9553,-2.73,-2.5343,-2.3881,-2.0483,-1.8135,-1.6658,-1.5737,-1.5181,-6.2243,-6.2435,-6.2551,-6.3166,-6.2833,-6.2513,-6.2974,-6.2636,-6.2266,-6.2745,-6.2805,-6.2567,-6.177,-6.1604,-6.1306,-6.0421,-6.0497,-6.077,-6.1249,-6.1467,-6.1806,-6.2347,-6.211,-6.1235,-5.9434,-5.8177,-5.68,-5.528,-5.5179,-5.5179,-5.5179,-5.5179,-5.5179,-5.5179,-5.5179,-5.5807,-5.7094,-5.7094,-5.7782,-5.9099,-5.9099,-5.9099,-5.9099,-5.9099,-5.9099,-5.905,-5.8666,-5.7485,-5.5991,-5.5568,-5.4433,-5.2929,-5.2929,-5.2929,-5.2929,-5.2929,-5.2929,-5.2929,-5.2929,-5.2929,-5.2792,-5.2327,-4.9819,-4.6904,-4.6448,-4.4544,-4.2461,-4.2578,-4.3144,-4.3711,-4.3711,-4.3711,-4.3711,-4.3711,-4.3711,-4.3711,-4.3711,-4.3711,-4.3711,-4.3711,-3.9921,-3.683,-3.683,-3.3028,-2.9913,-2.9913,-2.9553,-2.9285,-2.9285,-2.9285,-2.9366,-2.9579,-2.9606,-2.9686,-2.99,-2.9913,-2.9913,-2.9913,-2.9913,-2.9913,-2.9913,-2.9913,-2.9913,-2.9913,-2.8076,-2.6048,-2.3473,-2.1083,-1.8693,-1.6292,-1.5549,-1.5181,0.0,0.0,-6.3281,-6.3281,-6.3532,-6.3638,-6.3198,-6.3338,-6.3371,-6.2867,-6.2805,-6.2567,-6.177,-6.1604,-6.1306,-6.0421,-6.0947,-6.139,-6.1316,-6.1907,-6.2347,-6.2381,-6.1399,-6.0586,0.0,-5.9434,-5.7714,-5.5381,-5.5179,-5.5179,-5.5179,-5.5179,-5.5179,-5.5179,-5.5179,-5.5807,-5.7094,-5.7094,-5.7782,-5.9099,-5.9099,-5.9099,-5.9099,-5.9099,-5.9099,-5.905,-5.8666,-5.7485,-5.5991,-5.5568,-5.4433,-5.2929,-5.2929,-5.2929,-5.2929,-5.2929,-5.2929,-5.2929,-5.2929,-5.2929,-5.2629,-5.0717,-4.865,-4.6677,-4.5209,-4.3725,-4.2519,-4.2949,-4.3359,-4.3711,-4.3711,-4.3711,-4.3711,-4.3711,-4.3711,-4.3711,-4.3711,-4.3711,-4.3711,-4.3711,-3.9921,-3.683,-3.683,-3.3028,-2.9913,-2.9913,-2.99,-2.9887,-2.9887,-2.9887,-2.99,-2.99,-2.99,-2.99,-2.9913,-2.9913,-2.9913,-2.9913,-2.9913,-2.9913,-2.9913,-2.9913,-2.9913,-2.9913,-2.9913,-2.8629,-2.6048,-2.3666,-2.1267,-1.8685,-1.6292,-1.5181,0.0,0.0,-6.432,-6.4897,-6.4824,-6.461,-6.4448,-6.3991,-6.3543,-6.3363,-6.3062,-6.2705,-6.2464,-6.285,-6.2911,-6.1976,-6.2459,-6.2788,-6.2106,-6.2245,-6.2381,-6.2381,-6.203,0.0,0.0,0.0,0.0,-5.6445,-5.5651,-5.5179,-5.5179,-5.5179,-5.5179,-5.5179,-5.5179,-5.5807,-5.7094,-5.7094,-5.7782,-5.9099,-5.9099,-5.9099,-5.9099,-5.9099,-5.9099,-5.905,-5.8666,-5.7485,-5.5991,-5.5568,-5.4433,-5.2929,-5.2929,-5.2929,-5.2929,-5.2929,-5.2929,-5.2929,-5.2929,-5.2929,-5.2767,-5.2189,-4.9677,-4.6971,-4.6717,-4.4639,-4.2519,-4.2949,-4.3379,-4.3711,-4.3711,-4.3711,-4.3711,-4.3711,-4.3711,-4.3711,-4.3711,-4.3711,-4.3711,-4.3711,-4.1286,-3.8715,-3.7003,-3.4242,-3.1657,-3.0093,-2.9913,-2.9913,-2.9913,-2.9913,-2.9913,-2.9913,-2.9913,-2.9913,-2.9913,-2.9913,-2.9913,-2.9913,-2.9913,-2.9913,-2.9913,-2.9913,-2.9913,-2.9913,-2.8256,-2.6229,-2.3656,-2.1267,-1.8871,-1.6479,-1.5549,-1.5181,0.0,-6.5051,-6.5205,-6.5743,-6.5663,-6.5321,-6.513,-6.4626,-6.4019,-6.368,-6.3576,-6.3456,-6.3296,-6.3943,-6.431,-6.3607,-6.3894,-6.3917,-6.3021,-6.2855,-6.2736,-6.2459,-6.2381,-6.211,0.0,0.0,0.0,-5.7714,-5.6541,-5.5819,-5.5819,-5.5451,-5.5179,-5.5179,-5.5179,-5.5807,-5.7094,-5.7094,-5.7782,-5.9099,-5.9099,-5.9099,-5.9099,-5.9099,-5.9099,-5.905,-5.9295,-5.8108,-5.5991,-5.6212,-5.4942,-5.2929,-5.2929,-5.2929,-5.2929,-5.2929,-5.2929,-5.2929,-5.2929,-5.2929,-5.2792,-5.205,-4.9677,-4.7016,-4.6959,-4.4785,-4.2558,-4.3144,-4.3496,-4.3711,-4.3711,-4.3711,-4.3711,-4.3711,-4.3711,-4.3711,-4.3711,-4.3711,-4.3711,-4.3711,-4.1118,-3.8545,-3.7003,-3.4242,-3.1657,-3.0093,-2.9913,-2.9913,-2.9913,-2.9913,-2.9913,-2.9913,-2.9913,-2.9913,-2.9913,-2.9913,-2.9913,-2.9913,-2.9913,-2.9913,-2.9913,-2.9913,-2.9913,-2.9913,-2.7521,-2.4945,-2.2556,-2.0159,-1.7577,-1.5181,-1.5181,-1.5181,-6.5897,-6.5897,-6.5897,-6.5897,-6.5897,-6.5781,-6.5261,-6.513,-6.4833,-6.3888,-6.4301,-6.4679,0.0,0.0,-6.5294,-6.5055,-6.5082,-6.4724,-6.3724,-6.3647,-6.3314,0.0,0.0,0.0,0.0,0.0,0.0,-5.9081,0.0,-5.7086,-5.7086,-5.5918,-5.5179,-5.528,-5.5179,-5.5807,-5.7094,-5.7154,-5.7842,-5.9099,-5.9099,-5.9099,-5.9099,-5.9099,-5.9099,-5.9189,-6.0394,-5.9132,-5.6114,-5.7354,-5.5841,-5.2929,-5.2929,-5.2929,-5.2929,-5.2929,-5.2929,-5.2929,-5.2929,-5.2929,-5.2629,-5.0551,-4.865,-4.6788,-4.5672,-4.3974,-4.2598,-4.3457,-4.3711,-4.3711,-4.3711,-4.3711,-4.3711,-4.3711,-4.3711,-4.3711,-4.3711,-4.3711,-4.3711,-4.3711,-3.9921,-3.683,-3.683,-3.3028,-2.9913,-2.9913,-2.9913,-2.9913,-2.9913,-2.9913,-2.9913,-2.9913,-2.9913,-2.9913,-2.9913,-2.9913,-2.9913,-2.9913,-2.9913,-2.9913,-2.9913,-2.9913,-2.9913,-2.9913,-2.7521,-2.5127,-2.2739,-2.0159,-1.7763,-1.5368,-1.5181,-1.5181,-6.6051,-6.5974,-6.5897,-6.5897,-6.5897,-6.5872,-6.5717,-6.5388,-6.509,-6.5085,-6.4935,-6.4819,-6.4963,-6.5668,-6.5715,-6.4341,-6.465,0.0,-6.2973,-6.2736,0.0,-6.2459,0.0,-6.2381,-6.2381,-6.211,0.0,0.0,-5.869,-5.7339,-5.8268,-5.6378,-5.5651,-5.6541,-5.5651,-5.5807,-5.7094,-5.8082,-5.877,-5.9099,-5.9099,-5.9099,-5.9099,-5.9099,-5.9099,-5.905,-5.9152,-5.799,-5.5991,-5.6084,-5.4809,-5.2929,-5.2929,-5.2929,-5.2929,-5.2929,-5.2929,-5.2929,-5.2929,-5.2929,-5.2629,-5.0551,-4.865,-4.6788,-4.5672,-4.3974,-4.2598,-4.3457,-4.3711,-4.3711,-4.3711,-4.3711,-4.3711,-4.3711,-4.3711,-4.3711,-4.3711,-4.3711,-4.3711,-4.3711,-3.9921,-3.683,-3.683,-3.3028,-2.9913,-2.9913,-2.9913,-2.9913,-2.9913,-2.9913,-2.9913,-2.9913,-2.9913,-2.9913,-2.9913,-2.9913,-2.9913,-2.9913,-2.9913,-2.9913,-2.9913,-2.9913,-2.9913,-2.9913,-2.7521,-2.5866,-2.5309,-2.0889,-1.8499,-1.7949,-1.6104,-1.5181,-6.6101,-6.5974,-6.5897,-6.5897,-6.5897,-6.5897,-6.5897,-6.5931,-6.5879,-6.5653,-6.5902,-6.615,-6.586,-6.6476,-6.6683,0.0,0.0,0.0,-6.3757,-6.324,-6.2855,0.0,-6.2381,0.0,-6.2381,-6.2381,-6.2381,0.0,-6.0043,-5.887,-5.9522,-5.7276,-5.625,-5.6991,-5.5819,-5.5807,-5.7094,-5.8441,-5.9099,-5.9099,-5.9099,-5.9099,-5.9099,-5.9099,-5.9249,-5.9469,0.0,-5.7655,-5.6376,-5.5675,-5.4433,-5.2929,-5.2929,-5.2929,-5.2929,-5.2929,-5.2929,-5.2929,-5.2929,-5.2929,-5.2491,-4.9534,-4.8064,-4.6905,-4.4806,-4.35,-4.2851,-4.3516,-4.3711,-4.3711,-4.3711,-4.3711,-4.3711,-4.3711,-4.3711,-4.3711,-4.3711,-4.3711,-4.3361,-4.2326,-3.9225,-3.6485,-3.5446,-3.2351,-2.9913,-2.9913,-2.9913,-2.9913,-2.9913,-2.9913,-2.9913,-2.9913,-2.9913,-2.9913,-2.9913,-2.9913,-2.9913,-2.9913,-2.9913,-2.9913,-2.9913,-2.9913,-2.9913,-2.9913,-2.7521,-2.6229,-2.6229,-2.1258,-1.8871,-1.8871,-1.6292,-1.5181,-6.6121,-6.6051,-6.5897,-6.5897,-6.5897,-6.5936,-6.6013,-6.6564,-6.6778,-6.6105,-6.697,-6.7648,-6.6846,-6.721,-6.7687,-6.7542,0.0,-6.5904,-6.4933,-6.4113,-6.3274,-6.2459,-6.2381,-6.2381,-6.2381,-6.2381,-6.2381,-6.2381,-6.1399,-6.087,-6.087,-5.8419,-5.6927,-5.6954,-5.5932,-5.6017,-5.7214,-5.8471,-5.9099,-5.9099,-5.9099,-5.9099,-5.9099,-5.9099,-5.9458,-6.0006,-5.8697,-5.7733,-5.6899,-5.5575,-5.4164,-5.2929,-5.2929,-5.2929,-5.2929,-5.2929,-5.2929,-5.2929,-5.2929,-5.2929,-5.2189,-4.8361,-4.7387,-4.6981,-4.3517,-4.2734,-4.3164,-4.3594,-4.3711,-4.3711,-4.3711,-4.3711,-4.3711,-4.3711,-4.3711,-4.3711,-4.3711,-4.3711,-4.3176,-4.1118,-3.8545,-3.614,-3.4257,-3.1657,-2.9913,-2.9913,-2.9913,-2.9913,-2.9913,-2.9913,-2.9913,-2.9913,-2.9913,-2.9913,-2.9913,-2.9913,-2.9913,-2.9913,-2.9913,-2.9913,-2.9913,-2.9913,-2.9913,-2.9913,-2.7702,-2.6604,-2.6604,-2.181,-1.9419,-1.9242,-1.6479,-1.5181,-6.6355,-6.623,-6.6051,-6.5936,-6.5897,-6.6051,-6.6744,-6.6653,0.0,-6.7429,-6.7428,-6.7374,-6.7479,-6.7614,-6.7488,-6.6736,-6.5842,-6.4933,-6.4042,-6.3199,-6.2581,0.0,-6.2381,-6.2381,-6.2381,-6.2381,0.0,0.0,-6.2223,-6.211,-6.211,-5.887,-5.6787,-5.6334,-5.6599,-5.7154,-5.7932,-5.871,-5.9099,-5.9099,-5.9099,-5.9099,-5.9099,-5.9099,-5.9458,-6.0006,-5.7468,0.0,-5.6773,-5.4334,-5.3179,-5.2929,-5.2929,-5.2929,-5.2929,-5.2929,-5.2929,-5.2929,-5.2929,-5.2929,-5.2189,-4.8361,-4.7387,-4.6981,-4.3517,-4.2734,-4.3164,-4.3594,-4.3711,-4.3711,-4.3711,-4.3711,-4.3711,-4.3711,-4.3711,-4.3711,-4.3711,-4.3711,-4.3526,-4.3176,-3.9752,-3.6658,-3.6313,-3.269,-2.9913,-2.9913,-2.9913,-2.9913,-2.9913,-2.9913,-2.9913,-2.9913,-2.9913,-2.9913,-2.9913,-2.9913,-2.9913,-2.9913,-2.9913,-2.9913,-2.9913,-2.9913,-2.9913,-2.9913,-2.9541,-2.9182,-2.9182,-2.4204,-2.182,-2.182,-1.7219,-1.5181,-6.6431,-6.6234,-6.6051,-6.5936,-6.5897,-6.609,-6.6898,0.0,0.0,-6.7844,-6.7947,-6.7826,-6.7736,-6.7687,-6.7542,-6.7174,-6.5868,-6.4866,-6.4427,-6.324,-6.2381,-6.2381,-6.2381,-6.2381,-6.2381,-6.2381,-6.2381,-6.2381,-6.2381,-6.2381,-6.2381,-5.961,-5.7397,-5.6239,-5.6765,-5.7423,-5.8112,-5.877,-5.9099,-5.9099,-5.9099,-5.9099,-5.9099,-5.9099,-5.9668,-6.0403,-5.7372,-5.6555,-5.7339,-5.4221,-5.2929,-5.2929,-5.2929,-5.2929,-5.2929,-5.2929,-5.2929,-5.2929,-5.2929,-5.2929,-5.2238,-4.8515,-4.7597,-4.7333,-4.3859,-4.3066,-4.3437,-4.3652,-4.3711,-4.3711,-4.3711,-4.3711,-4.3711,-4.3711,-4.3711,-4.3711,-4.3711,-4.3711,-4.3711,-4.3711,-3.9921,-3.683,-3.683,-3.3028,-2.9913,-2.9913,-2.9913,-2.9913,-2.9913,-2.9913,-2.9913,-2.9913,-2.9913,-2.9913,-2.9913,-2.9913,-2.9913,-2.9913,-2.9913,-2.9913,-2.9913,-2.9913,-2.9913,-2.9913,-2.9913,-2.9913,-2.9913,-2.6229,-2.3838,-2.2372,-1.8871,-1.6479,-6.6429,-6.6283,-6.6128,-6.5936,-6.5897,-6.6103,-6.6984,-6.7317,-6.7574,-6.8025,-6.8257,-6.821,-6.7757,-6.7687,-6.7687,0.0,-6.6332,-6.5196,-6.4999,-6.3612,-6.2581,-6.2381,-6.2381,0.0,-6.2381,-6.2381,0.0,-6.2381,-6.2381,-6.2189,-6.1676,-5.9946,-5.8154,-5.6449,-5.6974,-5.7633,-5.8321,-5.886,-5.9099,-5.9099,-5.9099,-5.9099,-5.9099,-5.9249,-5.9967,-6.0992,-5.8013,-5.7231,-5.7751,-5.4701,-5.3179,-5.2929,-5.2929,-5.2929,-5.2929,-5.2929,-5.2929,-5.2929,-5.2929,-5.2629,-5.1845,-4.8781,-4.8043,-4.7684,-4.4181,-4.3379,-4.3711,-4.3711,-4.3711,-4.3711,-4.3711,-4.3711,-4.3711,-4.3711,-4.3711,-4.3711,-4.3711,-4.3711,-4.3711,-4.3711,-3.9921,-3.683,-3.683,-3.3028,-2.9913,-2.9913,-2.9913,-2.9913,-2.9913,-2.9913,-2.9913,-2.9913,-2.9913,-2.9913,-2.9913,-2.9913,-2.9913,-2.9913,-2.9913,-2.9913,-2.9913,-2.9913,-2.9913,-2.9913,-2.9913,-2.9913,-2.9913,-2.6966,-2.4398,-2.2372,-1.9427,-1.7025,-6.6468,-6.6399,-6.6307,-6.5974,-6.5897,-6.6204,-6.7286,0.0,-6.7156,-6.8211,-6.8074,-6.7794,-6.7687,-6.7687,-6.7687,0.0,0.0,-6.5966,-6.5131,-6.4148,-6.3314,-6.2537,0.0,0.0,-6.2381,-6.2381,-6.2381,-6.2381,-6.2381,-6.1399,-5.9258,-5.9511,-5.8875,-5.7079,-5.7663,-5.8351,-5.9009,-5.9069,-5.9099,-5.9099,-5.9099,-5.9099,-5.9129,-5.9727,-6.0416,-6.1022,-5.9713,-5.873,0.0,-5.5945,-5.4299,-5.2929,-5.2929,-5.2929,-5.2929,-5.2929,-5.2929,-5.2929,-5.2929,-5.1747,-4.9985,-4.8724,-4.8312,-4.7684,-4.4181,-4.3379,-4.3711,-4.3711,-4.3711,-4.3711,-4.3711,-4.3711,-4.3711,-4.3711,-4.3711,-4.3711,-4.3711,-4.3711,-4.3711,-4.3711,-3.9921,-3.683,-3.683,-3.3028,-2.9913,-2.9913,-2.9913,-2.9913,-2.9913,-2.9913,-2.9913,-2.9913,-2.9913,-2.9913,-2.9913,-2.9913,-2.9913,-2.9913,-2.9913,-2.9913,-2.9913,-2.9913,-2.9913,-2.9913,-2.9913,-2.9913,-2.9913,-2.5127,-2.2739,-2.2566,-1.7771,-1.5368,-6.6468,-6.6399,-6.6346,-6.5974,-6.5897,-6.6178,-6.7337,0.0,-6.7112,-6.8232,-6.8047,-6.7687,-6.7687,-6.7687,-6.7687,0.0,0.0,0.0,-6.5131,-6.4218,-6.3388,-6.2537,-6.2381,-6.2381,0.0,0.0,-6.2381,-6.2381,-6.2381,-6.1517,-5.9511,-5.9617,-5.8969,-5.7169,-5.7752,-5.8441,-5.9099,-5.9099,-5.9099,-5.9099,-5.9099,-5.9099,-5.9129,-5.9787,-6.0475,-6.1022,-5.8942,-5.8048,0.0,-5.5075,-5.3563,-5.2929,-5.2929,-5.2929,-5.2929,-5.2929,-5.2929,-5.2929,-5.2929,-5.1803,-5.01,-4.8734,-4.7641,-4.6435,-4.4096,-4.3574,-4.3711,-4.3711,-4.3711,-4.3711,-4.3711,-4.3711,-4.3711,-4.3711,-4.3711,-4.3711,-4.3711,-4.3711,-4.3711,-4.3711,-3.9921,-3.683,-3.683,-3.3028,-2.9913,-2.9913,-2.9913,-2.9913,-2.9913,-2.9913,-2.9913,-2.9913,-2.9913,-2.9913,-2.9913,-2.9913,-2.9913,-2.9913,-2.9913,-2.9913,-2.9913,-2.9913,-2.9913,-2.9913,-2.9913,-2.9182,-2.7702,-2.5684,-2.3289,-2.0344,-1.8321,-1.6658,-6.6468,-6.6399,-6.6346,-6.5974,-6.5897,-6.6151,-6.7136,-6.7089,-6.7071,-6.8034,-6.7982,-6.7687,-6.7687,-6.7687,-6.7687,0.0,0.0,-6.6064,-6.5131,-6.4218,-6.3388,-6.2537,0.0,-6.2381,-6.2381,-6.2381,-6.2381,-6.2381,-6.2381,-6.165,-5.9928,-5.9968,-5.9251,-5.7468,-5.8052,-5.865,-5.9099,-5.9099,-5.9099,-5.9099,-5.9099,-5.9099,-5.9129,-5.9997,-6.0655,-6.1052,-5.8902,-5.7966,0.0,-5.4809,-5.3291,-5.2929,-5.2929,-5.2929,-5.2929,-5.2929,-5.2929,-5.2929,-5.2929,-5.1503,-4.963,-4.8629,-4.6846,-4.5025,-4.4047,-4.3711,-4.3711,-4.3711,-4.3711,-4.3711,-4.3711,-4.3711,-4.3711,-4.3711,-4.3711,-4.3711,-4.3711,-4.3711,-4.3526,-4.2844,-3.9564,-3.6658,-3.5967,-3.2514,-2.9913,-2.9913,-2.9913,-2.9913,-2.9913,-2.9913,-2.9913,-2.9913,-2.9913,-2.9913,-2.9913,-2.9913,-2.9913,-2.9913,-2.9913,-2.9913,-2.9913,-2.9913,-2.9913,-2.9913,-2.9913,-2.8989,-2.7341,-2.5866,-2.3289,-1.9974,-1.8499,-1.6845,-6.6429,-6.6399,-6.6346,-6.5974,-6.5897,-6.6057,-6.6673,-6.6821,-6.6946,-6.7598,-6.7687,-6.7687,-6.7687,-6.7687,-6.7687,-6.7687,-6.6967,0.0,-6.5131,-6.4218,-6.3388,0.0,-6.2381,-6.2381,-6.2381,-6.2381,-6.2381,-6.2381,-6.2381,0.0,-5.9928,-6.0384,-5.9844,-5.8188,-5.874,-5.9099,-5.9099,-5.9099,-5.9099,-5.9099,-5.9099,-5.9099,-5.9159,-6.0475,-6.1104,-6.1052,-6.0704,-5.9475,0.0,-5.6076,-5.4433,-5.2929,-5.2929,-5.2929,-5.2929,-5.2929,-5.2929,-5.2929,-5.2929,-5.0627,-4.7858,-4.82,-4.5932,-4.3164,-4.3574,-4.3711,-4.3711,-4.3711,-4.3711,-4.3711,-4.3711,-4.3711,-4.3711,-4.3711,-4.3711,-4.3711,-4.3711,-4.3711,-4.301,-4.0764,-3.8374,-3.614,-3.3907,-3.1479,-2.9913,-2.9913,-2.9913,-2.9913,-2.9913,-2.9913,-2.9913,-2.9913,-2.9913,-2.9913,-2.9913,-2.9913,-2.9913,-2.9913,-2.9913,-2.9913,-2.9913,-2.9913,-2.9913,-2.9913,-2.9913,-2.9913,-2.9913,-2.4945,-2.2556,-2.2372,-1.7398,-1.5181,-6.6225,-6.6183,-6.6128,-6.5936,-6.5897,-6.6057,-6.6673,-6.6821,-6.6946,-6.7546,-6.7687,-6.7687,-6.7687,-6.7687,-6.7687,-6.7687,-6.6967,-6.6064,0.0,0.0,0.0,-6.2537,-6.2381,-6.2381,0.0,0.0,-6.2381,-6.2381,-6.2029,-6.1435,-6.0508,-6.0263,-5.951,-5.8112,-5.877,-5.9099,-5.9099,-5.9099,-5.9099,-5.9099,-5.9099,-5.9338,-5.9787,-6.0715,-6.1373,-6.1709,-5.9651,-5.8509,-5.7751,-5.4809,-5.3427,-5.2929,-5.2929,-5.2929,-5.2929,-5.2929,-5.2929,-5.298,-5.3331,-5.113,-4.82,-4.8691,-4.6395,-4.3535,-4.3672,-4.3711,-4.3711,-4.3711,-4.3711,-4.3711,-4.3711,-4.3711,-4.3711,-4.3711,-4.3711,-4.3711,-4.3711,-4.3711,-4.301,-4.0764,-3.8374,-3.614,-3.3731,-3.1479,-2.9913,-2.9913,-2.9913,-2.9913,-2.9913,-2.9913,-2.9913,-2.9913,-2.9913,-2.9913,-2.9913,-2.9913,-2.9913,-2.9913,-2.9913,-2.9913,-2.9913,-2.9913,-2.9913,-2.9913,-2.9913,-2.9002,-2.7328,-2.5866,-2.3289,-1.9974,-1.6658,-1.5181,0.0,-6.609,-6.6051,-6.5936,-6.5897,-6.6057,-6.6673,-6.6821,-6.6946,-6.7546,-6.7687,-6.7687,-6.7687,-6.7687,-6.7596,-6.723,-6.6427,-6.5554,0.0,0.0,0.0,-6.2459,0.0,0.0,0.0,-6.2381,-6.2381,-6.2381,-6.19,-6.1327,-6.0703,-6.0188,-5.9471,-5.8471,-5.889,-5.9099,-5.9099,-5.9099,-5.9099,-5.9099,-5.9099,-5.9458,-6.0116,-6.0805,-6.1094,-6.0998,-5.8879,-5.7624,0.0,-5.4081,-5.2929,-5.2929,-5.2929,-5.2929,-5.2929,-5.2929,-5.2929,-5.3005,-5.3507,-5.1369,-4.8423,-4.8915,-4.6606,-4.3711,-4.3711,-4.3711,-4.3711,-4.3711,-4.3711,-4.3711,-4.3711,-4.3711,-4.3711,-4.3711,-4.3711,-4.3711,-4.3711,-4.3711,-4.2844,-3.9564,-3.7861,-3.5793,-3.269,-3.0781,-2.9913,-2.9913,-2.9913,-2.9913,-2.9913,-2.9913,-2.9913,-2.9913,-2.9913,-2.9913,-2.9913,-2.9913,-2.9913,-2.9913,-2.9913,-2.9913,-2.9913,-2.9913,-2.9913,-2.9913,-2.9913,-2.9182,-2.7521,-2.5684,-2.2729,-1.8871,-1.6292,-1.5181,0.0,0.0,0.0,0.0,-6.5872,0.0,-6.6673,-6.6781,0.0,-6.7546,-6.7687,-6.7687,-6.7687,-6.7687,-6.7433,-6.6523,-6.5617,-6.4665,0.0,-6.2931,0.0,0.0,-6.2381,0.0,-6.2381,-6.2381,-6.2415,-6.2448,-6.1883,-6.1303,-6.0799,-6.0183,-5.9613,-5.9069,-5.9099,-5.9099,-5.9099,-5.9099,-5.9099,-5.9099,-5.9159,-5.9518,-6.0176,-6.0864,-6.0524,0.0,-5.8507,-5.6956,0.0,-5.3538,-5.2929,-5.2929,-5.2929,-5.2929,-5.2929,-5.2929,-5.2955,-5.3055,-5.3582,-5.1417,-4.8338,-4.8652,-4.6489,-4.3711,-4.3711,-4.3711,-4.3711,-4.3711,-4.3711,-4.3711,-4.3711,-4.3711,-4.3711,-4.3711,-4.3711,-4.3711,-4.3711,-4.3711,-4.2326,-3.769,-3.683,-3.5273,-3.0781,-2.9913,-2.9913,-2.9913,-2.9913,-2.9913,-2.9913,-2.9913,-2.9913,-2.9913,-2.9913,-2.9913,-2.9913,-2.9913,-2.9913,-2.9913,-2.9913,-2.9913,-2.9913,-2.9913,-2.9913,-2.9913,-2.9913,-2.9913,-2.9913,-2.4945,-2.1267,-1.9048,-1.6479,-1.5181,0.0,0.0,0.0,0.0,0.0,0.0,0.0,0.0,0.0,0.0,0.0,0.0,0.0,-6.7687,-6.7433,-6.6523,-6.5617,-6.4665,-6.3829,0.0,0.0,-6.2381,-6.2381,-6.2381,-6.2381,-6.2381,-6.2618,-6.3193,-6.1775,-6.111,-6.1628,-6.0157,-5.9242,-5.9099,-5.9099,-5.9099,-5.9099,-5.9099,-5.9099,-5.9099,-5.9608,-6.0206,-6.0894,-6.1553,-6.1318,-6.0157,-5.8675,-5.6956,-5.5287,-5.3538,-5.2929,-5.2929,-5.2929,-5.2929,-5.2929,-5.2929,-5.3181,-5.3607,-5.416,-5.1991,-4.8521,-4.5912,-4.4415,-4.3711,-4.3711,-4.3711,-4.3711,-4.3711,-4.3711,-4.3711,-4.3711,-4.3711,-4.3711,-4.3711,-4.3711,-4.3711,-4.3711,-4.3711,-4.2326,-3.769,-3.683,-3.5273,-3.0781,-2.9913,-2.9913,-2.9913,-2.9913,-2.9913,-2.9913,-2.9913,-2.9913,-2.9913,-2.9913,-2.9913,-2.9913,-2.9913,-2.9913,-2.9913,-2.9913,-2.9913,-2.9913,-2.9913,-2.9913,-2.9913,-2.9913,-2.9913,-2.9913,-2.4945,-2.2188,-2.1636,-1.7219,-1.5181,0.0,0.0,0.0,-6.5597,-6.5321,-6.5356,0.0,0.0,0.0,0.0,0.0,0.0,0.0,0.0,-6.6852,-6.5904,-6.5035,0.0,0.0,0.0,-6.2381,-6.2381,-6.2381,-6.2381,0.0,-6.1917,-6.1896,-6.2549,-6.0935,-6.0231,-6.0924,-5.9814,-5.9099,-5.9099,-5.9099,-5.9099,-5.9099,-5.9099,-5.9099,-5.9129,-5.9757,-6.0446,-6.1134,-6.1019,-6.0291,-5.9228,-5.7596,-5.5841,-5.4164,-5.3291,-5.2929,-5.2929,-5.2929,-5.2929,-5.2929,-5.2929,-5.3256,-5.3783,-5.4361,-5.2349,-4.8852,-4.5048,-4.3711,-4.3711,-4.3711,-4.3711,-4.3711,-4.3711,-4.3711,-4.3711,-4.3711,-4.3711,-4.3711,-4.3711,-4.3711,-4.3711,-4.3711,-4.3711,-4.2659,-3.9055,-3.7518,-3.562,-3.2174,-3.0616,-2.9913,-2.9913,-2.9913,-2.9913,-2.9913,-2.9913,-2.9913,-2.9913,-2.9913,-2.9913,-2.9913,-2.9913,-2.9913,-2.9913,-2.9913,-2.9913,-2.9913,-2.9913,-2.9913,-2.9913,-2.9913,-2.9362,-2.8256,-2.4398,-2.2004,-2.0714,-1.7032,-1.5181,0.0,-6.5291,-6.5542,-6.5099,-6.4932,-6.5078,-6.5864,0.0,0.0,0.0,0.0,0.0,0.0,-6.691,0.0,0.0,0.0,0.0,-6.2537,-6.2381,-6.2381,-6.2381,-6.2223,0.0,-6.211,-6.1036,-6.066,-6.1393,-5.9886,-5.9247,-6.002,-5.9455,-5.9099,-5.9099,-5.9099,-5.9099,-5.9099,-5.9099,-5.9099,-5.9129,-5.9877,-6.0565,-6.1022,-6.0122,-5.8993,-5.7878,0.0,0.0,-5.2929,-5.2929,-5.2929,-5.2929,-5.2929,-5.2929,-5.2929,-5.2929,-5.3306,-5.3793,-5.3824,-5.2214,-4.9361,-4.5128,-4.3711,-4.3711,-4.3711,-4.3711,-4.3711,-4.3711,-4.3711,-4.3711,-4.3711,-4.3711,-4.3711,-4.3711,-4.3711,-4.3711,-4.3711,-4.3711,-4.301,-4.0764,-3.8374,-3.614,-3.3731,-3.1479,-2.9913,-2.9913,-2.9913,-2.9913,-2.9913,-2.9913,-2.9913,-2.9913,-2.9913,-2.9913,-2.9913,-2.9913,-2.9913,-2.9913,-2.9913,-2.9913,-2.9913,-2.9913,-2.9913,-2.9913,-2.9913,-2.8629,-2.6229,-2.3656,-2.1267,-1.8871,-1.6292,-1.5181,-6.4626,-6.4554,-6.4628,-6.4518,-6.4178,-6.422,-6.5642,-6.5705,0.0,0.0,0.0,0.0,0.0,-6.6464,-6.5842,0.0,0.0,-6.2503,0.0,0.0,-6.2381,-6.2381,0.0,-6.087,-6.087,-5.9784,-5.9595,-6.0913,-5.9693,-5.9433,-6.0772,-5.9698,-5.9099,-5.9099,-5.9099,-5.9099,-5.9099,-5.9099,-5.9099,-5.9129,-6.0356,-6.1014,-6.1022,-6.0588,-5.9513,-5.7878,0.0,-5.4433,-5.2929,-5.2929,-5.2929,-5.2929,-5.2929,-5.2929,-5.2929,-5.2929,-5.3557,-5.411,-5.1605,-5.0339,-4.9361,-4.5128,-4.3711,-4.3711,-4.3711,-4.3711,-4.3711,-4.3711,-4.3711,-4.3711,-4.3711,-4.3711,-4.3711,-4.3711,-4.3711,-4.3711,-4.3711,-4.3711,-4.301,-4.0764,-3.8374,-3.614,-3.3731,-3.1479,-2.9913,-2.9913,-2.9913,-2.9913,-2.9913,-2.9913,-2.9913,-2.9913,-2.9913,-2.9913,-2.9913,-2.9913,-2.9913,-2.9913,-2.9913,-2.9913,-2.9913,-2.9913,-2.9913,-2.9913,-2.9913,-2.8629,-2.6229,-2.3656,-2.1267,-1.8871,-1.6292,-1.5181,-6.4099,-6.3975,-6.3892,-6.3593,-6.3885,-6.451,-6.5397,-6.5764,0.0,0.0,0.0,0.0,0.0,0.0,-6.5035,-6.3314,0.0,-6.2381,-6.2381,-6.2381,-6.2381,0.0,0.0,-6.0586,-6.0586,-5.8902,-5.8373,-5.9726,-5.8608,-5.8541,-5.9879,-5.9392,-5.9099,-5.9099,-5.9099,-5.9099,-5.9099,-5.9099,-5.9279,-5.9638,-6.0625,-6.1313,-6.1559,-5.9956,-5.8731,-5.7878,0.0,-5.3538,-5.2929,-5.2929,-5.2929,-5.2929,-5.2929,-5.2929,-5.3005,-5.3582,-5.4135,-5.4116,-5.1033,-4.9986,-4.9361,-4.5128,-4.3711,-4.3711,-4.3711,-4.3711,-4.3711,-4.3711,-4.3711,-4.3711,-4.3711,-4.3711,-4.3711,-4.3711,-4.3711,-4.3711,-4.3711,-4.3711,-4.3361,-4.2326,-4.0277,-3.8049,-3.5636,-3.338,-3.1301,-3.0093,-2.9913,-2.9913,-2.9913,-2.9913,-2.9913,-2.9913,-2.9913,-2.9913,-2.9913,-2.9913,-2.9913,-2.9913,-2.9913,-2.9913,-2.9913,-2.9913,-2.9913,-2.9913,-2.9913,-2.8629,-2.6229,-2.3656,-2.1267,-1.8871,-1.6292,-1.5181,-6.3587,-6.3408,-6.3317,-6.2904,0.0,-6.4493,-6.5147,-6.5778,0.0,0.0,0.0,0.0,0.0,-6.5035,0.0,-6.2581,-6.2381,-6.2302,-6.203,-6.1951,-6.1837,-6.1595,-6.0501,-5.9784,-5.9784,-5.7933,-5.7248,-5.8416,-5.7734,-5.7842,-5.9039,-5.9099,-5.9099,-5.9099,-5.9099,-5.9099,-5.9099,-5.9099,-5.9428,-6.0086,-6.0775,-6.1463,-6.2007,-5.9248,-5.8005,-5.7751,-5.4325,-5.2929,-5.2929,-5.2929,-5.2929,-5.2929,-5.2929,-5.2929,-5.3055,-5.416,-5.4561,-5.4116,-5.1033,-4.9986,-4.9361,-4.5128,-4.3711,-4.3711,-4.3711,-4.3711,-4.3711,-4.3711,-4.3711,-4.3711,-4.3711,-4.3711,-4.3711,-4.3711,-4.3711,-4.3711,-4.3711,-4.3711,-4.3711,-4.3711,-4.1472,-3.8903,-3.7175,-3.4417,-3.1997,-3.0093,-2.9913,-2.9913,-2.9913,-2.9913,-2.9913,-2.9913,-2.9913,-2.9913,-2.9913,-2.9913,-2.9913,-2.9913,-2.9913,-2.9913,-2.9913,-2.9913,-2.9913,-2.9913,-2.9913,-2.8629,-2.6229,-2.3656,-2.1267,-1.8871,-1.6292,-1.5181,-6.3014,-6.2855,-6.2855,-6.2805,-6.2842,0.0,-6.4934,-6.5338,0.0,-6.6351,0.0,0.0,0.0,-6.3199,-6.2503,-6.2381,-6.2381,-6.203,-6.087,0.0,-6.0332,-5.917,-5.7993,-5.7245,-5.7245,-5.6663,-5.6582,-5.7139,-5.7693,-5.8351,-5.9069,-5.9099,-5.9099,-5.9099,-5.9099,-5.9099,-5.9099,-5.9099,-5.9428,-6.0086,-6.0775,-6.1463,-6.2007,-5.9248,-5.8005,-5.7751,-5.4325,-5.2929,-5.2929,-5.2929,-5.2929,-5.2929,-5.2929,-5.2929,-5.3055,-5.416,-5.4561,-5.4116,-5.1033,-4.9986,-4.9361,-4.5128,-4.3711,-4.3711,-4.3711,-4.3711,-4.3711,-4.3711,-4.3711,-4.3711,-4.3711,-4.3711,-4.3711,-4.3711,-4.3711,-4.3711,-4.3711,-4.3711,-4.3711,-4.3711,-4.009,-3.7003,-3.683,-3.3028,-3.0093,-2.9913,-2.9913,-2.9913,-2.9913,-2.9913,-2.9913,-2.9913,-2.9913,-2.9913,-2.9913,-2.9913,-2.9913,-2.9913,-2.9913,-2.9913,-2.9913,-2.9913,-2.9913,-2.9913,-2.9913,-2.8629,-2.6229,-2.3656,-2.1267,-1.8871,-1.6292,-1.5181,-6.2855,-6.2805,-6.2805,-6.2805,-6.3209,0.0,0.0,-6.4819,-6.5207,-6.5466,-6.5554,0.0,0.0,0.0,-6.2381,-6.2381,-6.2381,-6.1951,-6.0787,-6.0586,-6.0161,-5.8902,-5.7714,-5.6991,-5.6991,-5.6495,-5.6436,-5.7034,-5.7723,-5.8411,-5.9069,-5.9099,-5.9099,-5.9099,-5.9099,-5.9099,-5.9099,-5.9099,-5.9668,-6.0715,-6.0984,-6.1045,-6.1027,-5.8896,-5.7369,-5.6206,-5.3945,-5.2929,-5.2929,-5.2929,-5.2929,-5.2929,-5.2929,-5.313,-5.3507,-5.4285,-5.4022,-5.2887,-5.0688,-4.9047,-4.7486,-4.4658,-4.3711,-4.3711,-4.3711,-4.3711,-4.3711,-4.3711,-4.3711,-4.3711,-4.3711,-4.3711,-4.3711,-4.3711,-4.3711,-4.3711,-4.3711,-4.3711,-4.3711,-4.3711,-4.1118,-3.8545,-3.7003,-3.4242,-3.1657,-3.0093,-2.9913,-2.9913,-2.9913,-2.9913,-2.9913,-2.9913,-2.9913,-2.9913,-2.9913,-2.9913,-2.9913,-2.9913,-2.9913,-2.9913,-2.9913,-2.9913,-2.9913,-2.9913,-2.9913,-2.9362,-2.8436,-2.4398,-2.2004,-2.1083,-1.7032,-1.5181,-6.2805,-6.2805,-6.2755,0.0,0.0,0.0,-6.3203,-6.4111,-6.5022,-6.4658,-6.4357,-6.4042,-6.3388,0.0,0.0,0.0,-6.211,-6.1399,-6.0247,-5.9697,-5.8992,-5.7807,-5.6896,-5.6445,-5.6445,-5.6405,-5.6645,-5.7064,-5.7932,-5.862,-5.9069,-5.9099,-5.9099,-5.9099,-5.9099,-5.9099,-5.9099,-5.9099,-5.9787,-6.1104,-6.0482,-6.0413,-6.048,-5.8731,-5.7085,-5.5287,-5.3674,-5.2929,-5.2929,-5.2929,-5.2929,-5.2929,-5.2929,-5.3256,-5.3758,-5.4361,-5.3689,-5.2088,-5.0603,-4.8597,-4.6384,-4.433,-4.3711,-4.3711,-4.3711,-4.3711,-4.3711,-4.3711,-4.3711,-4.3711,-4.3711,-4.3711,-4.3711,-4.3711,-4.3711,-4.3711,-4.3711,-4.3711,-4.3711,-4.3711,-4.1286,-3.8715,-3.7003,-3.4242,-3.1834,-3.0093,-2.9913,-2.9913,-2.9913,-2.9913,-2.9913,-2.9913,-2.9913,-2.9913,-2.9913,-2.9913,-2.9913,-2.9913,-2.9913,-2.9913,-2.9913,-2.9913,-2.9913,-2.9913,-2.9913,-2.9913,-2.9913,-2.4945,-2.2556,-2.2382,-1.7584,-1.5181,-6.2805,-6.2805,-6.2567,0.0,0.0,0.0,-6.1603,-6.33,-6.4839,-6.3868,-6.2973,-6.2381,-6.2381,-6.2381,0.0,-6.2381,-6.1399,-6.0161,-5.8992,-5.7807,-5.6541,-5.5381,-5.5179,-5.5179,-5.5179,-5.6346,-5.7094,-5.7094,-5.8351,-5.9099,-5.9099,-5.9099,-5.9099,-5.9099,-5.9099,-5.9099,-5.9099,-5.9099,-5.9787,-6.1104,-5.9364,-5.9151,-6.048,-5.8731,-5.6956,-5.5287,-5.3674,-5.2929,-5.2929,-5.2929,-5.2929,-5.2929,-5.2929,-5.3256,-5.3758,-5.4361,-5.3544,-5.2088,-5.0603,-4.8575,-4.6384,-4.433,-4.3711,-4.3711,-4.3711,-4.3711,-4.3711,-4.3711,-4.3711,-4.3711,-4.3711,-4.3711,-4.3711,-4.3711,-4.3711,-4.3711,-4.3711,-4.3711,-4.3711,-4.3711,-3.9921,-3.683,-3.683,-3.3028,-2.9913,-2.9913,-2.9913,-2.9913,-2.9913,-2.9913,-2.9913,-2.9913,-2.9913,-2.9913,-2.9913,-2.9913,-2.9913,-2.9913,-2.9913,-2.9913,-2.9913,-2.9913,-2.9913,-2.9913,-2.9913,-2.9913,-2.9913,-2.4945,-2.2556,-2.2372,-1.7406,-1.5181,-6.2805,-6.2376,0.0,-6.1659,0.0,0.0,0.0,-6.2335,0.0,0.0,-6.2581,-6.2381,-6.2381,-6.2381,0.0,-6.2381,-6.1399,-6.0161,-5.8992,-5.7807,-5.6541,-5.5381,-5.5179,-5.5179,-5.5179,-5.6346,-5.7094,-5.7094,-5.8351,-5.9099,-5.9099,-5.9099,-5.9099,-5.9099,-5.9099,-5.9099,-5.9099,-5.9099,-5.9787,-6.1104,-5.9364,-5.8526,-5.8606,-5.6956,-5.5181,-5.3538,-5.3179,-5.2929,-5.2929,-5.2929,-5.2929,-5.2929,-5.2929,-5.3256,-5.3758,-5.4361,-5.2622,-5.0079,-4.9984,-4.7645,-4.4494,-4.3856,-4.3711,-4.3711,-4.3711,-4.3711,-4.3711,-4.3711,-4.3711,-4.3711,-4.3711,-4.3711,-4.3711,-4.3711,-4.3711,-4.3711,-4.3711,-4.3711,-4.3711,-4.3711,-3.9921,-3.683,-3.683,-3.3028,-2.9913,-2.9913,-2.9913,-2.9913,-2.9913,-2.9913,-2.9913,-2.9913,-2.9913,-2.9913,-2.9913,-2.9913,-2.9913,-2.9913,-2.9913,-2.9913,-2.9913,-2.9913,-2.9913,-2.9913,-2.9913,-2.9913,-2.9913,-2.4945,-2.2556,-2.2382,-1.753,-1.5343,-6.2805,-6.2219,0.0,-6.1171,-6.1441,-6.1698,-6.1459,0.0,0.0,0.0,-6.2381,-6.2381,-6.2381,-6.2381,0.0,-6.2381,-6.0953,-5.961,-5.8902,-5.7371,-5.5986,-5.528,-5.5179,-5.5179,-5.5179,-5.6346,-5.7094,-5.7094,-5.8351,-5.9099,-5.9099,-5.9099,-5.9099,-5.9099,-5.9099,-5.9099,-5.9099,-5.9099,-5.9428,-6.0111,-5.8373,-5.7283,-5.6956,-5.5945,-5.4567,-5.2929,-5.2929,-5.2929,-5.2929,-5.2929,-5.2929,-5.2929,-5.2929,-5.3256,-5.3758,-5.4361,-5.2305,-4.916,-4.9829,-4.7166,-4.3711,-4.3711,-4.3711,-4.3711,-4.3711,-4.3711,-4.3711,-4.3711,-4.3711,-4.3711,-4.3711,-4.3711,-4.3711,-4.3711,-4.3711,-4.3711,-4.3711,-4.3711,-4.3711,-4.3711,-3.9921,-3.683,-3.683,-3.3028,-2.9913,-2.9913,-2.9913,-2.9913,-2.9913,-2.9913,-2.9913,-2.9913,-2.9913,-2.9913,-2.9913,-2.9913,-2.9913,-2.9913,-2.9913,-2.9913,-2.9913,-2.9913,-2.9913,-2.9913,-2.9913,-2.9913,-2.9913,-2.4945,-2.2606,-2.2502,-1.7608,-1.5445,-6.2705,-6.2076,-6.1286,-6.0458,-6.0303,0.0,-6.1155,-6.1873,-6.2381,-6.2381,0.0,-6.2381,-6.2381,-6.2381,-6.2381,-6.2381,-6.0332,-5.8812,-5.8812,-5.6735,-5.5179,-5.5179,-5.5179,-5.5179,-5.5179,-5.6286,-5.7034,-5.7094,-5.8291,-5.9039,-5.9099,-5.9099,-5.9099,-5.9099,-5.9099,-5.8991,-5.8882,-5.8991,-5.8785,-5.814,-5.6735,-5.5762,-5.534,-5.5287,-5.4299,-5.2929,-5.2929,-5.2929,-5.2929,-5.2929,-5.2929,-5.2929,-5.2929,-5.3231,-5.3708,-5.4169,-5.2134,-4.9093,-4.9496,-4.7006,-4.3711,-4.3711,-4.3711,-4.3711,-4.3711,-4.3711,-4.3711,-4.3711,-4.3711,-4.3711,-4.3711,-4.3711,-4.3711,-4.3711,-4.3711,-4.3711,-4.3711,-4.3711,-4.3711,-4.3711,-3.9921,-3.683,-3.683,-3.3028,-2.9913,-2.9913,-2.9913,-2.9913,-2.9913,-2.9913,-2.9913,-2.9913,-2.9913,-2.9913,-2.9913,-2.9913,-2.9913,-2.9913,-2.9913,-2.9913,-2.9913,-2.9913,-2.9913,-2.9913,-2.9913,-2.9747,-2.9581,-2.4796,-2.2512,-2.2349,-1.7702,-1.5527,-6.2023,-6.1229,0.0,0.0,-5.977,-6.0306,-6.1138,-6.1873,-6.2381,-6.2381,-6.2381,-6.2381,-6.2381,-6.2381,-6.2381,-6.2381,-6.0332,-5.8812,-5.8812,-5.6735,-5.5179,-5.5179,-5.5179,-5.5179,-5.5179,-5.5897,-5.6585,-5.7064,-5.7872,-5.856,-5.9069,-5.9099,-5.9099,-5.9099,-5.9099,-5.8495,-5.7187,-5.8495,-5.8073,0.0,-5.6055,-5.5545,-5.476,-5.3849,-5.3316,-5.2929,-5.2929,-5.2929,-5.2929,-5.2929,-5.2929,-5.2929,-5.2929,-5.3005,-5.3067,-5.2379,-5.0522,-4.8319,-4.7842,-4.592,-4.3711,-4.3711,-4.3711,-4.3711,-4.3711,-4.3711,-4.3711,-4.3711,-4.3711,-4.3711,-4.3711,-4.3711,-4.3711,-4.3711,-4.3711,-4.3711,-4.3711,-4.3711,-4.3711,-4.3711,-3.9921,-3.683,-3.683,-3.3028,-2.9913,-2.9913,-2.9913,-2.9913,-2.9913,-2.9913,-2.9913,-2.9913,-2.9913,-2.9913,-2.9913,-2.9913,-2.9913,-2.9913,-2.9913,-2.9913,-2.9913,-2.9913,-2.9913,-2.9913,-2.9913,-2.9093,-2.7268,-2.429,-2.1808,-1.9941,-1.7039,-1.5778,0.0,0.0,0.0,-5.8806,0.0,-6.0216,-6.0622,-6.1603,-6.2381,-6.2381,-6.2381,-6.2381,-6.2381,-6.2381,-6.2381,-6.2381,-6.0332,-5.8812,-5.8812,-5.6735,-5.5179,-5.5179,-5.5179,-5.5179,-5.5179,-5.5777,-5.6436,-5.7034,-5.7723,-5.8411,-5.9069,-5.9099,-5.9099,-5.9099,-5.9099,-5.8386,-5.6736,-5.7552,-5.668,-5.4051,-5.4646,-5.4538,-5.3752,-5.3164,-5.2929,-5.2929,-5.2929,-5.2929,-5.2929,-5.2929,-5.2929,-5.2929,-5.2929,-5.2929,-5.2754,-5.173,-5.0156,-4.8186,-4.7188,-4.5454,-4.3711,-4.3711,-4.3711,-4.3711,-4.3711,-4.3711,-4.3711,-4.3711,-4.3711,-4.3711,-4.3711,-4.3711,-4.3711,-4.3711,-4.3711,-4.3711,-4.3711,-4.3711,-4.3711,-4.3711,-3.9921,-3.683,-3.683,-3.3028,-2.9913,-2.9913,-2.9913,-2.9913,-2.9913,-2.9913,-2.9913,-2.9913,-2.9913,-2.9913,-2.9913,-2.9913,-2.9913,-2.9913,-2.9913,-2.9913,-2.9913,-2.9913,-2.9913,-2.9913,-3.006,-2.9637,-2.8294,-2.4671,-2.2397,-2.1092,-1.7546,-1.5893,0.0,0.0,-5.9674,-5.828,-5.8998,0.0,-6.0114,-6.1298,-6.2381,-6.2381,-6.2381,-6.2381,-6.2381,-6.2381,-6.2381,-6.2381,-6.0332,-5.8812,-5.8812,-5.6735,-5.5179,-5.5179,-5.5179,-5.5179,-5.5179,-5.5688,-5.6316,-5.7034,-5.7633,-5.8291,-5.9069,-5.9099,-5.9099,-5.9099,-5.9099,-5.8166,-5.6366,-5.6593,-5.52,-5.2223,-5.2903,-5.3082,-5.2929,-5.2929,-5.2929,-5.2929,-5.2929,-5.2929,-5.2929,-5.2929,-5.2929,-5.2929,-5.2929,-5.2629,-5.2313,-5.1272,-4.956,-4.7597,-4.6711,-4.5148,-4.3711,-4.3711,-4.3711,-4.3711,-4.3711,-4.3711,-4.3711,-4.3711,-4.3711,-4.3711,-4.3711,-4.3711,-4.3711,-4.3711,-4.3711,-4.3711,-4.3711,-4.3711,-4.3711,-4.3711,-3.9921,-3.6485,-3.5793,-3.2514,-2.9913,-2.9913,-2.9913,-2.9913,-2.9913,-2.9913,-2.9913,-2.9913,-2.9913,-2.9913,-2.9913,-2.9913,-2.9913,-2.9913,-2.9913,-2.994,-2.9993,-2.9993,-3.002,-3.006,-3.0261,-3.0225,-2.9756,-2.5439,-2.2994,-2.2635,-1.802,-1.5961,0.0,0.0,-5.8209,0.0,-5.8998,-6.0114,0.0,0.0,-6.2381,0.0,-6.2381,-6.2381,-6.2381,-6.2381,-6.2381,-6.2381,-6.0332,-5.8812,-5.8812,-5.6735,-5.5179,-5.5179,-5.5179,-5.5179,-5.5179,-5.5269,-5.5807,-5.7004,-5.7184,-5.7782,-5.9039,-5.9099,-5.9099,-5.9099,-5.9099,-5.7693,-5.4741,-5.6022,-5.4505,-5.0077,-5.114,-5.2119,-5.2929,-5.2929,-5.2929,-5.2929,-5.2929,-5.2929,-5.2929,-5.2929,-5.2929,-5.2929,-5.2929,-5.1886,-5.0246,-4.9193,-4.7444,-4.5628,-4.4501,-4.3856,-4.3711,-4.3711,-4.3711,-4.3711,-4.3711,-4.3711,-4.3711,-4.3711,-4.3711,-4.3711,-4.3711,-4.3711,-4.3711,-4.3711,-4.3711,-4.3711,-4.3711,-4.3711,-4.3711,-4.3711,-3.9921,-3.5446,-3.1479,-3.0258,-2.9913,-2.9913,-2.9913,-2.9913,-2.9913,-2.9913,-2.9913,-2.9913,-2.9913,-2.9913,-2.9913,-2.9913,-2.9913,-2.9913,-2.9913,-3.0034,-3.0287,-3.0301,-3.0421,-3.0675,-3.0474,-2.9479,-2.7676,-2.4822,-2.2452,-2.0328,-1.7415,-1.6062,-5.9988,-5.8841,-5.7881,0.0,-5.8998,-6.0114,-6.0114,-6.1298,-6.2381,-6.2381,-6.2381,-6.2381,-6.2381,-6.2381,-6.2381,-6.2381,-6.0332,-5.8812,-5.8812,-5.6735,-5.5179,-5.5179,-5.5179,-5.5179,-5.5179,-5.5179,-5.5718,-5.7004,-5.7094,-5.7693,-5.9039,-5.9099,-5.8743,-5.7804,-5.7804,-5.6251,-5.3066,-5.3763,-5.2738,-5.0067,-5.0896,-5.1699,-5.2477,-5.2779,-5.2929,-5.2929,-5.2929,-5.2929,-5.2792,-5.1747,-5.1303,-5.1163,-4.9985,-4.9081,-4.8186,-4.7093,-4.6103,-4.5179,-4.4033,-4.3711,-4.3711,-4.3711,-4.3711,-4.3711,-4.3711,-4.3711,-4.3711,-4.3711,-4.3711,-4.3711,-4.3711,-4.3711,-4.3711,-4.3711,-4.3711,-4.3711,-4.3711,-4.3711,-4.301,-4.0259,-3.8203,-3.5273,-3.0781,-2.9913,-2.9913,-2.9913,-2.9913,-2.9913,-2.9913,-2.9913,-2.9913,-2.9913,-2.9913,-2.9913,-2.9913,-2.9913,-2.9913,-2.9913,-3.0074,-3.0221,-3.0354,-3.0515,-3.0742,-3.1036,-3.0902,-3.0398,-2.9494,-2.56,-2.3198,-2.2126,-1.8038,-1.6083,0.0,0.0,-5.7881,-5.7881,-5.8998,-6.0114,0.0,0.0,-6.2381,0.0,-6.2381,-6.2381,-6.2381,-6.2381,-6.2381,-6.2381,-6.0586,-5.917,-5.8812,-5.6991,-5.5551,-5.5179,-5.5179,-5.5179,-5.5179,-5.5179,-5.5658,-5.6765,-5.7004,-5.7603,-5.88,-5.9009,-5.8386,-5.6736,-5.6736,-5.5182,-5.1962,-5.1616,-5.1073,-5.0419,-5.0996,-5.1574,-5.2126,-5.2678,-5.2929,-5.2929,-5.2929,-5.2929,-5.2767,-5.0857,-4.9961,-4.9819,-4.7781,-4.6735,-4.6129,-4.5608,-4.5055,-4.455,-4.387,-4.3711,-4.3711,-4.3711,-4.3711,-4.3711,-4.3711,-4.3711,-4.3711,-4.3711,-4.3711,-4.3711,-4.3711,-4.3711,-4.3711,-4.3711,-4.3711,-4.3711,-4.3711,-4.3711,-4.2326,-3.769,-3.683,-3.5273,-3.0781,-2.9913,-2.9913,-2.9913,-2.9913,-2.9913,-2.9913,-2.9913,-2.9913,-2.9913,-2.9913,-2.9913,-2.9913,-2.9913,-2.9953,-3.002,-3.0234,-3.0421,-3.0568,-3.0795,-3.1036,-3.133,-3.1343,-3.1343,-3.1343,-2.6308,-2.388,-2.3676,-1.8623,-1.6083,0.0,-5.7954,0.0,-5.7881,-5.8998,-6.0114,0.0,0.0,-6.2381,-6.2381,-6.2381,-6.2381,-6.2381,-6.2381,-6.2381,-6.2381,-6.1317,-6.0161,-5.8992,-5.7714,-5.6445,-5.5381,-5.5179,-5.5179,-5.5179,-5.5179,-5.5478,-5.6166,-5.6765,-5.7423,-5.8141,-5.877,-5.8386,-5.6736,-5.6736,-5.5182,-5.1962,-5.0563,-4.9996,-5.0419,-5.0996,-5.1574,-5.2126,-5.2678,-5.2929,-5.2929,-5.2929,-5.2929,-5.2767,-5.0857,-4.9961,-4.9819,-4.7781,-4.5849,-4.4352,-4.5167,-4.4112,-4.27,-4.3398,-4.3711,-4.3711,-4.3711,-4.3711,-4.3711,-4.3711,-4.3711,-4.3711,-4.3711,-4.3711,-4.3711,-4.3711,-4.3711,-4.3711,-4.3711,-4.3711,-4.3711,-4.3711,-4.3711,-4.2326,-3.769,-3.683,-3.5273,-3.0781,-2.9913,-2.9913,-2.9913,-2.9913,-2.9913,-2.9913,-2.9913,-2.9913,-2.9913,-2.9913,-2.9913,-2.9913,-2.9913,-3.0034,-3.0314,-3.0354,-3.0608,-3.1156,-3.1196,-3.1343,-3.1637,-3.165,-3.165,-3.165,-2.6398,-2.388,-2.3676,-1.8623,-1.6083,0.0,0.0,0.0,-5.7881,-5.866,-5.9539,-5.9979,-6.0926,-6.1839,-6.2279,-6.2381,-6.2381,-6.2381,-6.2381,-6.2381,-6.2381,-6.0787,-5.9258,-5.8902,-5.7086,-5.562,-5.528,-5.5179,-5.5179,-5.5179,-5.5179,-5.5478,-5.6137,-5.6735,-5.7393,-5.8082,-5.874,-5.7915,-5.5327,-5.5211,-5.367,-5.0563,-4.9822,-4.969,-4.9891,-5.0845,-5.1398,-5.1599,-5.2528,-5.2929,-5.2929,-5.2929,-5.2189,-5.0857,-4.8938,-4.7321,-4.5998,-4.4117,-4.279,-4.2296,-4.3178,-4.3042,-4.2539,-4.3418,-4.3711,-4.3711,-4.3711,-4.3711,-4.3711,-4.3711,-4.3711,-4.3711,-4.3711,-4.3711,-4.3711,-4.3711,-4.3711,-4.3711,-4.3711,-4.3711,-4.3711,-4.3711,-4.3711,-4.2326,-3.769,-3.683,-3.5273,-3.0781,-2.9913,-2.9913,-2.9913,-2.9913,-2.9913,-2.9913,-2.9913,-2.9913,-2.9913,-2.9913,-2.9913,-2.9913,-3.0087,-3.0247,-3.0354,-3.0715,-3.1009,-3.1223,-3.141,-3.1557,-3.1664,-3.1664,-3.089,-2.9135,-2.5625,-2.3092,-2.1343,-1.784,-1.6083,-5.8703,0.0,0.0,0.0,-5.8457,-5.9201,-5.9945,-6.0723,-6.1501,-6.2245,-6.2381,-6.2381,-6.2381,-6.203,-6.1951,-6.2302,-6.067,-5.9258,-5.8812,-5.7086,-5.562,-5.528,-5.5179,-5.5179,-5.5179,-5.5179,-5.5359,-5.5807,-5.6436,0.0,-5.7752,-5.7951,-5.6647,-5.367,-5.3093,-5.1767,-4.959,-4.959,-4.959,-4.9615,-5.0544,-5.1096,-5.1322,-5.2226,-5.2316,-5.1886,-5.1886,-5.1163,-4.9819,-4.7781,-4.5849,-4.3945,-4.1907,-4.1172,-4.1269,-4.2109,-4.2422,-4.2539,-4.3418,-4.3711,-4.3711,-4.3711,-4.3711,-4.3711,-4.3711,-4.3711,-4.3711,-4.3711,-4.3711,-4.3711,-4.3711,-4.3711,-4.3711,-4.3711,-4.3711,-4.3711,-4.3711,-4.3176,-4.1453,-3.7518,-3.614,-3.4417,-3.0616,-2.9913,-2.9913,-2.9913,-2.9913,-2.9913,-2.9913,-2.9913,-2.9913,-2.9913,-3.0007,-3.006,-3.006,-3.0341,-3.0541,-3.0648,-3.1009,-3.1276,-3.137,-3.157,-3.1664,-3.1664,-3.1664,-2.9911,-2.6409,-2.4657,-2.2507,-1.9978,-1.7253,-1.6083,0.0,0.0,0.0,0.0,0.0,0.0,-5.9911,0.0,-6.1467,-6.2212,-6.2381,-6.2381,-6.2381,-6.1399,-6.0953,-6.211,-6.1317,-6.0043,-5.8902,-5.7714,-5.6541,-5.5381,-5.5179,-5.5179,-5.5179,-5.5179,-5.5179,-5.5179,-5.5807,-5.6436,-5.7034,-5.6129,-5.4594,-5.2086,-5.0436,-4.959,-4.959,-4.959,-4.959,-4.9615,-5.0142,-5.072,-5.1297,-5.185,-5.1368,-4.9961,-4.9961,-4.9961,-4.9677,-4.7781,-4.5701,-4.3794,-4.1907,-4.1172,-4.1269,-4.2109,-4.2422,-4.2539,-4.3418,-4.3711,-4.3711,-4.3711,-4.3711,-4.3711,-4.3711,-4.3711,-4.3711,-4.3711,-4.3711,-4.3711,-4.3711,-4.3711,-4.3711,-4.3711,-4.3711,-4.3711,-4.3526,-4.1807,-3.9564,-3.7175,-3.494,-3.269,-3.0258,-2.9913,-2.9913,-2.9913,-2.9913,-2.9913,-2.9913,-2.9913,-2.9913,-2.9913,-3.0181,-3.0354,-3.0354,-3.0635,-3.0929,-3.1209,-3.1236,-3.137,-3.1664,-3.1664,-3.1664,-3.1664,-3.1664,-2.9122,-2.388,-2.388,-2.2516,-1.9782,-1.7253,-1.6083,-5.9311,0.0,0.0,0.0,0.0,0.0,0.0,0.0,-6.0655,-6.1434,-6.2009,-6.211,-6.1235,-6.087,-6.0417,-5.987,-5.878,-5.79,-5.7527,-5.6445,-5.5551,-5.528,-5.5179,-5.5179,-5.5179,-5.5179,-5.5179,0.0,-5.5807,-5.5783,-5.4788,-5.3354,-5.2352,-5.1962,-5.0436,-4.959,-4.959,-4.959,-4.959,-4.9615,-5.0142,-5.072,-5.1297,-5.185,-5.1368,-4.9961,-4.9961,-4.8361,-4.5701,-4.5127,-4.3815,-4.1907,-4.1463,-4.1172,-4.1269,-4.2109,-4.2422,-4.2539,-4.3418,-4.3711,-4.3711,-4.3711,-4.3711,-4.3711,-4.3711,-4.3711,-4.3711,-4.3711,-4.3711,-4.3711,-4.3711,-4.3711,-4.3711,-4.3711,-4.3711,-4.3195,-4.1639,-3.9395,-3.7518,-3.7003,-3.494,-3.269,-3.0258,-2.9913,-2.9913,-2.9913,-2.9913,-2.9913,-2.9913,-2.9913,-2.9913,-2.9913,-3.0181,-3.0354,-3.0354,-3.0822,-3.1142,-3.1223,-3.1423,-3.1583,-3.1664,-3.1664,-3.1664,-3.1664,-2.9911,-2.7191,-2.388,-2.388,-2.1539,-1.7253,-1.6474,-1.6083,0.0,0.0,0.0,0.0,0.0,0.0,-5.9235,-5.981,-6.0419,-6.1535,-6.211,-6.203,-6.087,-6.0161,-5.9434,-5.8268,-5.6991,-5.6445,-5.6896,-5.6017,-5.5179,-5.5179,-5.5179,-5.5179,-5.5179,-5.5179,-5.5179,-5.5179,-5.5538,-5.507,-5.3326,-5.1927,-5.1189,-5.1016,-5.0078,-4.959,-4.959,-4.959,-4.959,-4.959,-4.9084,-4.9785,-5.1297,-5.0035,-4.9131,-4.865,-4.7904,-4.5701,-4.2922,-4.2922,-4.2196,-4.1172,-4.1172,-4.1289,-4.1523,-4.2187,-4.2539,-4.2793,-4.3476,-4.3711,-4.3711,-4.3711,-4.3711,-4.3711,-4.3711,-4.3711,-4.3711,-4.3711,-4.3711,-4.3711,-4.3711,-4.3711,-4.3711,-4.3711,-4.3711,-4.301,-4.0764,-3.8545,-3.6485,-3.562,-3.3556,-3.1479,-3.0093,-2.9913,-2.9913,-2.9913,-2.9913,-2.9913,-2.9913,-2.9913,-2.9967,-3.0087,-3.0368,-3.0595,-3.0715,-3.1142,-3.141,-3.141,-3.157,-3.1664,-3.1664,-3.1664,-3.1664,-3.1664,-2.9135,-2.6023,-2.2321,-2.2321,-2.0183,-1.6083,-1.6083,-1.6083,0.0,0.0,0.0,0.0,-5.7881,0.0,-5.9573,-5.9979,-6.0486,-6.1839,-6.2279,-6.203,-6.067,-5.9522,-5.836,-5.6991,-5.5918,-5.5551,-5.6638,-5.5918,-5.5179,-5.5179,-5.5179,-5.5179,-5.5179,-5.5179,-5.5179,-5.5179,-5.4845,-5.3936,-5.2168,-5.1296,-5.0369,-4.949,-4.9565,-4.959,-4.959,-4.959,-4.959,-4.959,-4.7641,-4.8197,-5.0846,-4.7284,-4.5966,-4.6588,-4.4827,-4.2922,-4.1172,-4.1172,-4.1172,-4.1172,-4.1172,-4.1426,-4.1855,-4.2266,-4.2695,-4.3144,-4.3555,-4.3711,-4.3711,-4.3711,-4.3711,-4.3711,-4.3711,-4.3711,-4.3711,-4.3711,-4.3711,-4.3711,-4.3711,-4.3711,-4.3711,-4.3711,-4.3526,-4.2659,-4.0427,-3.8032,-3.5793,-3.338,-3.1301,-2.9913,-2.9913,-2.9913,-2.9913,-2.9913,-2.9913,-2.9913,-2.9913,-2.994,-3.0074,-3.0327,-3.0648,-3.0942,-3.1209,-3.1503,-3.1664,-3.1664,-3.1664,-3.1664,-3.1664,-3.1664,-3.1474,-3.1284,-2.8356,-2.4463,-1.9585,-1.9585,-1.8426,-1.6083,-1.6083,-1.6083,0.0,0.0,0.0,0.0,0.0,0.0,-5.8254,-5.9235,-6.0182,-6.0486,-6.1535,-6.1756,-5.9522,-5.8992,-5.8085,-5.5918,-5.5381,-5.528,-5.5551,-5.5381,-5.5179,-5.5179,-5.5179,-5.5179,-5.5179,-5.5179,-5.5179,-5.5179,-5.2934,-5.1128,-4.9924,-4.9057,-4.8685,-4.8912,-4.9364,-4.959,-4.959,-4.959,-4.959,-4.959,-4.7641,-4.7504,-4.8803,-4.6561,-4.5244,-4.4677,-4.4247,-4.2922,-4.1172,-4.1172,-4.1172,-4.1172,-4.1172,-4.1426,-4.1855,-4.2266,-4.2695,-4.3144,-4.3555,-4.3711,-4.3711,-4.3711,-4.3711,-4.3711,-4.3711,-4.3711,-4.3711,-4.3711,-4.3711,-4.3711,-4.3711,-4.3711,-4.3711,-4.3711,-4.2326,-4.0259,-3.8032,-3.562,-3.338,-3.0959,-3.0272,-2.9913,-2.9913,-2.9913,-2.9913,-2.9913,-2.9913,-2.9913,-2.9913,-3.0127,-3.0301,-3.0354,-3.0822,-3.1169,-3.1223,-3.1503,-3.1664,-3.1664,-3.1664,-3.1664,-3.1664,-3.1664,-3.07,-2.856,-2.388,-1.9978,-1.6864,-1.6864,-1.6672,-1.6083,-1.6083,-1.6083,0.0,0.0,0.0,-5.8137,0.0,0.0,0.0,-5.9302,-6.0216,-6.0622,-6.1603,-6.1676,-5.9258,-5.8812,-5.7993,-5.5551,-5.5179,-5.5179,-5.5179,-5.5179,-5.5179,-5.5179,-5.5179,-5.5179,-5.5179,-5.5179,-5.4845,-5.4171,-5.1291,-4.9522,-4.9323,-4.8416,-4.8184,-4.8761,-4.9314,-4.959,-4.959,-4.959,-4.9177,-4.8191,-4.6264,-4.5849,-4.6473,-4.3911,-4.311,-4.376,-4.2973,-4.2042,-4.1172,-4.1172,-4.1172,-4.1172,-4.1172,-4.1562,-4.2129,-4.2344,-4.2832,-4.3418,-4.3633,-4.3711,-4.3711,-4.3711,-4.3711,-4.3711,-4.3711,-4.3711,-4.3711,-4.3711,-4.3711,-4.3711,-4.3711,-4.3711,-4.3361,-4.2326,-4.1118,-3.9395,-3.5793,-3.4257,-3.269,-3.0437,-2.9913,-2.9913,-2.9913,-2.9913,-2.9913,-2.9913,-2.9913,-2.9913,-2.9913,-3.0181,-3.0421,-3.0568,-3.0969,-3.1289,-3.1436,-3.1583,-3.1664,-3.1664,-3.1664,-3.1664,-3.1664,-3.1664,-2.9911,-2.6023,-2.193,-1.8616,-1.6083,-1.6083,-1.6083,-1.6083,-1.6083,-1.6083,0.0,0.0,0.0,0.0,0.0,-5.8084,0.0,0.0,0.0,-6.1129,-6.1873,-6.1756,-5.9522,0.0,0.0,-5.5584,0.0,0.0,0.0,-5.5029,0.0,-5.5179,-5.5179,-5.5179,-5.5179,-5.4976,-5.4171,-5.2615,-5.0099,-4.8626,-4.8721,-4.8141,-4.8033,-4.8586,-4.9138,-4.9336,-4.9023,-4.9047,-4.806,-4.6264,-4.4368,-4.3808,-4.4295,-4.1264,-4.0983,-4.287,-4.1728,-4.1172,-4.1172,-4.1172,-4.1172,-4.1172,-4.1172,-4.168,-4.2422,-4.2422,-4.2969,-4.3711,-4.3711,-4.3711,-4.3711,-4.3711,-4.3711,-4.3711,-4.3711,-4.3711,-4.3711,-4.3711,-4.3711,-4.3711,-4.3711,-4.3711,-4.3176,-4.0764,-3.9903,-3.8527,-3.4242,-3.3043,-3.2174,-3.0258,-2.9913,-2.9913,-2.9913,-2.9913,-2.9913,-2.9913,-2.9913,-2.994,-2.9993,-3.0261,-3.0555,-3.0849,-3.1142,-3.141,-3.165,-3.1664,-3.1664,-3.1664,-3.1664,-3.1664,-3.1664,-3.0687,-2.796,-2.3286,-2.0559,-1.8228,-1.6083,-1.6083,-1.6083,-1.6083,-1.6083,-1.6083,0.0,0.0,0.0,0.0,-5.8458,0.0,-5.8829,0.0,-6.0317,-6.1129,0.0,0.0,0.0,0.0,0.0,0.0,0.0,0.0,-5.3563,-5.4431,-5.5179,-5.5179,-5.5179,-5.5179,-5.5179,-5.3964,-5.2615,-5.1044,-4.9395,-4.8003,-4.6737,-4.7025,-4.7456,-4.7983,-4.856,-4.8268,-4.7088,-4.7088,-4.6264,-4.4368,-4.257,-4.1862,-4.2327,-4.0692,-4.0269,-4.0833,-4.1131,-4.1172,-4.1172,-4.1172,-4.1172,-4.1172,-4.1172,-4.168,-4.2422,-4.2422,-4.2969,-4.3711,-4.3711,-4.3711,-4.3711,-4.3711,-4.3711,-4.3711,-4.3711,-4.3711,-4.3711,-4.3711,-4.3711,-4.3711,-4.3711,-4.3711,-4.3176,-4.0764,-3.8715,-3.6485,-3.3907,-3.1834,-3.0258,-2.9913,-2.9913,-2.9913,-2.9913,-2.9913,-2.9913,-2.9913,-2.9913,-3.0007,-3.0274,-3.0568,-3.0849,-3.1142,-3.1436,-3.1637,-3.1664,-3.1664,-3.1664,-3.1664,-3.1664,-3.1664,-3.1664,-2.718,-2.3481,-2.0559,-1.784,-1.6474,-1.6083,-1.6083,-1.6083,-1.6083,-1.6083,-1.6083,0.0,0.0,0.0,0.0,0.0,0.0,-5.9078,0.0,-6.0892,0.0,0.0,0.0,0.0,0.0,0.0,0.0,-5.5621,0.0,0.0,0.0,-5.5179,-5.5179,0.0,0.0,-5.3964,-5.2509,-5.1044,-4.9508,-4.8094,-4.6968,-4.6301,-4.6828,-4.738,-4.7883,-4.846,-4.8194,-4.6798,-4.6798,-4.5298,-4.2452,-4.1749,-4.0882,-3.9976,-3.9998,-4.0,-4.0195,-4.0879,-4.1172,-4.1172,-4.1172,-4.1172,-4.1172,-4.1172,-4.168,-4.2422,-4.2422,-4.2969,-4.3711,-4.3711,-4.3711,-4.3711,-4.3711,-4.3711,-4.3711,-4.3711,-4.3711,-4.3711,-4.3711,-4.3711,-4.3711,-4.3711,-4.2659,-4.1118,-3.8885,-3.6485,-3.4242,-3.182,-3.0616,-2.9913,-2.9913,-2.9913,-2.9913,-2.9913,-2.9913,-2.9913,-2.9913,-2.9913,-3.002,-3.0327,-3.0608,-3.0902,-3.1196,-3.149,-3.1664,-3.1664,-3.1664,-3.1664,-3.1664,-3.1664,-3.108,-2.9529,-2.5819,-2.2711,-1.9978,-1.7444,-1.6083,-1.6083,-1.6083,-1.6083,-1.6083,-1.6083,-1.6083,-6.2076,0.0,0.0,0.0,0.0,0.0,0.0,0.0,0.0,0.0,0.0,0.0,0.0,0.0,0.0,0.0,0.0,-5.5059,0.0,-5.497,-5.5179,0.0,0.0,0.0,0.0,-5.1618,-5.0045,-4.8647,-4.7087,-4.6301,-4.6301,-4.6165,-4.6439,-4.7107,-4.7121,-4.6573,-4.5298,-4.5298,-4.3658,-4.0514,-4.0514,-3.9818,-3.8613,-3.9492,-3.9902,-3.9941,-4.0801,-4.1172,-4.1172,-4.1172,-4.1172,-4.1172,-4.1172,-4.168,-4.2422,-4.2422,-4.2969,-4.3711,-4.3711,-4.3711,-4.3711,-4.3711,-4.3711,-4.3711,-4.3711,-4.3711,-4.3711,-4.3711,-4.3711,-4.3526,-4.301,-4.1453,-3.9564,-3.6485,-3.4591,-3.269,-3.0437,-2.9913,-2.9913,-2.9913,-2.9913,-2.9913,-2.9913,-2.9913,-2.9913,-2.9913,-2.9913,-3.0047,-3.0434,-3.0662,-3.0929,-3.1303,-3.1543,-3.1664,-3.1664,-3.1664,-3.1664,-3.1664,-3.108,-2.9517,-2.6806,-2.4269,-2.1539,-1.9002,-1.7055,-1.6083,-1.6083,-1.6083,-1.6083,-1.6083,-1.6083,-1.6083,0.0,0.0,0.0,-6.1441,0.0,0.0,0.0,0.0,-6.1501,0.0,0.0,0.0,0.0,0.0,0.0,0.0,0.0,0.0,0.0,0.0,-5.5179,-5.5179,0.0,0.0,0.0,-5.1618,-5.0045,-4.8647,-4.7087,-4.6301,-4.6301,-4.4767,-4.423,-4.5253,-4.3716,-4.2298,-4.1467,-4.1467,-4.0514,-3.872,-3.872,-3.872,-3.8613,-3.9492,-3.9902,-3.9941,-4.0801,-4.1172,-4.1172,-4.1172,-4.1172,-4.1172,-4.1172,-4.168,-4.2422,-4.2422,-4.2969,-4.3711,-4.3711,-4.3711,-4.3711,-4.3711,-4.3711,-4.3711,-4.3711,-4.3711,-4.3711,-4.3711,-4.3711,-4.3176,-4.095,-4.0427,-3.9225,-3.4591,-3.338,-3.269,-3.0437,-2.9913,-2.9913,-2.9913,-2.9913,-2.9913,-2.9913,-2.9913,-2.9913,-2.9913,-2.9913,-3.0127,-3.0702,-3.0782,-3.1022,-3.1597,-3.1664,-3.1664,-3.1664,-3.1664,-3.1664,-3.1664,-2.9338,-2.6806,-2.4074,-2.1539,-1.8813,-1.6275,-1.6083,-1.6083,-1.6083,-1.6083,-1.6083,-1.6083,-1.6083,-1.6083,0.0,0.0,-6.3238,-6.3163,0.0,0.0,0.0,0.0,0.0,0.0,0.0,0.0,0.0,0.0,0.0,0.0,0.0,0.0,0.0,0.0,-5.5179,-5.5179,0.0,0.0,0.0,0.0,-4.8621,-4.7205,-4.6541,-4.5793,-4.462,-4.3979,-4.3537,-4.3059,-4.2722,-4.2009,-4.0885,-4.1179,-4.0371,-3.8574,-3.8574,-3.8574,-3.8613,-3.9492,-3.9902,-3.9941,-4.0801,-4.1172,-4.1172,-4.1172,-4.1172,-4.1172,-4.1172,-4.168,-4.2422,-4.2422,-4.2969,-4.3711,-4.3711,-4.3711,-4.3711,-4.3711,-4.3711,-4.3361,-4.1974,-4.1453,-4.1453,-4.1453,-4.0259,-3.9225,-4.009,-3.8015,-3.5273,-3.3731,-3.2174,-3.0781,-3.0093,-2.9913,-2.9913,-2.9913,-2.9913,-2.9913,-2.9913,-2.9913,-2.9913,-2.9913,-2.9913,-3.0127,-3.0715,-3.0795,-3.1022,-3.161,-3.1664,-3.1664,-3.1664,-3.1664,-3.1664,-3.1664,-2.9326,-2.6602,-2.4074,-2.1343,-1.8813,-1.6083,-1.6083,-1.6083,-1.6083,-1.6083,-1.6083,-1.6083,-1.6083,-1.6083,-6.431,-6.453,0.0,-6.4432,-6.4107,0.0,-6.31,0.0,0.0,0.0,0.0,0.0,0.0,0.0,0.0,0.0,0.0,0.0,0.0,-5.4743,0.0,0.0,-5.3623,-5.2402,0.0,-4.9395,-4.786,-4.6421,-4.5671,-4.489,-4.3731,-4.258,-4.164,-4.0979,-4.0791,-4.0446,-3.9695,-4.0146,-3.9818,-3.8574,-3.8574,-3.8574,-3.8613,-3.9492,-3.9902,-3.9941,-4.0801,-4.1172,-4.1172,-4.1172,-4.1172,-4.1172,-4.1172,-4.168,-4.2422,-4.2422,-4.2969,-4.3711,-4.3711,-4.3711,-4.3711,-4.3711,-4.3711,-4.3195,-4.0932,-4.0259,-4.0072,-3.9225,-3.8032,-3.7003,-3.769,-3.562,-3.3219,-3.2351,-3.0959,-2.9913,-2.9913,-2.9913,-2.9913,-2.9913,-2.9913,-2.9913,-2.9913,-2.9913,-2.9913,-2.9913,-2.9913,-3.0127,-3.0715,-3.0795,-3.1022,-3.161,-3.1664,-3.1664,-3.1664,-3.1664,-3.1284,-3.0306,-2.7768,-2.5238,-2.2711,-1.9978,-1.7863,-1.6164,-1.611,-1.611,-1.6164,-1.611,-1.6083,-1.6083,-1.6083,-1.6083]}]]